     2              OBSERVATION DATA    GPS                 RINEX VERSION / TYPE
teqc 1999Jul19 20000115 03:16:42UTC                         PGM / RUN BY / DATE
                                                            COMMENT
Original Marker Name: ONYX                                  COMMENT
Campaign Name: hector mine                                  COMMENT
4-Character Station Name: ONYX                              COMMENT
6-Character Antenna Code: DMRCHT                            COMMENT
Vertical Measurement Point: BCR                             COMMENT
Vertical Offset to Rinex Ref. Point: 0.0348                 COMMENT
Radial Measurement Point: ECF                               COMMENT
Radial Offset to Rinex Ref. Point: 0.1897                   COMMENT
Antenna Height from Field Measurement: 1.5420 m             COMMENT
Additional Antenna Identification Info.:                    COMMENT
Turborogue and Ashtech Choke Ring                           COMMENT
                                                            COMMENT
Original XYZ: -2283934.5357 -4736651.5281 3597804.5727      COMMENT
New XYZ position is based on association with SCEC monument COMMENT
E1D0X4E2+0011. Position of that monument is believed to be  COMMENT
valid to within 1 m horizontally; vertical accuracy         COMMENT
should be no worse than 3-times this value.                 COMMENT
                                                            COMMENT
Revised Rinex header created by UCSD GPS archive for        COMMENT
GSAC on 10-Mar-2000 (2000:070) 03:25:11 GMT                 COMMENT
For assistance contact dagnew@ucsd.edu or hjohnson@ucsd.edu COMMENT
                                                            COMMENT
ONYX 1939 1982                                              MARKER NAME
MIT NGS                                                     OBSERVER / AGENCY
188 ASHTECH Z-XII3 CD00                                     REC # / TYPE / VERS
364 DORNE-MARGOL. TYPE T                                    ANT # / TYPE
 -2374784.5635 -4719785.4526  3565680.1563                  APPROX POSITION XYZ
        1.4955        0.0000        0.0000                  ANTENNA: DELTA H/E/N
     1     1     0                                          WAVELENGTH FACT L1/2
     7    C1    L1    L2    P1    P2    S1    S2            # / TYPES OF OBSERV
     0                                                      INTERVAL
  2000     1    11    17    45    0.000000                  TIME OF FIRST OBS
  2000     1    11    23    59   30.000000                  TIME OF LAST OBS
                                                            END OF HEADER
 00  1 11 17 45  0.0000000  0  7G 1G27G19G18G 3G16G31
  21785722.917      -74011.91349    -52907.41247  21785722.038    21785731.790
       238.000         199.000
  22855970.368     -421598.66749   -302244.37046  22855969.482    22855978.168
       227.000         180.000
  21159848.506     -329894.10749   -238338.10947  21159848.202    21159855.981
       239.000         205.000
  20170451.665     -258269.56549   -186138.95548  20170451.457    20170458.383
       245.000         217.000
  23216615.679     -237359.62149   -175527.30446  23216614.112    23216626.355
       227.000         167.000
  22714646.873       16746.25849     12271.07246  22714646.897    22714657.138
       229.000         179.000
  22528360.550     -428281.32949   -309470.24446  22528359.881    22528371.560
       225.000         178.000
 00  1 11 17 45 30.0000000  0  7G 1G27G19G18G 3G16G31
  21781388.766      -96781.61549    -70650.16747  21781389.288    21781398.995
       238.000         198.000
  22828463.372     -566152.21249   -414883.56346  22828462.804    22828471.155
       227.000         182.000
  21138207.971     -443612.41849   -326949.83447  21138208.823    21138216.728
       244.000         208.000
  20153689.136     -346360.04749   -254780.94748  20153688.592    20153695.895
       247.000         219.000
  23200826.808     -320322.48949   -240173.71346  23200825.932    23200838.269
       225.000         169.000
  22715895.659       23304.77849     17381.40746  22715894.214    22715904.109
       231.000         182.000
  22500316.306     -575656.74449   -424308.24146  22500315.915    22500325.727
       225.000         177.000
 00  1 11 17 46  0.0000000  0  7G 1G27G19G18G 3G16G31
  21644985.221     -813590.84649   -629202.94247  21644985.638    21644994.414
       236.000         198.000
  22668822.592    -1405068.19949  -1068584.37846  22668822.870    22668830.770
       226.000         181.000
  20984457.974    -1251577.73449   -956533.24047  20984458.312    20984465.835
       241.000         208.000
  20004876.387    -1128375.78949   -864143.91648  20004875.663    20004883.136
       247.000         219.000
  23052992.082    -1097198.00949   -845531.33646  23052991.736    23053002.729
       220.000         167.000
  22585048.170     -664300.01149   -518414.74346  22585046.288    22585058.533
       224.000         180.000
  22340206.428    -1417040.81749  -1079932.18946  22340206.447    22340216.843
       228.000         178.000
 00  1 11 17 46 30.0000000  0  8G 1G27G19G18G 3G16G31G13
  21657140.832     -749714.53649   -579429.34947  21657140.514    21657150.013
       236.000         197.000
  22657682.134    -1463612.95249  -1114203.69646  22657681.623    22657690.030
       232.000         184.000
  20979229.515    -1279054.61449   -977943.83547  20979229.272    20979237.765
       242.000         209.000
  20004647.198    -1129579.33549   -865081.81148  20004646.861    20004654.278
       246.000         219.000
  23053743.460    -1093248.62649   -842453.93146  23053743.885    23053753.626
       219.000         165.000
  22602738.639     -571333.14849   -445973.22446  22602738.899    22602749.613
       231.000         181.000
  22328665.652    -1477690.49249  -1127191.72646  22328665.756    22328675.669
       229.000         181.000
  23433963.603    -1159463.17949   -873994.07345  23433964.034    23433973.012
       210.000         142.000
 00  1 11 17 47  0.0000000  0  8G 1G27G19G18G 3G16G31G13
  21669362.804     -685487.22049   -529382.20347  21669362.273    21669372.766
       234.000         197.000
  22646550.415    -1522111.00849  -1159786.63146  22646550.599    22646559.321
       232.000         187.000
  20974030.508    -1306375.31949   -999232.73447  20974029.911    20974038.317
       242.000         209.000
  20004515.418    -1130271.81449   -865621.47448  20004515.462    20004522.364
       247.000         219.000
  23054593.900    -1088779.47549   -838971.52546  23054592.688    23054604.115
       219.000         164.000
  22620475.242     -478128.73749   -373346.60646  22620475.071    22620485.307
       232.000         182.000
  22317205.236    -1537915.57149  -1174120.40946  22317203.671    22317216.257
       226.000         180.000
  23416377.590    -1251873.87949   -946002.42245  23416377.969    23416388.189
       211.000         145.000
 00  1 11 17 47 30.0000000  0  8G 1G27G19G18G 3G16G31G13
  21681651.664     -620908.50849   -479061.26747  21681651.245    21681661.149
       234.000         196.000
  22635431.290    -1580542.37549  -1205317.60846  22635430.937    22635439.605
       231.000         187.000
  20968861.928    -1333535.69549  -1020396.71047  20968861.579    20968869.949
       243.000         210.000
  20004486.313    -1130425.61849   -865741.37848  20004486.352    20004493.354
       247.000         220.000
  23055547.117    -1083769.44249   -835067.63946  23055546.807    23055559.426
       220.000         165.000
  22638255.147     -384695.07449   -300541.35546  22638254.862    22638264.759
       230.000         180.000
  22305827.206    -1597706.35349  -1220710.66446  22305826.787    22305837.615
       226.000         181.000
  23398811.609    -1344186.80149  -1017934.56245  23398811.840    23398820.747
       211.000         144.000
 00  1 11 17 48  0.0000000  0  8G 1G27G19G18G 3G16G31G13
  21694009.227     -555968.17449   -428458.54547  21694008.780    21694018.878
       234.000         195.000
  22624330.108    -1638879.88849  -1250775.45446  22624329.742    22624338.871
       230.000         186.000
  20963727.661    -1360516.86749  -1041421.04447  20963727.573    20963735.728
       244.000         210.000
  20004561.974    -1130028.74249   -865432.17848  20004561.600    20004569.124
       248.000         220.000
  23056606.010    -1078206.03849   -830732.59646  23056604.475    23056617.717
       221.000         164.000
  22656079.265     -291029.29949   -227555.23146  22656079.203    22656089.025
       229.000         179.000
  22294535.465    -1657045.09649  -1266948.69146  22294535.284    22294545.224
       227.000         180.000
  23381271.739    -1436362.90049  -1089760.10545  23381271.223    23381279.624
       213.000         143.000
 00  1 11 17 48 30.0000000  0  8G 1G27G19G18G 3G16G31G13
  21706434.789     -490671.91649   -377578.48847  21706435.627    21706444.965
       236.000         196.000
  22613248.359    -1697114.39849  -1296153.03946  22613247.135    22613256.758
       227.000         183.000
  20958625.531    -1387329.00749  -1062313.67547  20958625.765    20958633.823
       245.000         210.000
  20004742.957    -1129077.61449   -864691.09548  20004743.065    20004749.901
       248.000         220.000
  23057771.358    -1072081.77649   -825960.51046  23057770.428    23057782.266
       219.000         164.000
  22673945.363     -197143.19049   -154397.44446  22673944.975    22673955.512
       230.000         179.000
  22283329.664    -1715932.13249  -1312834.75746  22283329.432    22283340.397
       226.000         180.000
  23363759.630    -1528391.41949  -1161470.59545  23363758.936    23363767.303
       213.000         142.000
 00  1 11 17 49  0.0000000  0  8G 1G27G19G18G 3G16G31G13
  21718929.897     -425011.66449   -326414.78247  21718929.838    21718938.701
       235.000         196.000
  22602187.639    -1755238.68849  -1341444.72346  22602188.061    22602195.809
       228.000         182.000
  20953556.532    -1413967.76449  -1083071.19747  20953556.515    20953564.475
       245.000         210.000
  20005026.514    -1127588.16149   -863530.53848  20005026.368    20005033.242
       247.000         219.000
  23059043.801    -1065394.19549   -820749.47646  23059044.186    23059054.792
       220.000         163.000
  22691854.181     -103032.24349    -81064.41746  22691854.606    22691865.125
       232.000         178.000
  22272209.163    -1774370.85149  -1358371.49046  22272208.991    22272219.308
       227.000         179.000
  23346274.701    -1620275.09749  -1233068.22945  23346274.171    23346280.808
       211.000         141.000
 00  1 11 17 49 30.0000000  0  8G 1G27G19G18G 3G16G31G13
  21731493.485     -358989.50749   -274969.08047  21731493.600    21731502.385
       236.000         194.000
  22591145.303    -1813267.07349  -1386661.66646  22591145.385    22591153.424
       230.000         182.000
  20948521.004    -1440430.01049  -1103691.18147  20948521.141    20948529.184
       244.000         211.000
  20005406.108    -1125593.38849   -861976.21548  20005405.696    20005413.001
       247.000         219.000
  23060421.254    -1058156.70049   -815109.89946  23060421.612    23060432.397
       222.000         165.000
  22709806.765       -8691.97849     -7552.73846  22709806.838    22709817.304
       231.000         180.000
  22261170.070    -1832382.29449  -1403575.27046  22261169.643    22261179.905
       226.000         180.000
  23328814.883    -1712025.91149  -1304562.32945  23328814.798    23328823.201
       212.000         140.000
 00  1 11 17 50  0.0000000  0  8G 1G27G19G18G 3G16G31G13
  21744123.932     -292616.95949   -223250.33347  21744124.036    21744133.587
       236.000         194.000
  22580115.134    -1871231.64149  -1431828.86346  22580114.912    22580123.322
       230.000         183.000
  20943517.448    -1466724.59649  -1124180.50847  20943517.335    20943525.713
       245.000         212.000
  20005875.694    -1123125.84349   -860053.50048  20005875.621    20005882.691
       247.000         219.000
  23061901.176    -1050381.60249   -809051.43946  23061901.778    23061912.408
       224.000         166.000
  22727801.415       85869.20749     66131.08146  22727801.251    22727811.694
       229.000         179.000
  22250208.377    -1889986.91149  -1448462.01846  22250208.181    22250218.391
       227.000         180.000
  23311375.247    -1803672.08549  -1375974.89645  23311375.211    23311384.401
       213.000         140.000
 00  1 11 17 50 30.0000000  0  8G 1G27G19G18G 3G16G31G13
  21756819.201     -225904.52949   -171266.77347  21756819.917    21756828.982
       237.000         195.000
  22569093.446    -1929151.86449  -1476961.52246  22569092.892    22569101.678
       230.000         184.000
  20938544.843    -1492856.61549  -1144543.17047  20938545.007    20938552.607
       246.000         212.000
  20006435.354    -1120185.19649   -857762.13548  20006435.063    20006442.263
       247.000         219.000
  23063485.544    -1042055.89849   -802563.94146  23063484.682    23063497.922
       219.000         166.000
  22745835.646      180639.27749    139977.70746  22745833.977    22745846.716
       226.000         178.000
  22239323.375    -1947188.40549  -1493034.62646  22239322.537    22239333.401
       228.000         180.000
  23293951.403    -1895235.11949  -1447322.67645  23293951.813    23293960.036
       212.000         140.000
 00  1 11 17 51  0.0000000  0  8G 1G27G19G18G 3G16G31G13
  21769579.411     -158850.76649   -119017.22247  21769579.084    21769587.982
       236.000         195.000
  22558077.134    -1987042.10049  -1522070.79146  22558076.299    22558086.174
       228.000         185.000
  20933604.492    -1518819.10349  -1164773.73947  20933604.397    20933611.998
       246.000         212.000
  20007084.024    -1116776.62249   -855106.15048  20007083.844    20007091.134
       247.000         218.000
  23065173.979    -1033181.36749   -795648.77346  23065172.573    23065186.577
       218.000         166.000
  22763907.009      275604.85449    213976.64646  22763908.584    22763917.966
       230.000         177.000
  22228514.993    -2003986.78249  -1537293.14546  22228514.719    22228524.623
       228.000         180.000
  23276542.409    -1986719.91449  -1518609.50745  23276541.606    23276550.490
       212.000         139.000
 00  1 11 17 51 30.0000000  0  8G 1G27G19G18G 3G16G31G13
  21782406.154      -91444.99549    -66493.37647  21782406.064    21782415.877
       236.000         194.000
  22547067.756    -2044896.82549  -1567152.43446  22547067.740    22547076.946
       231.000         187.000
  20928697.864    -1544604.29249  -1184866.16147  20928698.054    20928705.335
       246.000         212.000
  20007824.612    -1112885.06849   -852073.81548  20007824.571    20007831.740
       246.000         218.000
  23066968.389    -1023751.65449   -788300.98146  23066969.619    23066979.566
       222.000         166.000
  22782012.515      370746.55849    288112.81646  22782012.871    22782022.518
       230.000         177.000
  22217786.334    -2060366.48449  -1581225.38646  22217785.507    22217795.871
       224.000         179.000
  23259150.057    -2078116.14049  -1589827.34545  23259150.855    23259158.182
       208.000         139.000
 00  1 11 17 52  0.0000000  0  8G 1G27G19G18G 3G16G31G13
  21795302.504      -23675.88149    -13686.42347  21795303.435    21795312.183
       238.000         196.000
  22536067.123    -2102706.15249  -1612198.68747  22536067.095    22536076.471
       230.000         188.000
  20923824.714    -1570213.46049  -1204821.40347  20923824.418    20923832.137
       246.000         211.000
  20008662.185    -1108483.76949   -848644.25948  20008661.862    20008669.056
       247.000         218.000
  23068870.174    -1013760.33449   -780515.59346  23068869.674    23068881.822
       221.000         166.000
  22800147.286      466045.07949    362371.22046  22800146.417    22800157.747
       226.000         177.000
  22207141.808    -2116303.60449  -1624812.74146  22207142.065    22207150.748
       229.000         180.000
  23241775.098    -2169421.49649  -1660974.33745  23241774.254    23241783.970
       205.000         137.000
 00  1 11 17 52 30.0000000  0  8G 1G27G19G18G 3G16G31G13
  21808270.262       44468.47949     39412.93547  21808269.459    21808279.032
       234.000         195.000
  22525080.642    -2160440.66249  -1657186.65447  22525080.181    22525089.182
       230.000         189.000
  20918987.403    -1595633.89549  -1224629.56647  20918986.937    20918995.243
       244.000         211.000
  20009602.262    -1103543.87349   -844795.02248  20009602.011    20009609.194
       247.000         218.000
  23070877.209    -1003212.69849   -772296.69446  23070875.225    23070888.451
       217.000         165.000
  22818313.204      561507.12049    436757.02146  22818314.200    22818323.918
       230.000         177.000
  22196586.419    -2171773.94449  -1668036.38746  22196586.133    22196596.418
       227.000         180.000
  23224421.677    -2260614.14149  -1732033.55045  23224420.318    23224430.357
       206.000         136.000
 00  1 11 17 53  0.0000000  0  8G 1G27G19G18G 3G16G31G13
  21821311.390      113001.57949     92815.21447  21821311.031    21821320.795
       235.000         193.000
  22514111.988    -2218081.35149  -1702101.50747  22514111.615    22514120.927
       230.000         188.000
  20914186.524    -1620862.12749  -1244287.96347  20914185.940    20914194.396
       244.000         210.000
  20010646.793    -1098055.20549   -840518.17948  20010646.578    20010653.784
       246.000         218.000
  23072987.324     -992122.35749   -763654.94246  23072987.323    23072998.241
       220.000         163.000
  22836512.908      657143.59049    511278.71546  22836512.381    22836522.541
       228.000         178.000
  22186122.759    -2226760.49249  -1710883.01246  22186123.226    22186133.185
       230.000         181.000
  23207094.569    -2351672.23149  -1802987.87045  23207094.593    23207103.491
       199.000         135.000
 00  1 11 17 53 30.0000000  0  8G 1G27G19G18G 3G16G31G13
  21834423.876      181907.37349    146507.88347  21834424.582    21834434.171
       236.000         193.000
  22503163.178    -2275618.52149  -1746935.69246  22503162.505    22503171.418
       230.000         187.000
  20909420.921    -1645905.21649  -1263802.09747  20909420.679    20909428.595
       244.000         210.000
  20011797.726    -1092007.24549   -835805.51348  20011797.571    20011804.962
       247.000         218.000
  23075202.012     -980484.66749   -754586.66246  23075201.590    23075213.254
       218.000         163.000
  22854748.785      752973.45549    585951.12546  22854746.118    22854759.461
       222.000         176.000
  22175754.673    -2281245.63849  -1753338.95046  22175753.975    22175762.880
       229.000         181.000
  23189793.315    -2442588.56249  -1873831.78345  23189793.840    23189802.209
       202.000         135.000
 00  1 11 17 54  0.0000000  0  8G 1G27G19G18G 3G16G31G13
  21847605.369      251175.23849    200482.70547  21847605.138    21847615.534
       234.000         193.000
  22492233.445    -2333054.65049  -1791691.14246  22492232.491    22492242.487
       227.000         185.000
  20904688.861    -1670772.62649  -1283179.33347  20904688.575    20904696.397
       244.000         209.000
  20013056.041    -1085394.58149   -830652.81848  20013055.890    20013063.580
       246.000         219.000
  23077519.627     -968305.30249   -745096.28946  23077519.855    23077532.210
       221.000         165.000
  22873025.212      849018.24249    660791.00246  22873025.424    22873035.971
       226.000         175.000
  22165482.270    -2335226.93949  -1795402.25646  22165482.156    22165491.280
       228.000         181.000
  23172521.715    -2533352.80249  -1944557.14745  23172521.087    23172529.354
       201.000         134.000
 00  1 11 17 54 30.0000000  0  8G 1G27G19G18G 3G16G31G13
  21860853.611      320795.72849    254732.29247  21860852.727    21860863.588
       234.000         193.000
  22481322.699    -2390390.28249  -1836368.29546  22481322.954    22481330.777
       228.000         184.000
  20899989.118    -1695469.73949  -1302423.87547  20899988.819    20899996.909
       244.000         209.000
  20014419.028    -1078232.51649   -825072.02148  20014419.106    20014426.127
       248.000         219.000
  23079939.248     -955592.44549   -735190.22146  23079940.170    23079952.517
       223.000         167.000
  22891344.938      945286.02049    735804.64246  22891344.542    22891354.967
       226.000         175.000
  22155303.269    -2388719.43849  -1837084.66546  22155303.812    22155312.715
       232.000         183.000
  23155280.737    -2623953.53949  -2015155.10645  23155279.424    23155289.395
       201.000         137.000
 00  1 11 17 55  0.0000000  0  8G 1G27G19G18G 3G16G31G13
  21874166.676      390755.67649    309246.37647  21874166.809    21874176.294
       234.000         193.000
  22470427.938    -2447643.28049  -1880981.06446  22470427.597    22470435.964
       226.000         182.000
  20895318.994    -1720011.56349  -1321547.41447  20895319.671    20895326.975
       245.000         210.000
  20015881.952    -1070545.56249   -819082.22048  20015881.853    20015888.940
       247.000         218.000
  23082462.190     -942335.47649   -724860.18446  23082462.204    23082474.349
       221.000         167.000
  22909703.525     1041761.48749    810980.11546  22909701.823    22909713.885
       222.000         173.000
  22145214.300    -2441738.67049  -1878398.30346  22145213.068    22145223.471
       228.000         184.000
  23138069.660    -2714395.32249  -2085629.18245  23138069.148    23138078.672
       203.000         140.000
 00  1 11 17 55 30.0000000  0  8G 1G27G19G18G 3G16G31G13
  21887544.166      461053.41749    364023.69547  21887544.538    21887554.156
       234.000         192.000
  22459545.299    -2504832.11549  -1925543.83646  22459545.520    22459553.851
       228.000         183.000
  20890677.660    -1744403.29549  -1340553.98347  20890677.895    20890685.242
       244.000         211.000
  20017441.586    -1062349.82849   -812695.95948  20017441.224    20017448.764
       247.000         219.000
  23085087.326     -928539.98049   -714110.52446  23085087.876    23085098.475
       222.000         166.000
  22928097.450     1138424.49749    886301.74246  22928097.628    22928109.927
       226.000         173.000
  22135212.807    -2494296.44249  -1919352.38546  22135211.992    22135222.053
       229.000         184.000
  23120886.429    -2804691.25749  -2155989.65145  23120887.353    23120896.809
       207.000         144.000
 00  1 11 17 56  0.0000000  0  9G 1G27G19G18G 3G16G 2G31G13
  21900990.549      531714.45149    419084.09347  21900990.440    21901002.184
       233.000         192.000
  22448674.579    -2561959.35949  -1970058.62446  22448673.996    22448683.241
       229.000         185.000
  20886064.171    -1768647.84349  -1359445.85247  20886063.759    20886071.855
       244.000         211.000
  20019094.805    -1053662.20249   -805926.41048  20019094.489    20019102.120
       248.000         219.000
  23087811.699     -914223.80349   -702955.13646  23087811.641    23087822.139
       222.000         165.000
  22946522.238     1235244.97549    961746.04846  22946523.203    22946534.193
       229.000         177.000
  24364550.328    -1144647.38149   -852839.81645  24364548.364    24364563.440
       206.000         137.000
  22125296.003    -2546409.91349  -1959960.23846  22125295.277    22125305.723
       231.000         185.000
  23103729.721    -2894852.96749  -2226245.49545  23103729.271    23103739.008
       211.000         147.000
 00  1 11 17 56 30.0000000  0  9G 1G27G19G18G 3G16G 2G31G13
  21914503.853      602726.81149    474418.24147  21914504.484    21914514.371
       234.000         193.000
  22437815.506    -2619023.96149  -2014524.58246  22437815.244    22437824.188
       231.000         187.000
  20881478.279    -1792746.69149  -1378224.18647  20881477.534    20881486.436
       244.000         211.000
  20020838.726    -1044497.87949   -798785.41748  20020838.502    20020845.747
       247.000         219.000
  23090635.477     -899385.71049   -691393.06946  23090635.446    23090647.675
       223.000         166.000
  22964971.760     1332195.42849   1037291.64346  22964970.182    22964983.322
       225.000         177.000
  24348082.492    -1231181.38249   -920268.85945  24348082.953    24348097.110
       205.000         140.000
  22115462.533    -2598086.61849  -2000227.74246  22115461.994    22115471.609
       231.000         186.000
  23086596.908    -2984887.92849  -2296402.58345  23086597.091    23086606.111
       211.000         151.000
 00  1 11 17 57  0.0000000  0  9G 1G27G19G18G 3G16G 2G31G13
  21928082.369      674080.83249    530018.62147  21928082.984    21928091.829
       233.000         192.000
  22426967.198    -2676032.40849  -2058946.78447  22426967.014    22426975.953
       232.000         188.000
  20876920.222    -1816698.72049  -1396888.11547  20876919.909    20876928.477
       244.000         211.000
  20022673.834    -1034854.47449   -791271.11948  20022673.651    20022680.993
       247.000         219.000
  23093558.337     -884027.20649   -679425.52246  23093558.482    23093571.379
       221.000         168.000
  22983442.679     1429261.44549   1112927.27846  22983443.363    22983454.298
       229.000         178.000
  24331639.396    -1317592.85449   -987602.45545  24331639.486    24331653.484
       208.000         143.000
  22105714.528    -2649312.77549  -2040144.17946  22105713.943    22105723.175
       232.000         185.000
  23069485.776    -3074808.01349  -2366470.18245  23069485.747    23069494.979
       214.000         153.000
 00  1 11 17 57 30.0000000  0  9G 1G27G19G18G 3G16G 2G31G13
  21941728.493      745791.35249    585896.81147  21941728.008    21941738.853
       232.000         191.000
  22416132.187    -2732971.77149  -2103315.15147  22416132.424    22416140.506
       232.000         188.000
  20872392.688    -1840491.28049  -1415427.78747  20872392.323    20872400.693
       244.000         211.000
  20024605.227    -1024705.48949   -783362.85748  20024605.004    20024612.494
       247.000         219.000
  23096581.173     -868140.92449   -667046.74546  23096580.540    23096594.002
       219.000         168.000
  23001938.735     1526456.31349   1188663.29246  23001939.808    23001949.907
       231.000         179.000
  24315225.431    -1403852.81449  -1054817.99045  24315226.239    24315239.074
       210.000         146.000
  22096055.388    -2700072.29449  -2079697.03046  22096054.480    22096063.591
       229.000         185.000
  23052396.189    -3164614.80849  -2436449.48645  23052396.528    23052405.806
       214.000         155.000
 00  1 11 17 58  0.0000000  0  9G 1G27G19G18G 3G16G 2G31G13
  21955440.998      817850.46349    642046.63847  21955441.024    21955451.814
       234.000         192.000
  22405314.775    -2789818.75549  -2147611.53047  22405314.414    22405322.946
       231.000         188.000
  20867896.130    -1864120.70349  -1433840.34247  20867896.126    20867904.411
       245.000         211.000
  20026636.430    -1014031.66549   -775045.62148  20026635.769    20026643.435
       248.000         219.000
  23099709.597     -851698.71649   -654234.78546  23099710.493    23099721.533
       220.000         166.000
  23020463.684     1623803.78649   1264518.24046  23020462.036    23020475.853
       227.000         178.000
  24298841.982    -1489947.83449  -1121904.93345  24298840.453    24298856.118
       211.000         147.000
  22086485.322    -2750361.71549  -2118883.53046  22086484.385    22086494.815
       230.000         184.000
  23035330.494    -3254295.38249  -2506330.43845  23035329.733    23035340.138
       213.000         156.000
 00  1 11 17 58 30.0000000  0  9G 1G27G19G18G 3G16G 2G31G13
  21969213.988      890227.09649    698443.85447  21969213.910    21969224.400
       233.000         192.000
  22394513.817    -2846578.64949  -2191840.04946  22394513.821    22394522.172
       231.000         187.000
  20863431.408    -1887583.51049  -1452123.06947  20863431.347    20863439.148
       245.000         212.000
  20028772.077    -1002808.37349   -766300.23848  20028771.790    20028779.289
       248.000         219.000
  23102947.374     -834685.35049   -640977.75746  23102949.061    23102958.146
       224.000         165.000
  23039020.063     1721318.68849   1340503.67146  23039019.729    23039031.107
       230.000         177.000
  24282493.192    -1575863.96349  -1188852.53745  24282492.650    24282505.795
       211.000         147.000
  22077006.885    -2800170.58149  -2157695.58646  22077006.506    22077016.298
       231.000         185.000
  23018289.983    -3343842.58049  -2576107.43945  23018290.069    23018299.764
       215.000         157.000
 00  1 11 17 59  0.0000000  0  9G 1G27G19G18G 3G16G 2G31G13
  21983049.949      962935.84349    755099.88747  21983050.021    21983060.296
       234.000         191.000
  22383728.103    -2903257.77049  -2236005.63147  22383727.828    22383736.968
       230.000         188.000
  20859000.728    -1910867.12949  -1470266.16147  20859000.444    20859008.389
       245.000         212.000
  20031015.467     -991019.42649   -757114.09148  20031014.957    20031022.659
       248.000         219.000
  23106294.772     -817099.11949   -627274.35846  23106295.554    23106304.900
       223.000         165.000
  23057611.370     1819015.02949   1416630.43346  23057611.778    23057622.174
       228.000         175.000
  24266181.643    -1661581.87949  -1255645.61845  24266181.452    24266194.897
       213.000         150.000
  22067622.182    -2849487.87349  -2196124.61346  22067620.934    22067631.041
       230.000         184.000
  23001275.240    -3433255.97849  -2645780.19745  23001275.558    23001285.013
       218.000         158.000
 00  1 11 17 59 30.0000000  0  9G 1G27G19G18G 3G16G 2G31G13
  21996951.560     1035988.20549    812023.65747  21996951.757    21996962.288
       232.000         191.000
  22372959.947    -2959844.85449  -2280099.48247  22372959.073    22372968.534
       231.000         188.000
  20854604.932    -1933967.34849  -1488266.34447  20854604.798    20854613.223
       245.000         212.000
  20033365.450     -978670.23949   -747491.39048  20033365.030    20033372.740
       248.000         218.000
  23109751.256     -798936.12149   -613121.51646  23109749.433    23109763.489
       218.000         165.000
  23076239.404     1916904.61449   1492907.77846  23076237.673    23076250.423
       223.000         174.000
  24249906.091    -1747111.48249  -1322291.98145  24249905.540    24249918.041
       214.000         153.000
  22058331.731    -2898308.66149  -2234166.71846  22058330.905    22058341.313
       231.000         185.000
  22984289.012    -3522521.20349  -2715337.49645  22984289.857    22984298.084
       223.000         159.000
 00  1 11 18  0  0.0000000  0  9G 1G27G19G18G 3G16G 2G31G13
  22010917.361     1109378.34549    869210.63947  22010916.869    22010928.253
       231.000         191.000
  22362209.484    -3016339.12349  -2324121.02047  22362209.175    22362218.757
       231.000         190.000
  20850246.144    -1956873.23349  -1506115.10447  20850245.875    20850254.130
       244.000         212.000
  20035820.028     -965771.55149   -737440.52248  20035820.120    20035827.408
       249.000         218.000
  23113314.905     -780206.77749   -598527.38346  23113313.996    23113327.101
       220.000         164.000
  23094903.152     2014984.37449   1569333.30446  23094903.981    23094915.623
       225.000         172.000
  24233664.716    -1832460.22749  -1388797.35645  24233664.014    24233676.587
       213.000         153.000
  22049136.603    -2946630.52849  -2271820.07046  22049136.840    22049145.794
       232.000         186.000
  22967333.906    -3611622.13649  -2784766.77345  22967334.255    22967342.902
       221.000         160.000
 00  1 11 18  0 30.0000000  0  9G 1G27G19G18G 3G16G 2G31G13
  22024949.639     1183119.30949    926670.99047  22024949.495    22024960.000
       232.000         190.000
  22351472.923    -3072759.53149  -2368084.98947  22351472.168    22351482.187
       231.000         190.000
  20845926.478    -1979573.57449  -1523803.70047  20845926.106    20845934.467
       244.000         211.000
  20038377.435     -952332.74549   -726968.78648  20038377.050    20038384.682
       248.000         218.000
  23116980.538     -760943.86149   -583517.50146  23116980.757    23116994.059
       219.000         164.000
  23113599.451     2113230.31449   1645888.32746  23113600.897    23113611.861
       227.000         174.000
  24217459.672    -1917619.75749  -1455155.28645  24217458.972    24217471.509
       213.000         153.000
  22040038.815    -2994439.42949  -2309073.69346  22040037.360    22040047.903
       230.000         185.000
  22950411.095    -3700551.73049  -2854062.53445  22950411.691    22950419.640
       223.000         159.000
 00  1 11 18  1  0.0000000  0  9G 1G27G19G18G 3G16G 2G31G13
  22039054.533     1257239.41249    984426.76247  22039055.449    22039065.332
       233.000         190.000
  22340753.213    -3129092.05549  -2411980.46347  22340752.849    22340761.995
       232.000         190.000
  20841646.308    -2002066.07649  -1541330.33947  20841645.789    20841654.495
       243.000         211.000
  20041032.463     -938380.31649   -716096.82248  20041032.222    20041039.884
       248.000         218.000
  23120745.812     -741158.94049   -568100.84046  23120746.660    23120757.167
       221.000         164.000
  23132325.690     2211635.21149   1722567.22346  23132325.304    23132336.271
       225.000         172.000
  24201289.251    -2002595.92949  -1521370.32745  24201287.777    24201301.272
       212.000         152.000
  22031038.344    -3041736.70849  -2345928.67446  22031038.250    22031046.512
       233.000         186.000
  22933523.488    -3789298.13949  -2923215.54645  22933523.332    22933530.909
       223.000         157.000
 00  1 11 18  1 30.0000000  0  9G 1G27G19G18G 3G16G 2G31G13
  22053227.327     1331716.47949   1042460.69647  22053226.939    22053237.608
       231.000         189.000
  22330048.701    -3185345.50949  -2455814.33047  22330047.740    22330056.875
       230.000         189.000
  20837401.542    -2024372.21949  -1558711.77147  20837401.537    20837409.243
       245.000         211.000
  20043782.552     -923928.71349   -704835.89848  20043782.338    20043789.846
       248.000         218.000
  23124607.392     -720867.48849   -552289.47946  23124607.957    23124618.409
       223.000         163.000
  23151075.457     2310166.32449   1799344.45846  23151074.744    23151087.015
       225.000         170.000
  24185153.578    -2087389.37749  -1587442.99445  24185151.988    24185166.370
       211.000         152.000
  22022131.519    -3088543.16149  -2382401.16846  22022130.396    22022140.787
       231.000         186.000
  22916670.629    -3877861.15349  -2992225.63745  22916670.709    22916678.342
       222.000         155.000
 00  1 11 18  2  0.0000000  0  9G 1G27G19G18G 3G16G 2G31G13
  22067467.789     1406551.42649   1100773.49647  22067467.200    22067477.106
       232.000         188.000
  22319355.696    -3241536.86049  -2499599.80747  22319355.732    22319363.491
       230.000         188.000
  20833191.875    -2046494.70549  -1575950.10647  20833191.851    20833199.742
       245.000         211.000
  20046630.486     -908962.79649   -693174.22048  20046630.516    20046638.075
       248.000         218.000
  23128564.654     -700072.66749   -536085.86446  23128564.018    23128576.100
       222.000         164.000
  23169845.649     2408802.20949   1876203.28746  23169846.609    23169858.057
       226.000         171.000
  24169057.077    -2171975.67049  -1653354.20145  24169055.441    24169069.235
       213.000         152.000
  22013317.687    -3134859.89949  -2418492.09346  22013316.528    22013326.139
       232.000         187.000
  22899852.093    -3966241.40949  -3061093.33445  22899852.112    22899859.034
       220.000         152.000
 00  1 11 18  2 30.0000000  0  9G 1G27G19G18G 3G16G 2G31G13
  22081776.893     1481745.74249   1159366.32547  22081776.684    22081787.099
       232.000         188.000
  22308674.650    -3297666.54149  -2543337.22246  22308674.276    22308683.337
       229.000         187.000
  20829013.948    -2068449.98449  -1593058.16347  20829013.854    20829021.845
       246.000         211.000
  20049577.392     -893477.44449   -681107.77348  20049577.386    20049584.557
       249.000         218.000
  23132619.810     -678762.85749   -519480.96646  23132618.352    23132632.927
       220.000         164.000
  23188633.972     2507534.56949   1953137.38546  23188631.874    23188645.614
       217.000         165.000
  24153002.891    -2256341.45449  -1719093.61645  24153002.604    24153014.783
       212.000         153.000
  22004599.509    -3180672.53449  -2454190.20246  22004598.863    22004608.809
       231.000         186.000
  22883069.694    -4054433.41449  -3129814.31645  22883069.880    22883077.641
       221.000         151.000
 00  1 11 18  3  0.0000000  0  9G 1G27G19G18G 3G16G 2G31G13
  22096150.289     1557276.48049   1218221.29447  22096151.013    22096160.603
       233.000         188.000
  22298005.855    -3353730.92549  -2587023.75247  22298005.142    22298014.816
       228.000         188.000
  20824864.646    -2090255.64049  -1610049.63947  20824864.606    20824872.312
       245.000         211.000
  20052622.288     -877477.15149   -668640.08148  20052621.929    20052629.598
       248.000         218.000
  23136777.403     -656914.51549   -502456.46046  23136777.792    23136789.408
       223.000         164.000
  23207440.172     2606363.57449   2030146.75445  23207441.033    23207450.717
       221.000         160.000
  24136987.977    -2340499.71249  -1784671.25045  24136986.282    24137001.067
       210.000         153.000
  21995976.224    -3225988.41549  -2489501.27046  21995975.993    21995985.010
       232.000         186.000
  22866320.775    -4142450.94649  -3198399.33345  22866320.056    22866327.795
       219.000         150.000
 00  1 11 18  3 30.0000000  0  9G 1G27G19G18G 3G16G 2G31G13
  22110583.738     1633122.37149   1277321.84647  22110583.562    22110593.856
       232.000         189.000
  22287343.857    -3409759.69649  -2630682.53647  22287343.473    22287352.095
       230.000         188.000
  20820742.749    -2111916.44249  -1626928.22647  20820742.400    20820750.615
       245.000         211.000
  20055768.449     -860943.88449   -655757.07948  20055768.041    20055775.889
       247.000         218.000
  23141038.469     -634523.92949   -485009.39946  23141038.832    23141050.505
       223.000         165.000
  23226265.127     2705286.37149   2107229.15045  23226265.481    23226277.377
       213.000         158.000
  24121013.301    -2424445.47049  -1850083.35745  24121012.201    24121026.069
       206.000         152.000
  21987450.332    -3270791.89249  -2524413.04846  21987448.636    21987460.636
       230.000         186.000
  22849602.104    -4230308.77149  -3266859.90945  22849601.020    22849609.433
       219.000         149.000
 00  1 11 18  4  0.0000000  0  9G 1G27G19G18G 3G16G 2G31G13
  22125078.626     1709294.38849   1336676.54047  22125077.448    22125089.316
       230.000         188.000
  22276691.455    -3465738.73149  -2674302.55047  22276690.978    22276699.963
       231.000         189.000
  20816649.116    -2133428.53749  -1643690.93847  20816648.554    20816657.009
       244.000         211.000
  20059016.164     -843876.99149   -642458.26248  20059015.932    20059023.518
       248.000         218.000
  23145405.920     -611574.25149   -467126.65746  23145406.359    23145417.438
       225.000         165.000
  23245111.929     2804327.45049   2184403.75445  23245110.645    23245124.890
       211.000         156.000
  24105077.483    -2508186.50149  -1915335.95245  24105077.032    24105090.339
       207.000         149.000
  21979025.897    -3315061.31949  -2558908.68746  21979025.847    21979035.719
       231.000         187.000
  22832913.568    -4318008.49649  -3335197.31345  22832912.773    22832920.336
       214.000         149.000
 00  1 11 18  4 30.0000000  0  9G 1G27G19G18G 3G16G 2G31G13
  22139631.084     1785767.73349   1396266.00146  22139631.562    22139641.223
       231.000         187.000
  22266049.536    -3521662.11849  -2717879.20347  22266049.545    22266057.923
       233.000         191.000
  20812582.560    -2154798.33949  -1660342.77747  20812582.109    20812590.945
       244.000         211.000
  20062362.592     -826291.69349   -628755.49748  20062362.815    20062370.100
       249.000         218.000
  23149881.066     -588059.10949   -448803.31146  23149880.671    23149891.941
       222.000         164.000
  23263983.113     2903498.89249   2261679.98745  23263982.010    23263995.166
       209.000         150.000
  24089177.387    -2591742.00549  -1980443.95045  24089177.779    24089189.090
       210.000         148.000
  21970702.448    -3358802.08349  -2592992.42547  21970701.900    21970712.096
       232.000         188.000
  22816252.262    -4405562.45649  -3403421.13845  22816251.238    22816260.184
       210.000         148.000
 00  1 11 18  5  0.0000000  0  9G 1G27G19G18G 3G16G 2G31G13
  22154240.158     1862536.84649   1456085.94346  22154240.778    22154250.598
       233.000         187.000
  22255418.509    -3577529.05449  -2761411.87247  22255418.185    22255427.170
       234.000         192.000
  20808546.627    -2176007.37749  -1676869.35247  20808546.543    20808555.106
       245.000         212.000
  20065807.762     -808188.06549   -614648.83048  20065807.491    20065815.562
       248.000         218.000
  23154461.278     -563987.85949   -430046.63945  23154459.971    23154473.271
       219.000         162.000
  23282880.356     3002802.57549   2339059.18445  23282881.946    23282893.459
       210.000         148.000
  24073312.356    -2675114.82249  -2045409.58245  24073310.724    24073324.198
       206.000         146.000
  21962476.381    -3402030.35449  -2626676.77146  21962475.565    21962485.558
       232.000         187.000
  22799614.798    -4492990.43049  -3471546.77345  22799614.076    22799621.864
       208.000         145.000
 00  1 11 18  5 30.0000000  0  9G 1G27G19G18G 3G16G 2G31G13
  22168908.360     1939618.41249   1516149.38846  22168907.165    22168918.364
       230.000         187.000
  22244801.342    -3633323.45849  -2804888.01947  22244800.855    22244809.729
       233.000         194.000
  20804544.793    -2197037.11749  -1693256.21447  20804544.673    20804552.876
       245.000         212.000
  20069353.784     -789553.37649   -600128.35348  20069353.646    20069361.333
       248.000         218.000
  23159146.215     -539367.32749   -410861.97146  23159146.926    23159159.536
       221.000         163.000
  23301802.707     3102239.18049   2416541.98545  23301800.229    23301813.886
       205.000         145.000
  24057483.458    -2758293.27549  -2110223.83745  24057480.873    24057496.146
       206.000         146.000
  21954347.315    -3444748.37849  -2659963.57346  21954346.872    21954356.891
       230.000         187.000
  22783003.871    -4580281.43149  -3539565.70145  22783003.205    22783011.024
       204.000         144.000
 00  1 11 18  6  0.0000000  0  9G 1G27G19G18G 3G16G 2G31G13
  22183637.629     2017021.72949   1576463.53246  22183637.407    22183648.295
       231.000         186.000
  22234203.459    -3689015.29649  -2848284.25747  22234202.772    22234211.820
       234.000         194.000
  20800578.777    -2217878.81449  -1709496.55247  20800578.569    20800586.965
       245.000         212.000
  20073001.288     -770385.84649   -585192.67148  20073001.160    20073008.649
       248.000         218.000
  23163936.813     -514195.47749   -391247.70646  23163938.899    23163949.676
       224.000         165.000
  23320748.728     3201801.28349   2494122.60745  23320749.541    23320762.686
       211.000         145.000
  24041690.707    -2841283.80049  -2174891.67245  24041689.275    24041703.260
       208.000         149.000
  21946313.278    -3486967.45249  -2692861.56747  21946313.124    21946323.764
       233.000         188.000
  22766421.526    -4667419.86849  -3607465.77745  22766422.524    22766430.558
       205.000         142.000
 00  1 11 18  6 30.0000000  0  9G 1G27G19G18G 3G16G 2G31G13
  22198430.434     2094757.11849   1637036.39547  22198430.456    22198441.567
       231.000         188.000
  22223626.400    -3744598.81249  -2891596.10547  22223625.914    22223635.238
       234.000         194.000
  20796653.163    -2238508.42649  -1725571.62447  20796653.446    20796661.499
       245.000         212.000
  20076752.819     -750671.62149   -569830.99148  20076752.643    20076760.477
       248.000         217.000
  23168829.929     -488485.35449   -371213.99246  23168830.253    23168842.796
       222.000         166.000
  23339717.688     3301477.64249   2571792.15845  23339720.618    23339730.869
       217.000         151.000
  24025935.004    -2924080.21549  -2239408.21745  24025935.571    24025947.432
       210.000         152.000
  21938375.247    -3528683.14149  -2725367.33647  21938374.290    21938384.420
       233.000         188.000
  22749871.777    -4754387.92349  -3675233.06545  22749871.312    22749880.268
       204.000         141.000
 00  1 11 18  7  0.0000000  0  9G 1G27G19G18G 3G16G 2G31G13
  22213292.977     2172859.56049   1697895.29746  22213291.888    22213302.202
       228.000         185.000
  22213071.266    -3800066.76049  -2934817.89547  22213070.251    22213079.951
       232.000         194.000
  20792770.455    -2258913.13349  -1741471.43947  20792770.295    20792778.864
       245.000         212.000
  20080611.811     -730393.16449   -554029.63548  20080612.082    20080619.339
       249.000         218.000
  23173824.920     -462235.86249   -350759.97346  23173823.866    23173836.064
       221.000         164.000
  23358706.815     3401261.52049   2649545.55245  23358705.635    23358718.348
       212.000         153.000
  24010214.982    -3006687.79349  -2303777.60645  24010211.906    24010227.497
       210.000         153.000
  21930534.363    -3569887.37749  -2757474.55046  21930533.188    21930543.599
       231.000         187.000
  22733361.721    -4841147.85649  -3742838.21445  22733362.011    22733371.296
       205.000         141.000
 00  1 11 18  7 30.0000000  0  9G 1G27G19G18G 3G16G 2G31G13
  22228227.004     2251339.23949   1759048.15346  22228226.889    22228237.461
       230.000         184.000
  22202537.180    -3855423.14249  -2977952.75647  22202536.924    22202545.890
       234.000         193.000
  20788927.907    -2279106.02049  -1757206.20847  20788927.705    20788936.030
       244.000         212.000
  20084578.124     -709550.72249   -537788.80748  20084577.616    20084585.725
       248.000         218.000
  23178923.189     -435443.33349   -329882.84545  23178922.766    23178934.658
       220.000         162.000
  23377714.078     3501148.47649   2727379.30045  23377714.065    23377726.549
       216.000         153.000
  23994530.288    -3089109.66549  -2368002.34445  23994529.823    23994543.441
       213.000         155.000
  21922794.405    -3610560.42649  -2789167.86146  21922793.746    21922803.890
       232.000         187.000
  22716899.124    -4927660.59649  -3810250.74245  22716898.908    22716908.240
       206.000         141.000
 00  1 11 18  8  0.0000000  0  9G 1G27G19G18G 3G16G 2G31G13
  22243232.189     2330190.30449   1820490.38846  22243232.880    22243243.993
       232.000         186.000
  22192020.584    -3910688.05049  -3021016.32147  22192019.904    22192029.380
       233.000         193.000
  20785123.037    -2299100.26649  -1772786.18547  20785122.949    20785131.055
       244.000         211.000
  20088648.591     -688159.60949   -521120.44448  20088648.108    20088656.297
       247.000         218.000
  23184123.745     -408115.33849   -308588.42945  23184123.685    23184134.660
       220.000         162.000
  23396742.517     3601138.96449   2805293.69645  23396744.441    23396754.944
       220.000         158.000
  23978880.721    -3171348.88549  -2432084.77645  23978880.566    23978892.801
       215.000         159.000
  21915158.527    -3650688.24749  -2820436.30247  21915158.511    21915168.905
       232.000         188.000
  22700482.565    -5013930.15649  -3877473.76745  22700482.513    22700490.998
       208.000         142.000
 00  1 11 18  8 30.0000000  0  9G 1G27G19G18G 3G16G 2G31G13
  22258306.129     2409402.62949   1882214.11246  22258306.265    22258316.838
       230.000         185.000
  22181518.009    -3965879.22149  -3064022.43347  22181517.575    22181526.938
       234.000         193.000
  20781354.468    -2318904.45849  -1788218.07747  20781354.408    20781362.404
       245.000         211.000
  20092820.950     -666233.74449   -504035.40148  20092821.039    20092828.795
       248.000         218.000
  23189424.818     -380258.87649   -286882.20746  23189425.065    23189437.093
       222.000         164.000
  23415789.744     3701230.50149   2883286.76345  23415789.206    23415802.651
       215.000         156.000
  23963265.937    -3253404.97849  -2496024.48745  23963265.546    23963278.543
       217.000         160.000
  21907626.319    -3690271.05149  -2851280.07546  21907625.566    21907635.382
       231.000         187.000
  22684109.527    -5099970.24949  -3944518.01645  22684109.288    22684118.364
       210.000         144.000
 00  1 11 18  9  0.0000000  0  9G 1G27G19G18G 3G16G 2G31G13
  22273445.434     2488960.29749   1944206.94046  22273444.585    22273455.013
       230.000         184.000
  22171027.667    -4021007.09649  -3106979.23147  22171027.057    22171036.006
       235.000         192.000
  20777618.756    -2338536.15749  -1803515.56347  20777618.364    20777626.912
       245.000         211.000
  20097094.561     -643776.56849   -486536.33948  20097094.281    20097102.123
       248.000         218.000
  23194829.645     -351858.77649   -264752.39246  23194829.873    23194843.213
       221.000         164.000
  23434855.480     3801422.81849   2961358.44045  23434854.118    23434868.747
       214.000         156.000
  23947688.706    -3335264.70249  -2559811.21945  23947688.180    23947701.991
       215.000         162.000
  21900197.177    -3729310.57849  -2881700.50646  21900196.499    21900206.596
       232.000         187.000
  22667779.203    -5185785.80949  -4011387.30445  22667778.184    22667788.455
       211.000         145.000
 00  1 11 18  9 30.0000000  0  9G 1G27G19G18G 3G16G 2G31G13
  22288643.912     2568829.36649   2006442.41446  22288643.643    22288654.746
       229.000         182.000
  22160548.208    -4076077.35049  -3149891.13047  22160548.022    22160556.427
       235.000         192.000
  20773913.307    -2358008.50349  -1818688.87647  20773913.109    20773921.831
       245.000         211.000
  20101465.750     -620805.83649   -468637.10048  20101465.765    20101473.395
       249.000         218.000
  23200335.719     -322923.07749   -242205.24346  23200334.932    23200349.671
       221.000         165.000
  23453939.898     3901711.69149   3039505.27945  23453940.945    23453954.378
       220.000         157.000
  23932152.221    -3416908.63149  -2623429.77145  23932151.556    23932165.050
       217.000         161.000
  21892871.805    -3767805.75149  -2911696.76146  21892871.490    21892880.950
       231.000         187.000
  22651483.452    -5271419.91749  -4078115.18045  22651483.564    22651492.695
       211.000         145.000
 00  1 11 18 10  0.0000000  0  9G 1G27G19G18G 3G16G 2G31G13
  22303899.556     2648996.69449   2068910.28046  22303900.351    22303910.849
       231.000         184.000
  22150081.393    -4131081.04649  -3192751.16247  22150081.488    22150090.162
       236.000         192.000
  20770237.279    -2377326.26449  -1833741.72247  20770237.234    20770245.977
       245.000         212.000
  20105935.786     -597316.14249   -450333.47848  20105935.490    20105943.666
       248.000         218.000
  23205944.618     -293446.93449   -219236.99746  23205944.529    23205958.288
       221.000         166.000
  23473043.409     4002096.68149   3117727.02945  23473044.020    23473056.658
       215.000         156.000
  23916657.306    -3498335.61249  -2686879.31745  23916656.123    23916667.923
       217.000         159.000
  21885648.382    -3805765.00849  -2941275.41746  21885647.482    21885657.799
       231.000         187.000
  22635216.941    -5356899.48049  -4144722.64145  22635218.774    22635225.309
       211.000         145.000
 00  1 11 18 10 30.0000000  0  9G 1G27G19G18G 3G16G 2G31G13
  22319209.152     2729447.84249   2131599.32346  22319207.784    22319220.938
       229.000         185.000
  22139627.634    -4186016.24849  -3235557.83347  22139626.196    22139636.017
       232.000         191.000
  20766590.284    -2396492.07849  -1848676.16047  20766589.899    20766598.567
       244.000         212.000
  20110505.661     -573301.12949   -431620.52148  20110504.987    20110513.348
       248.000         218.000
  23211658.828     -263419.03249   -195838.78146  23211659.742    23211671.866
       224.000         167.000
  23492161.556     4102564.05949   3196013.02145  23492159.177    23492172.059
       211.000         149.000
  23901203.161    -3579547.89949  -2750161.59645  23901202.182    23901214.978
       217.000         159.000
  21878524.850    -3843198.83849  -2970444.66846  21878524.742    21878534.457
       233.000         187.000
  22618984.584    -5442203.91549  -4211193.63245  22618985.162    22618994.992
       213.000         145.000
 00  1 11 18 11  0.0000000  0  9G 1G27G19G18G 3G16G 2G31G13
  22334571.415     2810178.06449   2194505.81746  22334570.678    22334582.035
       229.000         184.000
  22129187.481    -4240878.65549  -3278307.78647  22129187.033    22129196.470
       231.000         190.000
  20762969.855    -2415517.21349  -1863500.97547  20762969.605    20762978.009
       244.000         212.000
  20115175.447     -548761.23249   -412498.56848  20115175.334    20115183.185
       248.000         218.000
  23217478.013     -232841.38749   -172012.17246  23217478.954    23217490.331
       223.000         166.000
  23511294.389     4203107.82549   3274358.48845  23511295.109    23511305.491
       218.000         146.000
  23885789.405    -3660547.29649  -2813277.95745  23885787.603    23885800.855
       219.000         159.000
  21871500.974    -3880109.14949  -2999205.96146  21871500.156    21871510.619
       231.000         187.000
  22602787.020    -5527325.25949  -4277521.91845  22602786.806    22602796.894
       209.000         144.000
 00  1 11 18 11 30.0000000  0  9G 1G27G19G18G 3G16G 2G31G13
  22349990.225     2891203.68249   2257642.48446  22349990.893    22350000.874
       230.000         182.000
  22118762.470    -4295661.21349  -3320995.51047  22118761.870    22118771.502
       232.000         189.000
  20759376.713    -2434399.92649  -1878214.81247  20759376.353    20759384.974
       245.000         212.000
  20119945.919     -523692.78949   -392964.75848  20119945.572    20119953.860
       248.000         218.000
  23223397.850     -201734.03849   -147772.81246  23223397.427    23223409.852
       224.000         165.000
  23530441.834     4303724.28349   3352760.58745  23530441.804    23530457.285
       216.000         147.000
  23870413.069    -3741350.08349  -2876241.16045  23870411.608    23870425.144
       218.000         158.000
  21864579.251    -3916483.10049  -3027549.31446  21864578.727    21864588.514
       232.000         187.000
  22586623.828    -5612261.79949  -4343706.23445  22586623.166    22586633.776
       207.000         139.000
 00  1 11 18 12  0.0000000  0  9G 1G27G19G18G 3G16G 2G31G13
  22365467.454     2972535.68749   2321017.90146  22365467.829    22365478.108
       231.000         183.000
  22108351.820    -4350369.13949  -3363625.07647  22108351.547    22108360.870
       233.000         190.000
  20755813.023    -2453127.55649  -1892807.81848  20755812.750    20755821.204
       246.000         213.000
  20124817.052     -498095.01749   -373018.48848  20124816.929    20124824.912
       247.000         218.000
  23229418.365     -170097.70549   -123121.28446  23229417.259    23229431.316
       220.000         164.000
  23549600.529     4404402.91049   3431211.23145  23549599.502    23549617.329
       213.000         148.000
  23855071.409    -3821971.13349  -2939062.70645  23855070.808    23855081.979
       220.000         158.000
  21857760.341    -3952316.69249  -3055471.60246  21857759.438    21857769.868
       232.000         187.000
  22570500.744    -5696986.35949  -4409725.35745  22570499.698    22570510.221
       200.000         135.000
 00  1 11 18 12 30.0000000  0  9G 1G27G19G18G 3G16G 2G31G13
  22381003.888     3054179.80949   2384636.52546  22381003.734    22381016.264
       230.000         184.000
  22097954.778    -4405006.16249  -3406199.41747  22097954.654    22097963.377
       233.000         190.000
  20752284.047    -2471672.63049  -1907258.56948  20752284.013    20752292.272
       246.000         213.000
  20129789.098     -471967.44449   -352659.39348  20129789.137    20129796.518
       247.000         218.000
  23235538.271     -137936.25749    -98060.56446  23235537.852    23235551.988
       219.000         164.000
  23568770.559     4505143.09949   3509709.78545  23568769.880    23568785.818
       211.000         145.000
  23839764.660    -3902410.04949  -3001742.35945  23839762.686    23839774.554
       216.000         157.000
  21851045.887    -3987600.91149  -3082965.81346  21851044.956    21851056.230
       231.000         187.000
  22554420.755    -5781485.61949  -4475568.90444  22554420.270    22554431.559
       198.000         130.000
 00  1 11 18 13  0.0000000  0  9G 1G27G19G18G 3G16G 2G31G13
  22396602.996     3136152.98949   2448511.54246  22396603.764    22396613.757
       229.000         183.000
  22087571.758    -4459569.46949  -3448716.30747  22087571.043    22087580.913
       232.000         190.000
  20748792.154    -2490022.60849  -1921557.30248  20748792.240    20748800.476
       246.000         213.000
  20134863.794     -445300.19549   -331879.77348  20134863.484    20134871.232
       246.000         217.000
  23241756.796     -105257.57949    -72596.81446  23241757.826    23241770.521
       222.000         164.000
  23587954.756     4605954.56549   3588263.82145  23587956.957    23587968.066
       211.000         145.000
  23824494.279    -3982654.75749  -3064270.62845  23824493.836    23824505.692
       217.000         159.000
  21844438.349    -4022323.21449  -3110022.17847  21844438.010    21844448.887
       232.000         188.000
  22538380.627    -5865777.99948  -4541251.23744  22538380.684    22538387.137
       193.000         124.000
 00  1 11 18 13 30.0000000  0  9G 1G27G19G18G 3G16G 2G31G13
  22412265.748     3218459.75349   2512646.49946  22412265.432    22412276.868
       228.000         182.000
  22077201.653    -4514064.56249  -3491180.04247  22077201.491    22077210.482
       233.000         190.000
  20745341.527    -2508156.43849  -1935687.61248  20745341.419    20745349.876
       245.000         213.000
  20140041.731     -418089.91749   -310677.01948  20140041.320    20140049.411
       246.000         217.000
  23248075.754      -72054.12549    -46724.15146  23248076.432    23248087.867
       224.000         164.000
  23607151.269     4706832.70349   3666869.79045  23607150.780    23607164.638
       207.000         142.000
  23809263.383    -4062693.91749  -3126638.73345  23809263.090    23809275.386
       218.000         161.000
  21837940.538    -4056470.16049  -3136630.20547  21837940.279    21837950.451
       232.000         188.000
  22522382.159    -5949851.43648  -4606762.97144  22522382.469    22522388.271
       189.000         116.000
 00  1 11 18 14  0.0000000  0  9G 1G27G19G18G 3G16G 2G31G13
  22427989.309     3301087.70849   2577031.73346  22427989.186    22428000.171
       229.000         181.000
  22066845.859    -4568485.40649  -3533585.92947  22066846.390    22066854.097
       233.000         190.000
  20741934.110    -2526062.53449  -1949640.46247  20741933.678    20741942.420
       244.000         212.000
  20145322.463     -390339.30049   -289053.22348  20145322.284    20145330.150
       246.000         217.000
  23254499.235      -38300.23449    -20422.56946  23254500.414    23254510.541
       223.000         163.000
  23626359.861     4807773.46049   3745524.63945  23626361.600    23626376.912
       211.000         145.000
  23794074.791    -4142511.12949  -3188833.93645  23794072.636    23794086.548
       219.000         162.000
  21831549.904    -4090053.72149  -3162799.22747  21831549.183    21831559.691
       232.000         188.000
  22506426.784    -6033698.18248  -4672098.04244                  22506431.112
       178.000         110.000
 00  1 11 18 14 30.0000000  0  9G 1G27G19G18G 3G16G 2G31G13
  22443774.757     3384040.01749   2641669.69546  22443774.938    22443785.841
       230.000         181.000
  22056504.782    -4622829.16949  -3575931.75547  22056504.360    22056513.198
       233.000         190.000
  20738567.427    -2543754.15549  -1963426.18847  20738567.039    20738576.081
       244.000         212.000
  20150707.715     -362040.09549   -267001.96148  20150707.336    20150715.235
       246.000         217.000
  23261026.513       -3999.12549      6305.41045  23261025.667    23261036.859
       221.000         162.000
  23645580.394     4908774.57449   3824226.51245  23645580.425    23645593.819
       202.000         140.000
  23778930.453    -4222093.69849  -3250846.27846  23778929.220    23778943.526
       217.000         164.000
  21825265.630    -4123077.54149  -3188532.09447  21825264.963    21825275.580
       232.000         189.000
  22490513.469    -6117322.42948  -4737259.81144                  22490512.072
       182.000         105.000
 00  1 11 18 15  0.0000000  0  9G 1G27G19G18G 3G16G 2G31G13
  22459622.730     3467320.80649   2706563.61646  22459623.166    22459635.008
       229.000         182.000
  22046179.722    -4677087.64049  -3618211.12047  22046179.448    22046188.716
       231.000         189.000
  20735237.327    -2561254.08049  -1977062.53547  20735237.304    20735246.079
       245.000         212.000
  20156195.971     -333199.04449   -244528.48448  20156195.696    20156203.667
       246.000         216.000
  23267657.273       30847.03349     33458.09945  23267655.847    23267669.686
       218.000         161.000
  23664809.938     5009827.68748   3902968.82145  23664807.435    23664825.083
       192.000         132.000
  23763832.305    -4301435.53449  -3312671.02646  23763831.522    23763842.929
       220.000         166.000
  21819088.671    -4155537.94749  -3213825.92547  21819089.239    21819098.413
       236.000         189.000
  22474646.985    -6200706.15558  -4802234.14444                  22474642.589
       170.000         102.000
 00  1 11 18 15 30.0000000  0  9G 1G27G19G18G 3G16G 2G31G13
  22475530.629     3550916.69249   2771703.07046  22475530.784    22475542.837
       228.000         182.000
  22035870.651    -4731261.25649  -3660424.34547  22035870.514    22035879.710
       229.000         189.000
  20731941.469    -2578574.78849  -1990559.23448  20731941.116    20731949.843
       245.000         213.000
  20161783.335     -303837.28449   -221649.25848  20161783.408    20161791.162
       247.000         216.000
  23274389.564       66226.38649     61026.26245  23274388.646    23274403.012
       218.000         160.000
  23684045.587     5110915.30848   3981738.06244  23684043.018    23684061.132
       194.000         127.000
  23748776.841    -4380552.77049  -3374320.76046  23748774.655    23748788.238
       219.000         163.000
  21813016.571    -4187449.22749  -3238691.87447  21813015.893    21813026.273
       233.000         190.000
                  -6283844.77848   2990445.35843
       189.000          74.000
 00  1 11 18 16  0.0000000  0  9G 1G27G19G18G 3G16G 2G31G13
  22491496.775     3634818.88349   2837081.20646  22491496.591    22491507.949
       225.000         180.000
  22025577.902    -4785349.94549  -3702571.39547  22025577.620    22025587.325
       232.000         190.000
  20728675.495    -2595737.60649  -2003932.90948  20728675.507    20728684.227
       246.000         214.000
  20167469.744     -273955.97249   -198365.18748  20167469.302    20167477.839
       246.000         217.000
  23281220.351      102120.61849     88995.61245  23281220.616    23281234.463
       219.000         162.000
  23703289.181     5212038.77549   4060535.28844  23703291.613    23703303.738
       202.000         129.000
  23733761.911    -4459455.22949  -3435803.10946  23733760.480    23733773.101
       217.000         163.000
  21807046.400    -4218820.98649  -3263137.41247  21807045.706    21807056.459
       232.000         189.000
                  -6366746.51249   2925862.32643
       196.000          74.000
 00  1 11 18 16 30.0000000  0  9G 1G27G19G18G 3G16G 2G31G13
  22507521.590     3719029.83649   2902699.90846  22507522.386    22507534.032
       228.000         181.000
  22015301.321    -4839354.79149  -3744653.12047  22015301.244    22015310.497
       233.000         191.000
  20725436.831    -2612757.71749  -2017195.38648  20725436.699    20725445.108
       245.000         214.000
  20173254.819     -243555.50249   -174676.59348  20173254.906    20173262.806
       247.000         218.000
  23288143.680      138501.23549    117343.99145  23288143.094    23288156.580
       220.000         162.000
  23722539.611     5313199.34148   4139361.44144  23722535.980    23722553.836
       192.000         131.000
  23718786.335    -4538152.68149  -3497125.74746  23718785.397    23718798.228
       219.000         163.000
  21801180.633    -4249646.33649  -3287157.17847  21801181.346    21801190.155
       235.000         189.000
                  -6449401.57349   2861518.86543
       200.000          74.000
 00  1 11 18 17  0.0000000  0  9G 1G27G19G18G 3G16G 2G31G13
  22523605.110     3803548.02449   2968558.05146  22523605.293    22523617.175
       228.000         181.000
  22005042.229    -4893267.00449  -3786662.66847  22005041.417    22005051.377
       233.000         192.000
  20722227.186    -2629624.62849  -2030338.48448  20722226.821    20722235.721
       244.000         213.000
  20179137.363     -212642.82549   -150588.86348  20179136.894    20179145.026
       247.000         217.000
  23295159.496      175368.87749    146071.84945  23295159.766    23295171.759
       220.000         162.000
  23741797.411     5414403.28349   4218221.31144  23741796.746    23741812.976
       197.000         127.000
  23703849.156    -4616647.21849  -3558290.25646  23703848.087    23703862.176
       217.000         163.000
  21795418.818    -4279926.18549  -3310751.84847  21795417.986    21795428.095
       234.000         189.000
                  -6531809.00149   3159554.61943
       201.000          74.000
 00  1 11 18 17 30.0000000  0  9G 1G27G19G18G 3G16G 2G31G13
  22539745.448     3888365.44649   3034649.34846  22539745.669    22539757.845
       228.000         180.000
  21994799.744    -4947091.08049  -3828603.54047  21994799.217    21994808.746
       234.000         192.000
  20719048.687    -2646327.34249  -2043353.64548  20719048.391    20719057.123
       246.000         213.000
  20185119.971     -181203.56549   -126090.81148  20185119.882    20185127.823
       248.000         217.000
  23302268.377      212725.79449    175180.94145  23302267.996    23302281.886
       221.000         161.000
  23761064.141     5515645.94049   4297111.26144  23761069.174    23761081.167
       202.000         127.000
  23688950.961    -4694937.10249  -3619295.28946  23688949.691    23688963.033
       215.000         163.000
  21789759.518    -4309664.67849  -3333924.72047  21789758.294    21789768.860
       233.000         188.000
                  -6613988.16049   3095519.04943
       210.000          74.000
 00  1 11 18 18  0.0000000  0  9G 1G27G19G18G 3G16G 2G31G13
  22555943.552     3973486.21149   3100977.01146  22555943.845    22555954.922
       227.000         178.000
  21984574.913    -5000822.34249  -3870472.08847  21984574.406    21984583.661
       233.000         192.000
  20715903.349    -2662856.39949  -2056233.48247  20715903.119    20715911.916
       244.000         212.000
  20191207.549     -149213.71549   -101163.73048  20191207.588    20191215.804
       248.000         218.000
  23309472.528      250584.92249    204681.34145  23309471.559    23309486.046
       217.000         161.000
  23780339.605     5616931.74548   4376034.93344  23780341.812    23780358.101
       192.000         130.000
  23674094.121    -4773009.02349  -3680130.47845  23674092.337    23674106.172
       213.000         162.000
  21784206.285    -4338846.93949  -3356664.16447  21784206.198    21784216.505
       233.000         189.000
                  -6695931.00849   3031667.43843
       214.000          74.000
 00  1 11 18 18 30.0000000  0  9G 1G27G19G18G 3G16G 2G31G13
  22572201.290     4058919.40549   3167548.13446  22572201.830    22572212.772
       227.000         179.000
  21974369.155    -5054453.97949  -3912263.00247  21974369.081    21974378.558
       234.000         192.000
  20712796.607    -2679182.55049  -2068955.21047  20712796.489    20712805.518
       244.000         212.000
  20197401.655     -116664.14549    -75800.49648  20197401.210    20197409.466
       246.000         218.000
  23316777.677      288974.65149    234595.19645  23316778.670    23316792.264
       222.000         162.000
  23799621.417     5718262.72948   4454993.86944  23799615.379    23799631.352
       187.000         123.000
  23659280.374    -4850853.95549  -3740788.75946  23659279.801    23659292.477
       217.000         163.000
  21778762.509    -4367455.16149  -3378956.27947  21778762.147    21778771.779
       233.000         189.000
                  -6777636.61649   2968000.70945                  22364868.450
       215.000         143.000
 00  1 11 18 19  0.0000000  0  9G 1G27G19G18G 3G16G 2G31G13
  22588517.793     4144662.88849   3234361.05946  22588517.795    22588530.103
       226.000         178.000
  21964182.058    -5107988.09249  -3953977.90847  21964182.103    21964191.288
       235.000         193.000
  20709732.032    -2695287.00449  -2081504.18947  20709731.951    20709740.860
       244.000         212.000
  20203703.953      -83545.15649    -49993.56748  20203703.957    20203711.596
       247.000         217.000
  23324189.061      327919.57349    264941.64246  23324189.570    23324203.466
       220.000         163.000
  23818914.721     5819646.62249   4533994.05944  23818916.018    23818927.914
       197.000         118.000
  23644510.673    -4928470.38449  -3801269.00746  23644511.036    23644523.365
       221.000         168.000
  21773430.654    -4395474.23249  -3400789.33747  21773430.158    21773440.337
       234.000         189.000
  22349356.293    -6859118.58049   2904508.26445  22349355.183    22349363.852
       216.000         156.000
 00  1 11 18 19 30.0000000  0  9G 1G27G19G18G 3G16G 2G31G13
  22604892.455     4230711.76449   3301411.90746  22604892.489    22604903.973
       228.000         179.000
  21954012.546    -5161430.32349  -3995621.23347  21954012.453    21954021.823
       234.000         194.000
  20706708.961    -2711173.76149  -2093883.54247  20706708.604    20706717.219
       245.000         212.000
  20210117.012      -49845.05449    -23733.82648  20210117.387    20210125.046
       247.000         217.000
  23331707.969      367430.49449    295729.14145  23331707.975    23331722.134
       219.000         162.000
  23838220.669     5921088.43248   4613039.18444  23838225.890    23838229.520
       187.000         114.000
  23629784.753    -5005855.81349  -3861569.25146  23629783.221    23629797.570
       219.000         170.000
  21768215.990    -4422877.80049  -3422142.79247  21768216.108    21768225.502
       234.000         190.000
  22333894.538    -6940368.35349   2841196.75045  22333894.017    22333902.742
       220.000         160.000
 00  1 11 18 20  0.0000000  0  9G 1G27G19G18G 3G16G 2G31G13
  22621325.779     4317066.52949   3368701.14346  22621326.002    22621336.899
       229.000         179.000
  21943860.518    -5214780.01549  -4037192.44347  21943860.102    21943869.448
       234.000         195.000
  20703728.079    -2726838.41749  -2106089.82247  20703727.917    20703736.616
       245.000         212.000
  20216636.634      -15584.75749      2962.44048  20216636.404    20216645.131
       246.000         217.000
  23339334.282      407507.08949    326957.44845  23339333.376    23339347.652
       216.000         161.000
  23857538.001     6022598.28458   4692137.37444                  23857535.462
       165.000         106.000
  23615100.699    -5083018.89249  -3921696.26346  23615098.877    23615112.937
       216.000         167.000
  21763121.203    -4449651.97549  -3443005.81047  21763121.105    21763130.859
       235.000         190.000
  22318478.319    -7021381.15149   2778069.87845  22318477.849    22318486.065
       221.000         162.000
 00  1 11 18 20 30.0000000  0  9G 1G27G19G18G 3G16G 2G31G13
  22637816.150     4403722.87649   3436225.36746  22637815.247    22637827.536
       225.000         177.000
  21933724.902    -5268043.01649  -4078696.10147  21933724.748    21933734.071
       235.000         195.000
  20700787.758    -2742290.28449  -2118130.29047  20700787.373    20700796.384
       244.000         212.000
  20223258.355       19212.72149     30077.29648  20223258.010    20223266.676
       246.000         217.000
  23347066.754      448142.99749    358621.58445  23347066.342    23347079.906
       216.000         158.000
                   6124171.53748   4771285.23943
       191.000          90.000
  23600458.235    -5159964.22449  -3981653.58946  23600458.153    23600469.809
       223.000         166.000
  21758146.255    -4475795.82049  -3463377.65247  21758145.659    21758155.924
       234.000         191.000
  22303106.921    -7102156.92749   2715127.70446  22303107.100    22303114.580
       224.000         164.000
 00  1 11 18 21  0.0000000  0  9G 1G27G19G18G 3G16G 2G31G13
  22654361.460     4490668.98049   3503975.40346  22654361.542    22654374.578
       227.000         176.000
  21923602.636    -5321235.86549  -4120145.11347  21923602.376    21923611.594
       235.000         195.000
  20697882.644    -2757556.77049  -2130026.31847  20697882.624    20697891.445
       244.000         212.000
  20229978.144       54525.35449     57593.55748  20229978.068    20229986.202
       246.000         217.000
  23354899.397      489303.02149    390694.09845  23354899.979    23354912.668
       217.000         158.000
                   6225787.44048   4850466.38744
       175.000          99.000
  23585857.025    -5236696.72449  -4041445.02746  23585856.491    23585868.732
       224.000         167.000
  21753287.107    -4501330.82649  -3483275.08847  21753286.593    21753296.775
       235.000         191.000
  22287782.347    -7182689.00049   2652375.45246  22287782.339    22287789.740
       224.000         166.000
 00  1 11 18 21 30.0000000  0  9G 1G27G19G18G 3G16G 2G31G13
  22670961.292     4577900.77849   3571948.03246  22670961.710    22670971.821
       225.000         177.000
  21913491.723    -5374369.10849  -4161547.67547  21913491.306    21913501.262
       235.000         195.000
  20695012.282    -2772640.96749  -2141780.30147  20695011.901    20695021.231
       244.000         212.000
  20236792.407       90333.98349     85496.31348  20236792.590    20236800.486
       247.000         216.000
  23362827.491      530963.41849    423156.48745  23362828.770    23362841.795
       217.000         159.000
                   6327419.84148   3646238.27443
       186.000          74.000
  23571296.549    -5313212.35949  -4101067.50646  23571294.163    23571307.983
       219.000         166.000
  21748538.819    -4526283.69449  -3502718.93247  21748538.120    21748548.328
       234.000         192.000
  22272504.596    -7262974.00049   2589815.73446  22272503.806    22272512.311
       225.000         168.000
 00  1 11 18 22  0.0000000  0  9G 1G27G19G18G 3G16G 2G31G13
  22687614.682     4665414.61849   3640140.43346  22687614.102    22687626.339
       224.000         176.000
  21903392.262    -5427442.51549  -4202903.61147  21903392.137    21903401.191
       236.000         196.000
  20692177.758    -2787536.55349  -2153387.31247  20692177.634    20692186.678
       245.000         212.000
  20243699.460      126630.45849    113779.21548  20243699.029    20243707.543
       246.000         217.000
  23370849.731      573119.30649    456004.99445  23370850.737    23370863.774
       218.000         160.000
                   6429057.08658   3725448.01443
       184.000          74.000
  23556778.497    -5389502.99449  -4160514.69446  23556777.822    23556790.212
       221.000         165.000
  21743897.495    -4550674.12949  -3521724.50347  21743897.213    21743907.074
       234.000         192.000
  22257274.349    -7343008.16949   2527451.43346  22257273.480    22257282.451
       226.000         170.000
 00  1 11 18 22 30.0000000  0  9G 1G27G19G18G 3G16G 2G31G13
  22704321.728     4753210.68149   3708552.70946  22704322.285    22704334.437
       225.000         176.000
  21893303.354    -5480460.30349  -4244216.19147  21893303.072    21893312.276
       236.000         196.000
  20689376.649    -2802256.97049  -2164857.83548  20689376.643    20689385.288
       247.000         213.000
  20250702.243      163430.19449    142454.25248  20250702.450    20250710.310
       247.000         217.000
  23378965.979      615769.08549    489238.35745  23378966.208    23378981.706
       219.000         161.000
                   6530688.70748   3804668.96243
       188.000          74.000
  23542305.923    -5465559.01649  -4219779.02346  23542305.731    23542317.887
       226.000         169.000
  21739359.531    -4574522.12949  -3540307.40847  21739359.135    21739369.490
       235.000         191.000
  22242094.189    -7422779.83749   2465291.67446  22242093.579    22242102.283
       228.000         171.000
 00  1 11 18 23  0.0000000  0  8G 1G27G19G18G 3G 2G31G13
  22721083.055     4841291.47249   3777186.91946  22721083.231    22721096.936
       226.000         176.000
  21883227.252    -5533410.58649  -4285476.16547  21883227.047    21883236.615
       236.000         197.000
  20686610.848    -2816792.12349  -2176183.99648  20686610.667    20686619.618
       247.000         213.000
  20257804.670      200752.90049    171536.80348  20257804.624    20257812.441
       247.000         217.000
  23387175.823      658909.85749    522854.31545  23387175.755    23387190.805
       217.000         161.000
  23527879.113    -5541373.70749  -4278855.29046  23527878.309    23527890.662
       224.000         170.000
  21734923.339    -4597835.39749  -3558473.64347  21734921.907    21734932.943
       232.000         192.000
  22226964.399    -7502286.99349   2403338.01846  22226964.493    22226972.588
       229.000         173.000
 00  1 11 18 23 30.0000000  0  8G 1G27G19G18G 3G 2G31G13
  22737902.038     4929674.98849   3846057.01446  22737901.229    22737914.568
       223.000         174.000
  21873172.408    -5586249.14949  -4326649.11047  21873172.338    21873181.615
       236.000         198.000
  20683884.784    -2831117.51349  -2187346.70148  20683884.805    20683893.477
       247.000         213.000
  20265012.549      238630.03749    201051.38448  20265012.414    20265020.203
       247.000         216.000
  23395487.458      702587.90749    556888.94445  23395486.812    23395501.767
       215.000         160.000
  23513501.239    -5616927.74849  -4337728.47646  23513499.153    23513512.763
       218.000         167.000
  21730594.677    -4620580.47049  -3576197.14847  21730593.473    21730604.284
       232.000         190.000
  22211889.433    -7581507.20049   2341607.97446  22211889.309    22211898.048
       230.000         175.000
 00  1 11 18 24  0.0000000  0  8G 1G27G19G18G 3G 2G31G13
  22754772.043     5018328.10449   3915137.15646  22754771.719    22754784.003
       223.000         173.000
  21863134.819    -5638997.01249  -4367751.39247  21863134.327    21863143.649
       236.000         198.000
  20681189.575    -2845281.62249  -2198383.73448  20681189.670    20681198.434
       246.000         213.000
  20272320.176      277030.98849    230974.12548  20272320.215    20272328.333
       247.000         217.000
  23403896.731      746779.49749    591323.74145  23403896.859    23403912.269
       215.000         159.000
  23499168.152    -5692247.54649  -4396419.13546  23499167.455    23499179.683
       221.000         164.000
  21726372.447    -4642769.51749  -3593487.38247  21726372.425    21726382.267
       234.000         191.000
  22196863.578    -7660467.60949   2280080.37946  22196863.771    22196872.862
       227.000         176.000
 00  1 11 18 24 30.0000000  0  8G 1G27G19G18G 3G 2G31G13
  22771693.708     5107251.17849   3984427.64046  22771694.884    22771704.276
       227.000         174.000
  21853114.945    -5691652.40549  -4408781.62247  21853114.813    21853123.723
       237.000         198.000
  20678524.498    -2859287.34749  -2209297.34247  20678524.036    20678532.967
       246.000         212.000
  20279727.266      315954.95249    261304.40948  20279727.217    20279735.522
       247.000         217.000
  23412400.890      791466.31749    626144.41845  23412402.301    23412415.534
       218.000         160.000
  23484876.821    -5767349.99849  -4454940.41846  23484876.738    23484888.009
       223.000         165.000
  21722256.424    -4664399.91149  -3610342.28147  21722255.615    21722266.524
       232.000         190.000
  22181886.625    -7739171.41749   2218752.75946  22181886.799    22181895.574
       227.000         176.000
 00  1 11 18 25  0.0000000  0  8G 1G27G19G18G 3G 2G31G13
  22788665.705     5196437.73649   4053923.43246  22788664.966    22788677.175
       224.000         174.000
  21843114.261    -5744206.87849  -4449733.21347  21843114.546    21843123.172
       238.000         199.000
  20675892.821    -2873116.27149  -2220073.18647  20675892.308    20675901.629
       247.000         212.000
  20287232.363      355394.61549    292036.54048  20287231.742    20287239.862
       246.000         216.000
  23420998.570      836644.61749    661348.07245  23420998.790    23421013.150
       218.000         160.000
  23470627.073    -5842233.44749  -4513291.05646  23470626.314    23470638.730
       223.000         168.000
  21718250.882    -4685448.04349  -3626743.50247  21718249.819    21718261.802
       232.000         190.000
  22166958.772    -7817617.16249   2157626.20346  22166958.184    22166968.358
       224.000         175.000
 00  1 11 18 25 30.0000000  0  8G 1G27G19G18G 3G 2G31G13
  22805687.355     5285888.11649   4123624.82046  22805687.271    22805700.993
       223.000         174.000
  21833131.569    -5796666.19049  -4490610.64447  21833131.338    21833140.902
       237.000         199.000
  20673296.549    -2886760.08349  -2230704.79548  20673296.405    20673305.596
       247.000         213.000
  20294833.875      395340.60149    323163.19548  20294834.149    20294841.910
       247.000         216.000
  23429690.951      882322.50949    696940.99745  23429691.482    23429705.232
       217.000         160.000
  23456417.648    -5916903.90849  -4571475.79146  23456417.140    23456428.159
       222.000         169.000
  21714361.716    -4705885.58349  -3642668.93947  21714362.020    21714371.317
       234.000         190.000
  22152082.021    -7895794.51449   2096708.79946  22152082.213    22152091.741
       225.000         174.000
 00  1 11 18 26  0.0000000  0  8G 1G27G19G18G 3G 2G31G13
  22822761.592     5375612.84449   4193539.99646  22822762.071    22822774.595
       226.000         173.000
  21823163.192    -5849050.17449  -4531429.37247  21823163.418    21823172.479
       238.000         200.000
  20670737.299    -2900209.34149  -2241184.80648  20670737.436    20670746.688
       247.000         214.000
  20302531.919      435793.59149    354684.93248  20302531.500    20302540.407
       247.000         217.000
  23438474.400      928478.81249    732906.73045  23438474.861    23438488.007
       219.000         159.000
  23442248.161    -5991364.44049  -4629496.91746  23442247.000    23442259.211
       223.000         170.000
  21710590.274    -4725706.30249  -3658113.70247  21710589.552    21710599.314
       234.000         190.000
  22137256.715    -7973704.05449   2036000.08646  22137257.715    22137265.038
       227.000         174.000
 00  1 11 18 26 30.0000000  0  8G 1G27G19G18G 3G 2G31G13
  22839889.540     5465617.94049   4263673.62246  22839890.473    22839901.589
       227.000         174.000
  21813211.537    -5901347.68249  -4572180.72047  21813211.178    21813220.368
       239.000         201.000
  20668220.755    -2913434.35049  -2251490.06548  20668220.409    20668229.262
       247.000         213.000
  20310330.930      476777.69349    386620.52848  20310330.241    20310338.971
       246.000         216.000
  23447351.130      975123.73349    769253.19245  23447351.207    23447364.753
       222.000         160.000
  23428117.985    -6065618.95649  -4687357.47146  23428117.362    23428129.341
       226.000         172.000
  21706936.545    -4744907.81049  -3673075.96847  21706935.591    21706946.054
       233.000         190.000
  22122486.015    -8051326.35149   1975515.19546  22122486.012    22122494.566
       226.000         173.000
 00  1 11 18 27  0.0000000  0  8G 1G27G19G18G 3G 2G31G13
  22857072.560     5555913.80449   4334033.82746  22857072.358    22857084.158
       223.000         174.000
  21803278.769    -5953545.07549  -4612854.06047  21803278.275    21803287.968
       238.000         200.000
  20665747.076    -2926434.09349  -2261619.79948  20665747.151    20665755.844
       247.000         213.000
  20318232.694      518301.74249    418976.84548  20318232.560    20318240.548
       247.000         215.000
  23456325.962     1022283.37649    806000.71845  23456326.633    23456338.497
       220.000         160.000
  23414029.619    -6139654.70149  -4745047.60946  23414027.296    23414040.515
       222.000         171.000
  21703402.741    -4763476.82749  -3687545.40547  21703402.297    21703413.350
       234.000         191.000
  22107771.402    -8128652.21649   1915261.26646  22107770.579    22107779.042
       222.000         171.000
 00  1 11 18 27 30.0000000  0  8G 1G27G19G18G 3G 2G31G13
  22874313.021     5646514.77149   4404631.74946  22874312.703    22874327.350
       222.000         175.000
  21793365.011    -6005642.13749  -4653449.22447  21793364.738    21793374.289
       239.000         201.000
  20663314.832    -2939216.62349  -2271580.27748  20663314.995    20663323.753
       248.000         213.000
  20326238.653      560373.25949    451759.76548  20326238.218    20326246.767
       246.000         215.000
  23465400.788     1069970.87049    843159.57845  23465400.122    23465413.867
       220.000         159.000
  23399982.932    -6213469.66449  -4802565.76246  23399982.319    23399993.726
       223.000         171.000
  21699987.975    -4781421.75349  -3701528.55047  21699987.871    21699998.055
       235.000         192.000
  22093113.666    -8205677.66649   1855241.42246  22093113.546    22093121.258
       224.000         170.000
 00  1 11 18 28  0.0000000  0  8G 1G27G19G18G 3G 2G31G13
  22891611.414     5737418.15949   4475465.34746  22891611.987    22891624.101
       225.000         175.000
  21783472.244    -6057629.47549  -4693958.90047  21783471.856    21783481.290
       240.000         202.000
  20660922.593    -2951788.69549  -2281376.74848  20660922.201    20660931.554
       247.000         213.000
  20334350.696      603001.75749    484976.71148  20334350.272    20334359.395
       246.000         216.000
  23474575.800     1118186.38649    880729.85245  23474574.550    23474588.682
       216.000         157.000
  23385980.392    -6287053.58949  -4859903.81246  23385979.493    23385991.193
       222.000         171.000
  21696687.772    -4798765.87049  -3715043.49447  21696688.145    21696697.126
       237.000         191.000
  22078513.289    -8282404.04049   1795454.65946  22078513.953    22078520.630
       226.000         169.000
 00  1 11 18 28 30.0000000  0  8G 1G27G19G18G 3G 2G31G13
  22908965.292     5828611.52349   4546524.90746  22908965.623    22908979.005
       222.000         173.000
  21773602.105    -6109497.82549  -4734375.84947  21773602.179    21773611.522
       240.000         203.000
  20658568.149    -2964161.50349  -2291017.94648  20658568.021    20658577.112
       247.000         214.000
  20342567.493      646180.88649    518622.70348  20342567.164    20342575.846
       246.000         216.000
  23483851.478     1166932.60349    918713.67345  23483851.118    23483866.742
       215.000         157.000
  23372021.912    -6360406.15249  -4917061.60546  23372020.917    23372032.094
       221.000         169.000
  21693499.448    -4815521.30449  -3728099.73147  21693498.623    21693509.028
       235.000         191.000
  22063971.018    -8358825.34749   1735905.58646  22063971.291    22063978.537
       223.000         168.000
 00  1 11 18 29  0.0000000  0  9G 1G27G19G18G 3G16G 2G31G13
  22926373.398     5920091.42249   4617807.71146  22926372.922    22926385.563
       221.000         171.000
  21763752.010    -6161260.87449  -4774710.73147  21763751.718    21763761.159
       240.000         204.000
  20656250.241    -2976342.31949  -2300509.54048  20656250.116    20656259.207
       247.000         213.000
  20350885.120      689890.56649    552682.10148  20350885.085    20350893.360
       246.000         215.000
  23493226.756     1216200.53349    957104.02745  23493227.127    23493242.423
       215.000         158.000
                   -623900.39149   -489750.26343
       210.000          74.000
  23358107.845    -6433524.14049  -4974036.65546  23358106.799    23358118.120
       219.000         167.000
  21690423.846    -4831682.61449  -3740693.03647  21690422.813    21690434.781
       233.000         191.000
  22049485.224    -8434947.99749   1676589.24646  22049485.289    22049493.955
       220.000         166.000
 00  1 11 18 29 30.0000000  0  8G 1G27G19G18G 3G 2G31G13
  22943833.511     6011844.94049   4689303.77046  22943833.285    22943845.761
       222.000         169.000
  21753918.101    -6212938.31949  -4814978.90147  21753917.836    21753927.113
       240.000         204.000
  20653969.781    -2988326.43449  -2309847.87348  20653969.624    20653978.635
       247.000         213.000
  20359300.539      734113.42049    587141.39048  20359300.470    20359308.908
       247.000         216.000
  23502697.693     1265969.43349    995884.72545  23502698.380    23502712.042
       219.000         158.000
  23344239.381    -6506402.23549  -5030824.76246  23344238.820    23344252.396
       222.000         169.000
  21687459.035    -4847262.98749  -3752833.67047  21687458.975    21687469.429
       235.000         192.000
  22035055.609    -8510775.51149   1617502.87546  22035055.948    22035064.219
       218.000         164.000
 00  1 11 18 30  0.0000000  0  8G 1G27G19G18G 3G 2G31G13
  22961344.957     6103866.99449   4761009.05846  22961345.331    22961359.180
       223.000         170.000
  21744099.692    -6264534.48749  -4855183.74747  21744099.813    21744108.179
       240.000         203.000
  20651726.004    -3000117.83749  -2319036.04548  20651725.708    20651734.891
       246.000         213.000
  20367811.270      778836.98049    621990.84348  20367811.008    20367819.893
       246.000         215.000
  23512260.873     1316222.01749   1035042.32645  23512260.351    23512273.999
       217.000         157.000
  23330417.550    -6579036.80949  -5087423.09946  23330417.038    23330430.301
       221.000         173.000
  21684605.093    -4862261.35949  -3764520.77147  21684605.040    21684614.345
       235.000         192.000
  22020682.751    -8586305.80549   1558648.09945  22020682.908    22020691.959
       216.000         161.000
 00  1 11 18 30 30.0000000  0  8G 1G27G19G18G 3G 2G31G13
  22978906.006     6196149.19649   4832917.05246  22978906.334    22978919.856
       223.000         171.000
  21734293.499    -6316066.42949  -4895338.55847  21734293.272    21734302.093
       240.000         203.000
  20649517.590    -3011723.17249  -2328079.22448  20649517.197    20649526.352
       246.000         213.000
  20376414.728      824048.19449    657220.27648  20376414.662    20376423.092
       246.000         215.000
  23521912.646     1366942.57349   1074564.57445  23521912.439    23521927.349
       216.000         155.000
  23316640.221    -6651437.53849  -5143839.20646  23316639.087    23316650.920
       222.000         174.000
  21681863.952    -4876666.96249  -3775745.97147  21681862.929    21681873.264
       235.000         191.000
  22006365.820    -8661541.09149   1500023.23045  22006364.611    22006375.231
       212.000         158.000
 00  1 11 18 31  0.0000000  0  8G 1G27G19G18G 3G 2G31G13
  22996516.115     6288689.83749   4905026.42146  22996516.443    22996529.627
       222.000         171.000
  21724498.850    -6367538.03149  -4935446.35947  21724498.483    21724508.050
       240.000         203.000
  20647343.820    -3023146.54149  -2336980.61148  20647343.941    20647352.749
       247.000         213.000
  20385110.082      869741.83849    692825.62648  20385109.992    20385118.518
       246.000         215.000
  23531654.498     1418135.58549   1114454.96945  23531654.255    23531669.732
       213.000         155.000
  23302909.645    -6723591.97849  -5200063.40946  23302909.132    23302920.893
       225.000         175.000
  21679236.275    -4890474.72549  -3786505.33147  21679235.637    21679245.922
       233.000         190.000
  21992103.034    -8736489.66449   1441621.74245  21992103.394    21992112.385
       209.000         155.000
 00  1 11 18 31 30.0000000  0  8G 1G27G19G18G 3G 2G31G13
  23014173.471     6381479.67849   4977329.96346  23014172.750    23014186.360
       219.000         169.000
  21714716.518    -6418944.44949  -4975503.36047  21714715.955    21714726.262
       239.000         204.000
  20645200.135    -3034412.05949  -2345758.98748  20645200.185    20645209.223
       247.000         213.000
  20393896.752      915915.90649    728805.33348  20393896.699    20393905.243
       246.000         215.000
  23541482.560     1469782.96749   1154699.44945  23541482.831    23541498.571
       215.000         156.000
  23289224.364    -6795508.85949  -5256102.49746  23289223.246    23289236.328
       224.000         177.000
  21676720.187    -4903696.54749  -3796808.11447  21676720.259    21676731.274
       235.000         191.000
  21977892.863    -8811164.51949   1383433.57845  21977893.021    21977901.214
       213.000         154.000
 00  1 11 18 32  0.0000000  0  8G 1G27G19G18G 3G 2G31G13
  23031876.178     6474507.68549   5049819.09446  23031875.914    23031890.170
       220.000         168.000
  21704949.183    -6470272.42249  -5015499.22047  21704948.717    21704958.811
       240.000         204.000
  20643086.330    -3045520.75349  -2354415.16048  20643086.379    20643095.068
       248.000         214.000
  20402776.899      962580.89949    765167.58748  20402776.792    20402785.658
       247.000         215.000
  23551396.611     1521879.61249   1195294.02545  23551397.537    23551412.286
       217.000         156.000
  23275580.483    -6867207.76349  -5311971.73646  23275579.092    23275592.990
       225.000         178.000
  21674318.502    -4916318.91849  -3806643.80447  21674317.932    21674328.484
       234.000         191.000
  21963734.811    -8885565.57249   1325458.76545  21963735.442    21963743.405
       216.000         156.000
 00  1 11 18 32 30.0000000  0  8G 1G27G19G18G 3G 2G31G13
  23049623.489     6567769.15649   5122490.14246  23049623.478    23049637.347
       222.000         168.000
  21695200.014    -6521504.66449  -5055420.49047  21695199.766    21695209.648
       239.000         204.000
  20641006.350    -3056451.75249  -2362932.87048  20641006.149    20641015.149
       246.000         214.000
  20411753.932     1009755.46349    801926.90448  20411753.777    20411762.751
       246.000         215.000
  23561399.346     1574441.26349   1236250.93745  23561399.872    23561414.548
       217.000         156.000
  23261978.965    -6938683.90949  -5367667.41846  23261977.658    23261990.404
       224.000         175.000
  21672032.548    -4928330.68549  -3816003.66147  21672031.775    21672041.978
       233.000         190.000
  21949630.556    -8959684.53249   1267703.75545  21949630.687    21949639.313
       220.000         160.000
 00  1 11 18 33  0.0000000  0  8G 1G27G19G18G 3G 2G31G13
  23067416.893     6661272.94549   5195350.00846  23067416.190    23067430.579
       217.000         166.000
  21685471.555    -6572628.57749  -5095257.34947  21685471.620    21685480.699
       240.000         204.000
  20638962.000    -3067195.21749  -2371304.45248  20638961.954    20638971.029
       246.000         214.000
  20420828.698     1057443.17449    839086.07748  20420828.704    20420837.019
       246.000         215.000
  23571492.482     1627479.73949   1277579.39945  23571491.696    23571508.125
       216.000         155.000
  23248421.298    -7009928.80349  -5423182.85546  23248420.114    23248431.520
       223.000         173.000
  21669862.373    -4939734.95549  -3824890.14847  21669861.457    21669872.524
       234.000         190.000
  21935581.634    -9033512.06249   1210175.80546  21935582.232    21935590.310
       223.000         163.000
 00  1 11 18 33 30.0000000  0  8G 1G27G19G18G 3G 2G31G13
  23085256.652     6755022.42849   5268401.33046  23085256.060    23085269.816
       218.000         165.000
  21675765.134    -6623636.86949  -5135004.12747  21675764.880    21675774.315
       240.000         204.000
  20636958.448    -3077724.35849  -2379509.03448  20636957.961    20636966.986
       245.000         213.000
  20430003.718     1105657.58049    876655.66448  20430003.433    20430012.262
       246.000         215.000
  23581675.739     1680993.33549   1319278.07245  23581675.736    23581689.937
       214.000         154.000
  23234906.492    -7080949.60549  -5478523.70246  23234905.709    23234918.366
       224.000         173.000
  21667809.993    -4950521.79749  -3833295.53147  21667809.887    21667820.867
       234.000         192.000
  21921592.131    -9107029.00849   1152889.89446  21921592.567    21921600.280
       225.000         166.000
 00  1 11 18 34  0.0000000  0  8G 1G27G19G18G 3G 2G31G13
  23103146.075     6849031.42449   5341654.83346  23103147.374    23103159.635
       220.000         164.000
  21666079.706    -6674534.53449  -5174664.70147  21666078.886    21666088.344
       239.000         204.000
  20634999.451    -3088018.01949  -2387530.11748  20634999.177    20635008.552
       246.000         213.000
  20439282.404     1154417.30849    914650.17648  20439282.339    20439291.103
       247.000         215.000
  23591956.330     1735018.08849   1361375.04645  23591956.159    23591971.690
       211.000         153.000
  23221437.394    -7151729.92949  -5533677.17446  23221435.285    23221450.377
       221.000         174.000
  21665876.286    -4960683.51549  -3841213.79747  21665875.506    21665886.888
       234.000         192.000
  21907666.382    -9180209.08849   1095866.46846  21907666.158    21907674.597
       226.000         167.000
 00  1 11 18 34 30.0000000  0  8G 1G27G19G18G 3G 2G31G13
  23121087.630     6943311.11649   5415119.30146  23121088.094    23121101.730
       222.000         165.000
  21656412.743    -6725334.35449  -5214249.01947  21656412.108    21656421.946
       239.000         203.000
  20633083.079    -3098089.08249  -2395377.74848  20633082.874    20633091.992
       246.000         213.000
  20448664.163     1203718.05549    953066.25748  20448663.984    20448672.750
       245.000         215.000
  23602335.616     1789562.59149   1403877.04745  23602336.622    23602350.909
       218.000         154.000
  23208015.566    -7222259.66149  -5588635.38246  23208014.236    23208027.970
       221.000         174.000
  21664059.126    -4970232.73149  -3848654.78147  21664058.704    21664069.007
       236.000         192.000
  21893805.687    -9253046.46349   1039110.06646  21893805.344    21893814.799
       226.000         168.000
 00  1 11 18 35  0.0000000  0  8G 1G27G19G18G 3G 2G31G13
  23139079.401     7037856.98249   5488791.19246  23139079.329    23139094.244
       220.000         165.000
  21646764.511    -6776035.91749  -5253756.76847  21646764.037    21646773.937
       240.000         204.000
  20631207.531    -3107945.28649  -2403057.96248  20631207.402    20631216.562
       246.000         214.000
  20458146.943     1253550.50749    991896.66448  20458146.630    20458155.348
       246.000         214.000
  23612811.689     1844610.81949   1446771.54945  23612811.880    23612826.635
       215.000         155.000
  23194640.077    -7292548.95049  -5643406.23046  23194640.405    23194650.174
       225.000         173.000
  21662357.715    -4979174.54649  -3855622.47347  21662357.232    21662367.098
       235.000         192.000
  21880010.274    -9325541.84449    982620.17746  21880010.004    21880019.501
       227.000         169.000
 00  1 11 18 35 30.0000000  0  8G 1G27G19G18G 3G 2G31G13
  23157120.237     7132662.66049   5562665.51846  23157120.419    23157133.754
       219.000         165.000
  21637136.251    -6826632.66449  -5293182.84247  21637135.932    21637145.863
       240.000         204.000
  20629374.319    -3117578.72249  -2410564.58448  20629373.872    20629383.551
       244.000         213.000
  20467730.652     1303913.33449   1031140.34248  20467730.635    20467739.431
       246.000         214.000
  23623380.902     1900150.46749   1490048.95345  23623381.393    23623395.608
       216.000         155.000
  23181310.902    -7362595.19649  -5697987.66046  23181310.073    23181322.257
       223.000         175.000
  21660771.812    -4987508.60749  -3862116.57747  21660770.880    21660782.060
       235.000         193.000
  21866278.877    -9397700.59849    926392.57046  21866278.940    21866287.252
       231.000         170.000
 00  1 11 18 36  0.0000000  0  8G 1G27G19G18G 3G 2G31G13
  23175211.229     7227730.45749   5636744.08746  23175212.354    23175224.991
       219.000         165.000
  21627529.288    -6877118.35549  -5332522.36947  21627528.873    21627538.647
       241.000         205.000
  20627583.172    -3126991.11949  -2417898.96448  20627582.912    20627592.367
       245.000         213.000
  20477415.057     1354804.81349   1070795.96248  20477414.441    20477423.487
       245.000         214.000
  23634042.201     1956173.55049   1533703.06445  23634042.433    23634057.384
       217.000         156.000
  23168030.168    -7432383.67849  -5752368.23646  23168028.608    23168041.979
       223.000         175.000
  21659303.306    -4995225.16149  -3868129.50647  21659302.497    21659313.995
       233.000         192.000
  21852611.024    -9469526.17049    870424.60246  21852611.012    21852619.368
       231.000         173.000
 00  1 11 18 36 30.0000000  0  8G 1G27G19G18G 3G 2G31G13
  23193349.126     7323045.47749   5711015.23346  23193348.779    23193362.614
       216.000         163.000
  21617947.623    -6927470.72449  -5371758.00047  21617947.566    21617956.887
       241.000         205.000
  20625836.436    -3136171.13749  -2425052.27748  20625836.291    20625845.736
       246.000         213.000
  20487196.904     1406209.09449   1110851.17148  20487196.819    20487205.843
       245.000         214.000
  23644790.968     2012656.82749   1577715.72945  23644790.052    23644805.416
       215.000         155.000
  23154798.249    -7501917.36849  -5806550.30246  23154797.417    23154810.779
       224.000         177.000
  21657954.801    -5002312.10649  -3873651.83547  21657955.110    21657965.201
       236.000         193.000
  21839005.718    -9541022.65149    814713.06646  21839005.561    21839014.406
       233.000         176.000
 00  1 11 18 37  0.0000000  0  8G 1G27G19G18G 3G 2G31G13
  23211533.279     7418604.54649   5785476.63046  23211532.480    23211548.078
       218.000         164.000
  21608392.846    -6977682.07949  -5410883.74547  21608392.401    21608401.595
       241.000         204.000
  20624136.862    -3145102.75949  -2432012.04548  20624136.857    20624146.032
       245.000         213.000
  20497076.959     1458128.63549   1151307.88548  20497077.259    20497085.875
       246.000         214.000
  23655626.979     2069600.83549   1622087.41245  23655625.511    23655642.222
       214.000         155.000
  23141617.211    -7571185.49549  -5860525.41546  23141616.922    23141628.660
       224.000         177.000
  21656728.265    -5008758.68749  -3878675.18147  21656727.819    21656738.502
       235.000         192.000
  21825462.957    -9612190.03449    759257.97246  21825462.976    21825471.921
       234.000         180.000
 00  1 11 18 37 30.0000000  0  8G 1G27G19G18G 3G 2G31G13
  23229764.588     7514411.68449   5860131.30546  23229764.988    23229779.290
       218.000         163.000
  21598861.298    -7027770.78849  -5449913.92847  21598860.920    21598869.989
       240.000         204.000
  20622482.881    -3153794.67849  -2438785.02548  20622482.692    20622491.890
       245.000         213.000
  20507057.277     1510574.66549   1192174.82948  20507057.410    20507066.076
       245.000         214.000
  23666554.759     2127026.74249   1666834.57145  23666554.175    23666570.641
       215.000         155.000
  23128488.292    -7640178.55849  -5914286.15846  23128487.241    23128498.776
       224.000         176.000
  21655625.883    -5014551.74349  -3883189.30147  21655624.733    21655635.865
       232.000         191.000
  21811984.704    -9683018.74049    704066.79646  21811984.937    21811992.602
       237.000         185.000
 00  1 11 18 38  0.0000000  0  8G 1G27G19G18G 3G 2G31G13
  23248042.427     7610459.94649   5934973.84346  23248044.744    23248058.028
       220.000         165.000
  21589348.975    -7077758.38649  -5488865.30847  21589348.835    21589358.181
       240.000         204.000
  20620868.511    -3162278.37649  -2445395.75748  20620868.370    20620877.451
       245.000         213.000
  20517136.469     1563541.03449   1233447.23148  20517136.432    20517145.404
       245.000         214.000
  23677577.174     2184948.55549   1711968.14145  23677577.274    23677593.221
       216.000         155.000
  23115409.233    -7708909.01949  -5967842.29546  23115408.046    23115420.472
       225.000         174.000
  21654647.073    -5019694.96149  -3887197.06747  21654646.690    21654657.372
       234.000         191.000
  21798572.787    -9753499.47649    649146.75747  21798573.452    21798581.314
       237.000         189.000
 00  1 11 18 38 30.0000000  0  8G 1G27G19G18G 3G 2G31G13
  23266364.887     7706741.14749   6009997.90346  23266365.600    23266379.175
       221.000         166.000
  21579852.213    -7127664.43549  -5527753.14747  21579851.769    21579861.396
       240.000         205.000
  20619288.215    -3170582.87849  -2451866.84548  20619288.194    20619297.808
       245.000         213.000
  20527313.511     1617021.45249   1275120.21548  20527312.887    20527322.334
       244.000         213.000
  23688693.902     2243365.43249   1757487.45945  23688693.249    23688708.932
       213.000         154.000
  23102376.598    -7777396.33549  -6021208.98246  23102376.218    23102388.646
       227.000         174.000
  21653786.924    -5024215.33349  -3890719.48347  21653786.436    21653797.294
       235.000         191.000
  21785226.169    -9823637.37749    594493.88247  21785226.032    21785235.277
       238.000         192.000
 00  1 11 18 39  0.0000000  0  8G 1G27G19G18G 3G 2G31G13
  23284731.453     7803256.97949   6085204.80546  23284732.925    23284745.258
       222.000         167.000
  21570366.833    -7177510.26149  -5566594.04947  21570366.336    21570376.292
       240.000         205.000
  20617737.763    -3178730.92649  -2458216.02948  20617737.877    20617747.503
       245.000         214.000
  20537587.792     1671013.20849   1317191.61948  20537587.554    20537596.441
       244.000         213.000
  23699903.820     2302274.12249   1803389.99845  23699904.078    23699919.386
       213.000         154.000
  23089390.057    -7845643.11849  -6074388.22046  23089388.729    23089401.367
       225.000         175.000
  21653041.041    -5028136.20249  -3893774.77147  21653040.522    21653050.755
       233.000         191.000
  21771943.823    -9893436.43749    540105.03247  21771943.937    21771952.386
       238.000         194.000
 00  1 11 18 39 30.0000000  0  8G 1G27G19G18G 3G 2G31G13
  23303141.269     7899998.64049   6160587.68246  23303141.681    23303154.456
       219.000         166.000
  21560890.722    -7227307.57649  -5605397.15247  21560889.956    21560899.885
       238.000         204.000
  20616212.837    -3186744.61949  -2464460.52548  20616212.683    20616222.533
       245.000         214.000
  20547956.073     1725498.84449   1359647.87147  20547955.906    20547965.042
       244.000         212.000
  23711204.318     2361657.90949   1849662.71845  23711205.084    23711219.705
       213.000         154.000
  23076444.418    -7913671.65749  -6127397.34446  23076443.511    23076454.016
       225.000         173.000
  21652406.618    -5031469.14449  -3896371.92047  21652405.981    21652417.869
       234.000         191.000
  21758725.936    -9962896.66749    485980.21647  21758725.937    21758734.249
       237.000         195.000
 00  1 11 18 40  0.0000000  0  8G 1G27G19G18G 3G 2G31G13
  23321594.505     7996968.49549   6236148.33246  23321596.365    23321608.843
       224.000         168.000
  21551425.585    -7277046.73249  -5644154.93547  21551425.089    21551434.625
       238.000         204.000
  20614716.394    -3194609.19049  -2470588.83448  20614716.509    20614725.629
       246.000         213.000
  20558413.366     1780451.72249   1402468.21248  20558413.357    20558422.772
       245.000         213.000
  23722588.985     2421483.61249   1896279.79645  23722589.553    23722604.968
       213.000         154.000
  23063539.371    -7981487.72749  -6180240.95246  23063537.775    23063550.998
       224.000         172.000
  21651881.107    -5034231.49949  -3898524.47747  21651880.925    21651891.880
       235.000         191.000
  21745570.267   -10032030.43049    432109.78747  21745570.085    21745578.697
       239.000         195.000
 00  1 11 18 40 30.0000000  0  8G 1G27G19G18G 3G 2G31G13
  23340091.240     8094166.04249   6311886.41546  23340091.311    23340106.254
       220.000         170.000
  21541975.035    -7326709.57349  -5682853.25347  21541974.611    21541984.189
       238.000         203.000
  20613252.502    -3202302.52249  -2476583.70248  20613252.202    20613261.415
       246.000         213.000
  20568958.109     1835864.09549   1445646.59848  20568958.286    20568967.651
       245.000         213.000
  23734052.614     2481724.24649   1943220.23045  23734054.006    23734069.100
       214.000         155.000
  23050674.736    -8049091.75349  -6232919.32546  23050672.961    23050685.175
       222.000         175.000
  21651465.233    -5036417.30149  -3900227.75847  21651464.453    21651474.916
       233.000         191.000
  21732475.509   -10100843.74849    378489.08147  21732475.031    21732483.990
       238.000         196.000
 00  1 11 18 41  0.0000000  0  8G 1G27G19G18G 3G 2G31G13
  23358629.715     8191585.41849   6387797.35946  23358629.697    23358645.290
       222.000         169.000
  21532541.454    -7376283.86549  -5721482.56047  21532541.312    21532550.450
       239.000         203.000
  20611826.216    -3209797.87649  -2482424.29948  20611826.120    20611835.481
       246.000         213.000
  20579589.620     1891732.45549   1489180.29248  20579589.557    20579598.672
       244.000         213.000
  23745595.691     2542381.15649   1990485.03945  23745596.256    23745612.964
       213.000         155.000
  23037851.719    -8116476.07149  -6285426.46146  23037850.358    23037863.555
       226.000         178.000
  21651164.154    -5037999.43549  -3901460.66547  21651164.001    21651174.285
       235.000         191.000
  21719442.871   -10169329.38349    325123.69247  21719442.723    21719451.608
       239.000         197.000
 00  1 11 18 41 30.0000000  0  8G 1G27G19G18G 3G 2G31G13
  23377210.462     8289227.37249   6463881.74546  23377209.395    23377226.576
       217.000         167.000
  21523127.080    -7425757.55749  -5760033.47847  21523126.180    21523136.074
       237.000         203.000
  20610441.608    -3217074.53649  -2488094.47048  20610441.348    20610450.819
       246.000         214.000
  20590309.815     1948066.78349   1533077.08147  20590309.715    20590318.315
       245.000         212.000
  23757218.631     2603458.40149   2038077.35745  23757220.049    23757235.925
       215.000         156.000
  23025071.449    -8183635.57849  -6337758.42646  23025070.026    23025083.748
       224.000         178.000
  21650982.557    -5038954.25249  -3902204.76547  21650982.507    21650994.180
       234.000         192.000
  21706473.068   -10237486.03749    272014.63347  21706473.161    21706482.113
       240.000         199.000
 00  1 11 18 42  0.0000000  0  8G 1G27G19G18G 3G 2G31G13
  23395833.736     8387094.10349   6540141.27546  23395832.502    23395848.118
       216.000         164.000
  21513736.357    -7475106.06049  -5798486.86047  21513735.511    21513745.588
       237.000         204.000
  20609103.790    -3224105.09749  -2493572.87148  20609103.465    20609113.134
       244.000         213.000
  20601122.474     2004887.46449   1577352.84448  20601122.630    20601131.676
       246.000         213.000
  23768922.978     2664962.40049   2086002.20345  23768922.717    23768939.866
       213.000         155.000
  23012338.273    -8250547.67449  -6389897.67846  23012337.210    23012349.308
       223.000         176.000
  21650922.009    -5039272.65049  -3902452.95447  21650921.769    21650932.652
       236.000         193.000
  21693566.966   -10305307.88549    219166.45947  21693566.826    21693575.537
       241.000         200.000
 00  1 11 18 42 30.0000000  0  8G 1G27G19G18G 3G 2G31G13
  23414499.363     8485183.17249   6616574.04945  23414500.189    23414513.635
       218.000         162.000
  21504371.771    -7524316.33849  -5836832.53547  21504371.104    21504381.294
       235.000         203.000
  20607810.699    -3230900.10449  -2498867.72747  20607810.610    20607819.795
       245.000         212.000
  20612033.513     2062224.41449   1622030.90048  20612033.456    20612042.961
       245.000         213.000
  23780712.846     2726918.80049   2134279.57045  23780711.606    23780730.666
       212.000         155.000
  22999654.592    -8317199.62549  -6441834.17646  22999654.730    22999666.292
       227.000         177.000
  21650985.509    -5038939.35749  -3902193.33647  21650984.725    21650995.819
       234.000         192.000
  21680729.189   -10372770.01449    166598.59147  21680728.724    21680737.765
       241.000         200.000
 00  1 11 18 43  0.0000000  0  8G 1G27G19G18G 3G 2G31G13
  23433209.129     8583501.39749   6693185.38945  23433208.347    23433222.128
       215.000         162.000
  21495032.657    -7573393.37549  -5875074.38847  21495032.539    21495041.884
       237.000         203.000
  20606561.537    -3237465.14949  -2503983.40447  20606561.494    20606570.280
       246.000         212.000
  20623044.048     2120085.67149   1667117.49647  20623043.844    20623053.020
       244.000         212.000
  23792591.201     2789340.53749   2182919.54845  23792589.803    23792609.962
       211.000         153.000
  22987021.581    -8383588.48549  -6493565.63446  22987021.086    22987032.315
       230.000         179.000
  21651172.170    -5037958.24149  -3901428.92247  21651172.335    21651182.361
       235.000         191.000
  21667960.410   -10439869.93749    114312.95647  21667960.683    21667969.351
       242.000         200.000
 00  1 11 18 43 30.0000000  0  8G 1G27G19G18G 3G 2G31G13
  23451964.929     8682064.23349   6769987.33645  23451964.563    23451979.986
       216.000         162.000
  21485718.698    -7622338.75249  -5913213.65547  21485718.557    21485727.555
       236.000         202.000
  20605355.130    -3243805.41249  -2508923.92447  20605355.070    20605364.094
       246.000         212.000
  20634155.049     2178473.87449   1712614.70847  20634155.322    20634164.370
       246.000         212.000
  23804558.171     2852227.00149   2231921.62545  23804557.818    23804577.128
       213.000         153.000
  22974437.602    -8449717.62049  -6545094.75046  22974436.968    22974448.562
       228.000         178.000
  21651479.392    -5036344.85149  -3900171.81547  21651479.263    21651489.714
       234.000         192.000
  21655261.370   -10506604.18449     62312.26947  21655261.564    21655270.519
       241.000         201.000
 00  1 11 18 44  0.0000000  0  8G 1G27G19G18G 3G 2G31G13
  23470767.934     8780874.62549   6846982.16946  23470767.306    23470784.710
       218.000         163.000
  21476428.110    -7671160.31049  -5951256.43447  21476427.868    21476437.741
       235.000         202.000
  20604189.486    -3249931.40649  -2513697.47548  20604189.297    20604198.700
       245.000         213.000
  20645364.694     2237379.62849   1758515.20647  20645364.412    20645373.385
       244.000         212.000
  23816612.702     2915571.29049   2281280.49345  23816612.772    23816630.697
       213.000         152.000
  22961902.610    -8515588.59149  -6596422.73446  22961901.386    22961914.345
       226.000         179.000
  21651904.523    -5034110.85649  -3898431.12247  21651904.309    21651916.119
       234.000         192.000
  21642634.319   -10572960.08949     10606.39747  21642634.456    21642643.269
       240.000         202.000
 00  1 11 18 44 30.0000000  0  8G 1G27G19G18G 3G 2G31G13
  23489617.240     8879927.53849   6924166.00545  23489616.157    23489633.292
       215.000         162.000
  21467156.778    -7719881.90749  -5989221.30147  21467156.367    21467166.298
       236.000         202.000
  20603062.776    -3255852.19149  -2518311.11648  20603062.497    20603072.031
       245.000         213.000
  20656669.991     2296790.38649   1804809.21947  20656669.195    20656679.153
       242.000         210.000
  23828754.397     2979374.72049   2330997.15445  23828754.906    23828771.688
       213.000         152.000
  22949413.502    -8581219.01849  -6647563.25946  22949412.842    22949424.846
       230.000         182.000
  21652447.662    -5031257.46249  -3896207.80047  21652447.503    21652459.162
       235.000         193.000
  21630078.239   -10638942.51449    -40808.44947  21630078.518    21630086.934
       240.000         201.000
 00  1 11 18 45  0.0000000  0  8G 1G27G19G18G 3G 2G31G13
  23508510.202     8979211.48449   7001529.87445  23508509.647    23508526.839
       214.000         160.000
  21457901.930    -7768516.21049  -6027118.16447  21457901.384    21457911.384
       236.000         202.000
  20601978.585    -3261549.67749  -2522750.74548  20601977.937    20601987.722
       245.000         213.000
  20668067.808     2356686.36449   1851481.31347  20668068.354    20668077.079
       245.000         211.000
  23840982.779     3043634.48749   2381069.42345  23840983.231    23841000.957
       212.000         151.000
  22936970.243    -8646609.99049  -6698517.19846  22936969.446    22936980.313
       228.000         182.000
  21653108.402    -5027785.71049  -3893502.63647  21653108.035    21653118.356
       235.000         192.000
  21617591.473   -10704560.58249    -91939.37947  21617591.683    21617600.156
       239.000         200.000
 00  1 11 18 45 30.0000000  0  8G 1G27G19G18G 3G 2G31G13
  23527444.344     9078710.16549   7079061.01345  23527444.089    23527460.753
       214.000         160.000
  21448663.555    -7817064.00849  -6064947.61947  21448663.070    21448673.370
       238.000         202.000
  20600937.436    -3267020.62049  -2527013.85748  20600937.238    20600946.690
       245.000         213.000
  20679556.090     2417056.39349   1898522.80147  20679555.981    20679565.128
       244.000         211.000
  23853297.949     3108348.58049   2431495.70545  23853298.675    23853314.196
       213.000         150.000
  22924573.741    -8711752.62049  -6749277.63846  22924572.279    22924584.116
       226.000         181.000
  21653885.924    -5023699.65549  -3890318.78447  21653885.577    21653895.415
       234.000         191.000
  21605175.781   -10769806.00249   -142779.93447  21605175.628    21605184.018
       240.000         199.000
 00  1 11 18 46  0.0000000  0  8G 1G27G19G18G 3G 2G31G13
  23546415.460     9178400.87649   7156741.82345  23546415.945    23546431.362
       219.000         162.000
  21439444.045    -7865513.11849  -6102700.19047  21439443.762    21439453.374
       238.000         202.000
  20599936.988    -3272278.33249  -2531110.81747  20599936.771    20599946.188
       245.000         212.000
  20691133.582     2477896.68249   1945930.74947  20691132.737    20691142.603
       242.000         210.000
  23865698.197     3173511.00449   2482271.34945  23865698.511    23865715.254
       212.000         150.000
  22912223.710    -8776651.88049  -6799848.43846  22912223.078    22912234.784
       228.000         181.000
  21654781.336    -5018994.67149  -3886652.64747  21654781.267    21654791.864
       235.000         191.000
  21592831.112   -10834677.72149   -193329.30547  21592831.284    21592839.198
       240.000         199.000
 00  1 11 18 46 30.0000000  0  8G 1G27G19G18G 3G 2G31G13
  23565421.580     9278277.42349   7234567.46146  23565421.678    23565438.316
       218.000         163.000
  21430245.316    -7913853.42349  -6140367.97147  21430244.810    21430254.749
       238.000         201.000
  20598978.199    -3277317.25449  -2535037.28648  20598977.944    20598987.384
       245.000         213.000
  20702800.816     2539208.75249   1993706.29847  20702800.929    20702810.328
       244.000         210.000
  23878183.190     3239118.56149   2533393.82245  23878183.877    23878200.707
       214.000         150.000
  22899919.306    -8841312.78849  -6850233.50846  22899917.317    22899930.296
       227.000         182.000
  21655795.017    -5013668.79649  -3882502.69847  21655794.535    21655805.863
       233.000         191.000
  21580557.081   -10899178.25749   -243589.44347  21580557.121    21580565.534
       241.000         200.000
 00  1 11 18 47  0.0000000  0  8G 1G27G19G18G 3G 2G31G13
  23584463.907     9378345.21449   7312542.11545  23584463.656    23584481.160
       213.000         160.000
  21421070.284    -7962068.28349  -6177938.01047  21421069.932    21421079.866
       238.000         201.000
  20598060.570    -3282139.51549  -2538794.92448  20598060.190    20598070.071
       245.000         213.000
  20714558.229     2600993.09249   2041849.84947  20714558.490    20714567.427
       245.000         211.000
  23890751.313     3305161.74749   2584855.76445  23890752.496    23890767.602
       217.000         151.000
  22887661.583    -8905727.14049  -6900426.49546  22887661.262    22887672.537
       229.000         183.000
  21656925.745    -5007726.98049  -3877872.80147  21656925.413    21656937.367
       234.000         191.000
  21568355.044   -10963300.04849   -293554.46347  21568355.148    21568363.847
       243.000         201.000
 00  1 11 18 47 30.0000000  0  8G 1G27G19G18G 3G 2G31G13
  23603546.051     9478621.24249   7390679.00245  23603544.396    23603563.179
       210.000         153.000
  21411922.116    -8010143.06049  -6215398.88947  21411921.855    21411931.401
       238.000         201.000
  20597183.257    -3286749.32849  -2542387.02048  20597182.967    20597192.820
       245.000         213.000
  20726407.293     2663260.16549   2090369.56147  20726406.917    20726416.792
       242.000         210.000
  23903399.369     3371624.77149   2636644.83545  23903399.511    23903416.220
       213.000         151.000
  22875449.104    -8969904.32449  -6950434.66846  22875448.077    22875459.632
       228.000         181.000
  21658173.697    -5001169.85649  -3872763.45047  21658173.179    21658184.816
       233.000         191.000
  21556226.145   -11027038.04149   -343220.41547  21556226.325    21556234.765
       242.000         202.000
 00  1 11 18 48  0.0000000  0  8G 1G27G19G18G 3G 2G31G13
  23622668.921     9579113.59449   7468984.45545  23622667.378    23622685.005
       205.000         148.000
  21402800.778    -8058075.94549  -6252749.20847  21402800.699    21402809.840
       240.000         201.000
  20596347.779    -3291140.17849  -2545808.50148  20596347.505    20596357.042
       245.000         213.000
  20738352.093     2726030.55849   2139281.46747  20738352.507    20738361.925
       244.000         210.000
  23916125.742     3438503.69549   2688758.04345  23916125.641    23916142.328
       211.000         149.000
  22863282.257    -9033840.72949  -7000255.22346  22863280.131    22863293.918
       224.000         180.000
  21659540.076    -4993988.73049  -3867167.84747  21659539.663    21659550.407
       234.000         190.000
  21544171.316   -11090386.22049   -392582.61247  21544171.191    21544179.687
       240.000         202.000
 00  1 11 18 48 30.0000000  0  8G 1G27G19G18G 3G 2G31G13
  23641835.440     9679833.70849   7547467.40945  23641835.208    23641853.024
       206.000         149.000
  21393705.387    -8105873.65349  -6289994.18847  21393704.846    21393714.858
       239.000         201.000
  20595558.361    -3295288.71649  -2549041.17348  20595558.422    20595567.596
       245.000         213.000
  20750392.418     2789301.72749   2188583.58547  20750392.322    20750401.518
       244.000         211.000
  23928932.228     3505802.25449   2741198.20545  23928932.235    23928949.117
       212.000         148.000
  22851165.799    -9097511.11449  -7049868.50446  22851164.888    22851177.296
       226.000         181.000
  21661027.308    -4986173.34949  -3861077.99147  21661026.993    21661038.096
       234.000         190.000
  21532191.952   -11153337.53349   -441635.55047  21532191.814    21532201.064
       239.000         201.000
 00  1 11 18 49  0.0000000  0  8G 1G27G19G18G 3G 2G31G13
  23661044.333     9780776.98549   7626124.21845  23661044.020    23661063.411
       205.000         153.000
  21384634.587    -8153541.06649  -6327137.63447  21384634.086    21384643.644
       239.000         201.000
  20594814.465    -3299198.20249  -2552087.55648  20594814.367    20594824.266
       244.000         213.000
  20762526.006     2853063.60449   2238268.08247  20762525.942    20762535.448
       244.000         211.000
  23941819.507     3573525.08549   2793968.93045  23941817.645    23941835.917
       210.000         147.000
  22839101.103    -9160911.82549  -7099271.63546  22839101.599    22839112.506
       232.000         184.000
  21662635.014    -4977725.86349  -3854495.60247  21662635.080    21662645.234
       236.000         191.000
  21520288.394   -11215890.46049   -490378.06947  21520288.854    21520297.472
       238.000         201.000
 00  1 11 18 49 30.0000000  0  8G 1G27G19G18G 3G 2G31G13
  23680294.439     9881936.11149   7704949.22245  23680295.792    23680311.713
       213.000         155.000
  21375587.330    -8201083.91249  -6364184.02547  21375587.219    21375596.122
       239.000         202.000
  20594116.259    -3302867.08349  -2554946.44748  20594116.000    20594125.865
       245.000         213.000
  20774752.534     2917314.11549   2288333.33247  20774752.558    20774762.438
       244.000         210.000
  23954786.393     3641668.28449   2847067.17345  23954786.277    23954804.656
       208.000         146.000
  22827087.080    -9224048.08749  -7148468.68046  22827086.247    22827097.855
       230.000         186.000
  21664365.219    -4968634.52349  -3847411.49247  21664364.463    21664375.606
       235.000         192.000
  21508461.631   -11278041.48149   -538807.39247  21508461.682    21508470.701
       238.000         200.000
 00  1 11 18 50  0.0000000  0  8G 1G27G19G18G 3G 2G31G13
  23699582.864     9983296.48849   7783931.07345  23699582.640    23699600.870
       208.000         153.000
  21366562.679    -8248509.59649  -6401139.12747  21366562.417    21366571.473
       240.000         203.000
  20593462.900    -3306300.94249  -2557622.20148  20593462.812    20593472.327
       245.000         213.000
  20787070.497     2982045.03749   2338772.92747  20787070.521    20787080.368
       244.000         211.000
  23967834.780     3710238.54349   2900498.15145  23967834.384    23967854.098
       209.000         147.000
  22815123.552    -9286916.19049  -7197456.77046  22815121.500    22815134.132
       226.000         183.000
  21666216.738    -4958904.09049  -3839829.39547  21666216.251    21666227.392
       235.000         192.000
  21496709.968   -11339796.30049   -586928.00947  21496709.728    21496718.863
       237.000         198.000
 00  1 11 18 50 30.0000000  0  8G 1G27G19G18G 3G 2G31G13
  23718910.332    10084862.28149   7863072.95245  23718910.080    23718927.813
       208.000         154.000
  21357560.465    -8295816.94649  -6438002.01747  21357559.679    21357569.349
       240.000         203.000
  20592854.229    -3309500.01349  -2560115.01548  20592854.264    20592863.479
       246.000         213.000
  20799477.866     3047245.67349   2389578.54647  20799477.102    20799487.065
       243.000         210.000
  23980965.803     3779241.25149   2954266.09545  23980967.332    23980985.846
       210.000         149.000
  22803208.998    -9349526.37849  -7246243.92046  22803208.797    22803219.996
       230.000         183.000
  21668189.497    -4948537.68749  -3831751.74447  21668189.215    21668200.681
       234.000         192.000
  21485032.755   -11401160.64449   -634744.36647  21485032.811    21485041.550
       237.000         197.000
 00  1 11 18 51  0.0000000  0  8G 1G27G19G18G 3G 2G31G13
  23738275.423    10186625.01149   7942368.31045  23738275.624    23738291.081
       212.000         153.000
  21348580.678    -8343005.73549  -6474772.51247  21348579.966    21348590.094
       241.000         204.000
  20592289.702    -3312467.18649  -2562427.12048  20592289.485    20592299.123
       245.000         213.000
  20811975.310     3112920.27549   2440753.48247  20811975.209    20811985.106
       243.000         210.000
  23994179.329     3848675.91949   3008370.66645  23994181.374    23994199.706
       214.000         150.000
  22791339.643    -9411901.16849  -7294847.62546  22791339.624    22791351.542
       233.000         186.000
  21670282.705    -4937537.84649  -3823180.48947  21670281.706    21670293.296
       234.000         191.000
  21473428.855   -11462139.25149   -682260.15947  21473428.984    21473437.363
       238.000         197.000
 00  1 11 18 51 30.0000000  0  8G 1G27G19G18G 3G 2G31G13
  23757677.581    10288583.73249   8021816.39945  23757676.843    23757693.307
       208.000         150.000
  21339625.369    -8390065.80749  -6511442.70547  21339624.985    21339635.143
       240.000         205.000
  20591769.940    -3315198.88449  -2564555.73548  20591769.435    20591779.228
       244.000         213.000
  20824565.093     3179079.35149   2492305.91547  20824565.413    20824574.935
       244.000         210.000
  24007474.681     3918539.21249   3062809.21845  24007475.760    24007494.206
       211.000         150.000
  22779516.914    -9474030.77249  -7343260.26746  22779516.649    22779527.825
       231.000         187.000
  21672498.616    -4925893.53549  -3814107.06847  21672498.521    21672509.556
       234.000         191.000
  21461899.190   -11522728.03249   -729472.18247  21461899.506    21461907.809
       238.000         197.000
 00  1 11 18 52  0.0000000  0  8G 1G27G19G18G 3G 2G31G13
  23777115.425    10390731.18749   8101411.52945  23777115.386    23777132.294
       211.000         148.000
  21330693.602    -8437002.74949  -6548016.94547  21330693.028    21330702.961
       242.000         206.000
  20591294.874    -3317695.22549  -2566500.95648  20591294.593    20591304.231
       245.000         213.000
  20837247.801     3245726.78549   2544238.92447  20837247.384    20837257.598
       243.000         210.000
  24020853.089     3988841.68649   3117589.98645  24020854.179    24020872.839
       211.000         150.000
  22767743.140    -9535901.84149  -7391471.45846  22767742.600    22767753.886
       232.000         185.000
  21674835.730    -4913613.19349  -3804538.02547  21674835.254    21674846.060
       234.000         191.000
  21450445.713   -11582916.58449   -776372.32247  21450445.995    21450454.283
       239.000         198.000
 00  1 11 18 52 30.0000000  0  8G 1G27G19G18G 3G 2G31G13
  23796587.935    10493058.55549   8181146.86445  23796589.004    23796604.887
       215.000         148.000
  21321784.054    -8483822.57749  -6584499.95047  21321783.856    21321793.650
       242.000         206.000
  20590863.389    -3319962.69349  -2568267.83448  20590862.892    20590872.516
       244.000         213.000
  20850020.706     3312848.92149   2596541.79847  20850020.731    20850029.963
       243.000         210.000
  24034313.539     4059573.94749   3172705.63545  24034314.650    24034333.000
       213.000         150.000
  22756018.907    -9597514.07049  -7439480.92946  22756018.166    22756029.509
       231.000         185.000
  21677293.232    -4900698.66949  -3794474.79747  21677292.293    21677303.815
       233.000         191.000
  21439071.326   -11642689.70949   -822948.75747  21439071.150    21439079.674
       239.000         199.000
 00  1 11 18 53  0.0000000  0  8G 1G27G19G18G 3G 2G31G13
  23816091.395    10595545.89349   8261006.82445  23816093.142    23816107.553
       217.000         150.000
  21312897.252    -8530523.85249  -6620890.57447  21312896.928    21312906.534
       244.000         207.000
  20590474.040    -3322007.93949  -2569861.55347  20590473.912    20590483.244
       244.000         212.000
  20862881.473     3380431.97849   2649203.83947  20862881.018    20862891.121
       243.000         210.000
  24047852.219     4130717.03849   3228141.40145  24047852.558    24047871.313
       209.000         148.000
  22744344.168    -9658864.94649  -7487286.71846  22744343.169    22744355.315
       231.000         185.000
  21679870.304    -4887155.79649  -3783921.96547  21679869.609    21679881.252
       233.000         191.000
  21427777.839   -11702036.92449   -869193.31747  21427777.758    21427786.216
       241.000         201.000
 00  1 11 18 53 30.0000000  0  8G 1G27G19G18G 3G 2G31G13
  23835625.052    10698192.32349   8340990.74445  23835625.070    23835642.193
       217.000         155.000
  21304031.331    -8577114.47849  -6657194.97947  21304031.076    21304040.517
       242.000         207.000
  20590124.534    -3323844.60949  -2571292.74047  20590124.264    20590133.941
       244.000         212.000
  20875828.216     3448468.01449   2702218.86647  20875827.825    20875837.695
       241.000         209.000
  24061467.495     4202265.49749   3283893.07545  24061467.543    24061487.173
       212.000         148.000
  22732720.179    -9719949.08849  -7534884.69646  22732719.526    22732731.295
       233.000         187.000
  21682563.484    -4873002.59649  -3772893.55247  21682563.094    21682574.590
       234.000         191.000
  21416568.423   -11760942.34249   -915093.62547  21416568.668    21416577.670
       243.000         203.000
 00  1 11 18 54  0.0000000  0  8G 1G27G19G18G 3G 2G31G13
  23855188.505    10800998.48449   8421099.11345  23855189.286    23855206.077
       218.000         158.000
  21295183.787    -8623608.57749  -6693424.15847  21295183.631    21295193.200
       242.000         207.000
  20589814.856    -3325472.49049  -2572561.23647  20589814.878    20589824.352
       244.000         212.000
  20888861.061     3516956.24349   2755586.24447  20888860.972    20888870.184
       242.000         208.000
  24075159.917     4274217.64949   3339959.32345  24075159.094    24075179.010
       210.000         147.000
  22721143.823    -9780783.00149  -7582287.67146  22721142.440    22721154.766
       231.000         187.000
  21685369.768    -4858256.04449  -3761402.79047  21685369.931    21685380.743
       236.000         192.000
  21405442.513   -11819409.68949   -960652.58247  21405442.411    21405451.693
       242.000         204.000
 00  1 11 18 54 30.0000000  0  8G 1G27G19G18G 3G 2G31G13
  23874785.964    10903981.80649   8501345.55545  23874787.559    23874802.559
       219.000         156.000
  21286357.892    -8669988.98949  -6729564.74747  21286357.441    21286367.438
       242.000         207.000
  20589546.689    -3326881.82649  -2573659.42147  20589546.294    20589556.035
       244.000         212.000
  20901979.873     3585895.41149   2809305.01047  20901979.291    20901989.248
       241.000         207.000
  24088926.866     4346561.92949   3396331.14945  24088927.752    24088945.562
       207.000         146.000
  22709613.543    -9841374.03449  -7629501.39346  22709612.992    22709622.856
       231.000         185.000
  21688291.378    -4842904.40049  -3749440.52147  21688291.528    21688301.731
       235.000         192.000
  21394397.482   -11877451.44849  -1005879.91847  21394397.547    21394406.300
       243.000         203.000
 00  1 11 18 55  0.0000000  0  8G 1G27G19G18G 3G 2G31G13
  23894418.738    11007149.79649   8581735.89945  23894419.767    23894433.540
       215.000         151.000
  21277556.087    -8716242.77749  -6765606.67247  21277555.625    21277565.360
       242.000         207.000
  20589320.142    -3328072.05349  -2574586.87547  20589319.920    20589329.184
       244.000         212.000
  20915188.266     3655306.42449   2863391.43947  20915188.177    20915197.907
       242.000         207.000
  24102768.963     4419302.54949   3453011.80045  24102768.810    24102787.453
       206.000         144.000
  22698129.023    -9901724.65049  -7676527.76546  22698128.093    22698139.907
       229.000         184.000
  21691329.014    -4826942.68249  -3737002.88047  21691328.756    21691339.348
       235.000         192.000
  21383431.668   -11935077.47849  -1050783.29847  21383431.618    21383439.536
       241.000         201.000
 00  1 11 18 55 30.0000000  0  8G 1G27G19G18G 3G 2G31G13
  23914088.476    11110513.80449   8662278.96145  23914090.020    23914103.542
       215.000         147.000
  21268778.269    -8762370.75949  -6801550.55247  21268777.642    21268787.664
       242.000         206.000
  20589135.509    -3329042.86949  -2575343.35647  20589135.188    20589144.352
       245.000         212.000
  20928490.421     3725209.23049   2917861.08847  20928491.167    20928500.312
       244.000         208.000
  24116689.510     4492455.36549   3510013.67045  24116689.313    24116707.011
       209.000         144.000
  22686691.140    -9961830.27249  -7723363.20646  22686689.871    22686702.351
       230.000         184.000
  21694483.985    -4810362.23149  -3724083.11747  21694482.872    21694494.224
       233.000         190.000
  21372542.202   -11992301.71949  -1095373.58647  21372542.017    21372550.436
       239.000         199.000
 00  1 11 18 56  0.0000000  0  9G 1G27G19G18G 3G10G 2G31G13
  23933797.126    11214081.73049   8742980.93945  23933797.627    23933813.474
       217.000         147.000
  21260027.802    -8808354.30949  -6837381.90147  21260027.569    21260037.524
       241.000         206.000
  20588993.519    -3329788.73149  -2575924.56847  20588993.147    20589002.778
       244.000         212.000
  20941886.889     3795606.52749   2972716.05347  20941886.674    20941896.208
       243.000         208.000
  24130687.985     4566015.63049   3567333.02945  24130688.332    24130706.413
       212.000         144.000
                   -630567.44449   -476056.78843
       205.000          74.000
  22675300.235   -10021689.22749  -7770006.46746  22675299.647    22675311.111
       229.000         185.000
  21697758.833    -4793151.68949  -3710672.36347  21697757.805    21697770.247
       234.000         191.000
  21361725.713   -12049142.10549  -1139664.77147  21361725.655    21361734.161
       238.000         198.000
 00  1 11 18 56 30.0000000  0  8G 1G27G19G18G 3G 2G31G13
  23953542.634    11317841.88249   8823832.70145  23953544.386    23953558.827
       218.000         148.000
  21251305.745    -8854188.60749  -6873096.93847  21251305.198    21251315.398
       241.000         206.000
  20588893.411    -3330314.40349  -2576334.19147  20588893.136    20588903.110
       244.000         212.000
  20955372.583     3866474.48349   3027937.76047  20955371.968    20955382.145
       242.000         207.000
  24144761.262     4639968.19649   3624958.04945  24144762.449    24144779.696
       211.000         145.000
  22663957.715   -10081294.40249  -7816451.97746  22663956.340    22663968.891
       230.000         186.000
  21701154.585    -4775308.07749  -3696768.31147  21701155.353    21701165.263
       236.000         192.000
  21350983.146   -12105594.51949  -1183653.63547  21350983.552    21350991.946
       241.000         200.000
 00  1 11 18 57  0.0000000  0  8G 1G27G19G18G 3G 2G31G13
  23973321.374    11421776.71649   8904820.54545  23973321.785    23973337.463
       218.000         146.000
  21242609.946    -8899885.43049  -6908704.84547  21242609.837    21242619.923
       241.000         206.000
  20588833.652    -3330627.98149  -2576578.55847  20588833.417    20588843.571
       244.000         212.000
  20968946.256     3937804.33749   3083519.38447  20968946.510    20968955.918
       243.000         207.000
  24158909.432     4714315.72349   3682890.83945  24158909.595    24158927.373
       211.000         146.000
  22652663.636   -10140644.76949  -7862698.93546  22652662.498    22652674.551
       228.000         185.000
  21704668.431    -4756844.47749  -3682381.13947  21704668.501    21704679.300
       235.000         192.000
  21340316.774   -12161647.12949  -1227330.96247  21340317.116    21340325.337
       243.000         202.000
 00  1 11 18 57 30.0000000  0  8G 1G27G19G18G 3G 2G31G13
  23993133.152    11525885.57449   8985944.04245  23993134.109    23993145.776
       218.000         143.000
  21233937.411    -8945460.38649  -6944217.78747  21233937.141    21233946.971
       240.000         206.000
  20588816.276    -3330719.22149  -2576649.67748  20588816.389    20588826.116
       245.000         213.000
  20982602.875     4009569.57949   3139440.27447  20982602.596    20982612.211
       242.000         207.000
  24173131.253     4789051.01449   3741125.73945  24173130.970    24173149.967
       209.000         145.000
  22641418.187   -10199738.48749  -7908745.85946  22641417.133    22641429.264
       227.000         184.000
  21708298.033    -4737771.03449  -3667518.77147  21708297.069    21708308.370
       233.000         190.000
  21329727.118   -12217296.59349  -1270694.14947  21329727.217    21329735.222
       243.000         204.000
 00  1 11 18 58  0.0000000  0  8G 1G27G19G18G 3G 2G31G13
  24012976.328    11630161.41849   9067197.72045  24012976.322    24012988.675
       214.000         140.000
  21225288.354    -8990911.27949  -6979634.06247  21225288.339    21225297.804
       241.000         206.000
  20588843.527    -3330576.48349  -2576538.48348  20588843.370    20588853.368
       245.000         213.000
  20996335.657     4081736.11149   3195673.86647  20996335.070    20996344.991
       241.000         206.000
  24187423.467     4864154.92349   3799647.90045  24187423.905    24187443.248
       211.000         146.000
  22630220.589   -10258581.84249  -7954597.72446  22630219.555    22630232.025
       228.000         185.000
  21712041.077    -4718099.51649  -3652190.38447  21712039.948    21712052.117
       231.000         189.000
  21319216.534   -12272530.12249  -1313733.23147  21319216.583    21319224.599
       243.000         205.000
 00  1 11 18 58 30.0000000  0  8G 1G27G19G18G 3G 2G31G13
  24032847.855    11734586.75849   9148567.82145  24032847.316    24032862.725
       217.000         142.000
  21216660.745    -9036250.33249  -7014963.18647  21216660.222    21216670.170
       240.000         206.000
  20588915.702    -3330197.68049  -2576243.34048  20588915.500    20588925.160
       246.000         213.000
  21010143.914     4154298.98249   3252216.28247  21010143.870    21010153.939
       243.000         207.000
  24201786.245     4939630.17349   3858459.35845  24201785.163    24201805.499
       209.000         146.000
  22619070.517   -10317175.24349  -8000254.81946  22619069.974    22619081.500
       229.000         186.000
  21715899.047    -4697825.10849  -3636392.21347  21715898.216    21715909.881
       232.000         188.000
  21308788.406   -12327330.56949  -1356434.83747  21308788.453    21308796.768
       243.000         204.000
 00  1 11 18 59  0.0000000  0  8G 1G27G19G18G 3G 2G31G13
  24052748.441    11839163.15149   9230055.55445  24052749.338    24052766.036
       213.000         145.000
  21208055.868    -9081469.37949  -7050198.80147  21208055.489    21208065.239
       239.000         206.000
  20589032.125    -3329586.36349  -2575767.02347  20589031.850    20589041.568
       245.000         212.000
  21024030.629     4227272.91349   3309079.00047  21024030.736    21024040.476
       243.000         208.000
  24216219.679     5015479.07449   3917562.04145  24216218.761    24216239.086
       209.000         145.000
  22607967.765   -10375521.33249  -8045719.22347  22607967.370    22607978.926
       231.000         188.000
  21719871.628    -4676949.79349  -3620125.80547  21719871.096    21719882.131
       233.000         189.000
  21298442.359   -12381698.87549  -1398799.70647  21298442.285    21298450.798
       242.000         203.000
 00  1 11 18 59 30.0000000  0  8G 1G27G19G18G 3G 2G31G13
  24072678.976    11943895.54749   9311664.83845  24072680.320    24072695.481
       215.000         149.000
  21199475.294    -9126560.60349  -7085334.81747  21199474.769    21199484.506
       240.000         206.000
  20589195.539    -3328727.76649  -2575098.01947  20589195.327    20589205.042
       245.000         212.000
  21037995.590     4300658.98849   3366262.87547  21037995.129    21038004.746
       242.000         207.000
  24230722.150     5091688.85849   3976945.81945  24230721.970    24230740.470
       210.000         144.000
  22596912.214   -10433618.79149  -8090989.87546  22596911.863    22596922.983
       230.000         187.000
  21723960.238    -4655464.68649  -3603384.23647  21723959.186    21723970.789
       234.000         189.000
  21288177.269   -12435641.86549  -1440833.16247  21288176.912    21288186.013
       240.000         202.000
 00  1 11 19  0  0.0000000  0  8G 1G27G19G18G 3G 2G31G13
  24092637.743    12048777.71049   9393390.85845  24092636.905    24092655.160
       210.000         151.000
  21190921.431    -9171511.40149  -7120361.40747  21190920.611    21190930.945
       239.000         206.000
  20589405.156    -3327626.53849  -2574239.95548  20589405.002    20589414.783
       246.000         213.000
  21052042.403     4374475.48949   3423782.14547  21052042.174    21052051.604
       242.000         206.000
  24245293.030     5168258.34949   4036609.96945  24245292.633    24245312.871
       206.000         144.000
  22585904.655   -10491463.48449  -8136063.55246  22585903.275    22585916.047
       229.000         187.000
  21728168.951    -4633347.13949  -3586149.86947  21728168.092    21728179.647
       232.000         189.000
  21277995.481   -12489147.23249  -1482525.61247  21277995.810    21278003.954
       241.000         202.000
 00  1 11 19  0 30.0000000  0  8G 1G27G19G18G 3G 2G31G13
  24112624.710    12153812.76449   9475235.98745  24112624.038    24112642.307
       207.000         149.000
  21182393.863    -9216323.61449  -7155280.01247  21182393.494    21182403.474
       240.000         206.000
  20589658.724    -3326294.85849  -2573202.32048  20589658.656    20589668.237
       245.000         213.000
  21066176.274     4448748.93349   3481657.47047  21066176.160    21066186.021
       242.000         206.000
  24259934.112     5245199.29149   4096563.65945  24259932.968    24259955.005
       204.000         144.000
  22574945.802   -10549052.55549  -8180938.07947  22574944.751    22574957.435
       230.000         188.000
  21732499.920    -4610587.29149  -3568415.01547  21732500.213    21732510.775
       234.000         189.000
  21267898.363   -12542207.86849  -1523871.51547  21267898.200    21267906.825
       241.000         202.000
 00  1 11 19  1  0.0000000  0  8G 1G27G19G18G 3G 2G31G13
  24132644.333    12259015.28149   9557211.58545  24132645.167    24132662.410
       211.000         144.000
  21173893.280    -9260995.26749  -7190089.11147  21173893.239    21173902.748
       240.000         207.000
  20589957.340    -3324725.68849  -2571979.63447  20589956.530    20589966.501
       244.000         212.000
  21080397.931     4523484.40949   3539892.81847  21080397.594    21080407.813
       240.000         206.000
  24274646.154     5322511.93849   4156806.93945  24274648.071    24274667.409
       207.000         145.000
  22564036.018   -10606383.83549  -8225611.70147  22564035.363    22564046.717
       232.000         189.000
  21736952.658    -4587189.74849  -3550183.25247  21736952.701    21736964.214
       234.000         190.000
  21257884.334   -12594831.12649  -1564876.61847  21257884.233    21257892.847
       241.000         203.000
 00  1 11 19  1 30.0000000  0  8G 1G27G19G18G 3G 2G31G13
  24152694.616    12364376.14549   9639310.64745  24152696.756    24152710.151
       214.000         144.000
  21165418.292    -9305531.95249  -7224793.03647  21165417.596    21165427.388
       240.000         207.000
  20590302.443    -3322911.72049  -2570566.20447  20590302.130    20590311.945
       245.000         211.000
  21094704.543     4598666.09249   3598475.86447  21094704.590    21094714.639
       240.000         206.000
  24289431.035     5400203.51449   4217345.50645  24289433.205    24289452.444
       210.000         146.000
  22553173.428   -10663467.02949  -8270092.01247  22553172.234    22553184.213
       232.000         190.000
  21741526.337    -4563155.20149  -3531455.11347  21741525.795    21741538.030
       233.000         191.000
  21247955.308   -12647008.44549  -1605534.24247  21247955.766    21247964.351
       243.000         204.000
 00  1 11 19  2  0.0000000  0  8G 1G27G19G18G 3G 2G31G13
  24172772.684    12469883.94849   9721524.21745  24172771.429    24172790.252
       215.000         146.000
  21156970.020    -9349927.22749  -7259386.77347  21156969.445    21156979.490
       239.000         206.000
  20590691.011    -3320870.04949  -2568975.35547  20590691.171    20590700.725
       246.000         212.000
  21109095.916     4674292.70349   3657405.60647  21109096.037    21109105.524
       240.000         205.000
  24304291.226     5478290.25149   4278191.91645  24304292.748    24304311.862
       211.000         147.000
  22542356.254   -10720311.96749  -8314386.70647  22542355.002    22542367.363
       230.000         189.000
  21746218.250    -4538498.81049  -3512242.44447  21746218.506    21746230.309
       234.000         191.000
  21238113.075   -12698730.55649  -1645837.15947  21238113.040    21238121.811
       242.000         205.000
 00  1 11 19  2 30.0000000  0  8G 1G27G19G18G 3G 2G31G13
  24192877.056    12575533.32849   9803848.05345  24192876.560    24192894.509
       208.000         146.000
  21148549.009    -9394179.71349  -7293869.25247  21148548.694    21148558.437
       241.000         206.000
  20591126.127    -3318584.17149  -2567194.20048  20591125.570    20591136.113
       244.000         213.000
  21123571.219     4750360.98049   3716679.49747  21123570.856    21123580.920
       240.000         204.000
  24319226.795     5556773.52049   4339347.33645  24319228.768    24319247.438
       212.000         148.000
  22531583.645   -10776921.73149  -8358498.13147  22531583.639    22531594.935
       233.000         191.000
  21751024.512    -4513243.22149  -3492562.87947  21751024.539    21751035.154
       234.000         191.000
  21228356.974   -12749998.60349  -1685786.26447  21228356.924    21228365.714
       241.000         205.000
 00  1 11 19  3  0.0000000  0  8G 1G27G19G18G 3G 2G31G13
  24213007.049    12681317.46349   9886276.84345  24213007.444    24213025.027
       207.000         143.000
  21140158.399    -9438272.84549  -7328227.56447  21140158.073    21140167.902
       242.000         207.000
  20591610.212    -3316039.94049  -2565211.71347  20591609.645    20591619.930
       244.000         212.000
  21138129.900     4826867.04149   3776294.52847  21138129.677    21138140.355
       240.000         205.000
  24334236.701     5635646.90649   4400806.74545  24334238.987    24334256.168
       215.000         148.000
  22520857.342   -10833289.40349  -8402420.89847  22520856.406    22520867.585
       233.000         193.000
  21755946.477    -4487379.56749  -3472409.48747  21755946.532    21755957.180
       235.000         191.000
  21218689.622   -12800801.04249  -1725372.55547  21218689.367    21218698.491
       240.000         205.000
 00  1 11 19  3 30.0000000  0  8G 1G27G19G18G 3G 2G31G13
  24233161.450    12787227.91149   9968804.11945  24233160.572    24233180.324
       203.000         140.000
  21131800.876    -9482192.15049  -7362450.43447  21131800.759    21131810.390
       241.000         207.000
  20592143.545    -3313237.50049  -2563028.04047  20592143.845    20592153.136
       245.000         212.000
  21152771.820     4903810.41749   3836250.30747  21152771.841    21152781.490
       241.000         205.000
  24349319.828     5714903.89449   4462565.09045  24349321.815    24349338.858
       215.000         149.000
  22510177.966   -10889409.22349  -8446150.53347  22510175.700    22510188.268
       229.000         191.000
  21760985.130    -4460901.84949  -3451777.59847  21760984.574    21760996.098
       234.000         190.000
  21209113.713   -12851122.50249  -1764584.04147  21209113.876    21209122.426
       240.000         205.000
 00  1 11 19  4  0.0000000  0  8G 1G27G19G18G 3G 2G31G13
  24253342.316    12893277.48749  10051439.78845  24253339.123    24253359.445
       195.000         138.000
  21123474.664    -9525946.38449  -7396544.66747  21123474.113    21123484.014
       240.000         207.000
  20592725.732    -3310178.81849  -2560644.70647  20592725.503    20592734.785
       245.000         212.000
  21167502.089     4981217.96849   3896567.78347  21167502.443    21167511.719
       242.000         205.000
  24364471.201     5794521.11049   4524604.21445  24364471.407    24364490.692
       210.000         148.000
  22499549.971   -10945257.95349  -8489668.95247  22499548.597    22499560.864
       232.000         189.000
  21766141.264    -4433806.33149  -3430664.30647  21766140.584    21766152.753
       231.000         189.000
  21199629.996   -12900959.31049  -1803417.87247  21199630.032    21199638.675
       239.000         205.000
 00  1 11 19  4 30.0000000  0  9G 1G27G19G18G 3G10G 2G31G13
  24273551.547    12999482.07048  10134196.26645  24273548.402    24273571.992
       190.000         137.000
  21115179.241    -9569538.41049  -7430512.49847  21115178.976    21115188.913
       240.000         207.000
  20593359.447    -3306848.40449  -2558049.61947  20593359.204    20593369.168
       244.000         211.000
  21182322.290     5059097.43849   3957253.00947  21182322.563    21182332.262
       243.000         205.000
  24379686.043     5874476.09649   4586906.49145  24379684.705    24379705.434
       209.000         147.000
                  -1043380.80649   -805824.22943
       206.000          74.000
  22488976.210   -11000824.07649  -8532967.16047  22488975.726    22488987.419
       234.000         192.000
  21771419.569    -4406067.25649  -3409049.53747  21771418.940    21771431.070
       233.000         189.000
  21190240.552   -12950301.11249  -1841866.00247  21190240.502    21190249.441
       241.000         206.000
 00  1 11 19  5  0.0000000  0  9G 1G27G19G18G 3G10G 2G31G13
  24293793.485    13105859.86648  10217087.75645  24293791.888    24293817.430
       185.000         133.000
  21106915.103    -9612967.08749  -7464353.04147  21106914.687    21106925.022
       239.000         207.000
  20594041.695    -3303263.31749  -2555256.08147  20594041.712    20594051.717
       245.000         212.000
  21197231.963     5137447.00549   4018304.53347  21197231.872    21197241.616
       241.000         204.000
  24394965.285     5954769.06949   4649472.20245  24394965.247    24394984.440
       210.000         146.000
                  -1047654.18049   -809154.25843
       208.000          74.000
  22478458.183   -11056097.14549  -8576037.00047  22478457.148    22478468.922
       234.000         194.000
  21776823.207    -4377671.86249  -3386923.34947  21776823.089    21776835.311
       233.000         189.000
  21180944.299   -12999153.04549  -1879932.43747  21180944.747    21180953.197
       244.000         207.000
 00  1 11 19  5 30.0000000  0  9G 1G27G19G18G 3G10G 2G31G13
  24314069.599    13212414.96048  10300117.31844  24314069.760    24314094.776
       192.000         130.000
  21098678.091    -9656252.60349  -7498082.01047  21098677.380    21098687.837
       240.000         208.000
  20594770.746    -3299432.43749  -2552271.01948  20594770.837    20594780.234
       245.000         213.000
  21212227.865     5216251.10349   4079710.22147  21212227.520    21212237.843
       240.000         204.000
  24410307.749     6035394.95649   4712297.31345  24410307.396    24410327.764
       211.000         146.000
                  -1051409.59449   -812080.64243
       204.000          74.000
  22467993.848   -11111087.01449  -8618886.17147  22467992.442    22468004.030
       232.000         192.000
  21782346.784    -4348645.48049  -3364305.46747  21782345.986    21782358.147
       231.000         189.000
  21171738.566   -13047530.21549  -1917628.92347  21171738.960    21171746.898
       243.000         207.000
 00  1 11 19  6  0.0000000  0  9G 1G27G19G18G 3G10G 2G31G13
  24334379.406    13319144.35658  10383282.65744  24334376.622    24334402.558
       168.000         125.000
  21090465.617    -9699409.23349  -7531710.55047  21090465.255    21090475.480
       239.000         208.000
  20595545.817    -3295359.79049  -2549097.56747  20595545.650    20595555.279
       245.000         212.000
  21227306.955     5295491.92349   4141456.21047  21227306.901    21227317.018
       241.000         205.000
  24425713.317     6116353.31249   4775381.40345  24425712.651    24425733.945
       208.000         145.000
                  -1054649.89649   -814605.49544                  24075358.770
       199.000         111.000
  22457580.730   -11165806.86849  -8661524.95547  22457578.762    22457591.229
       230.000         191.000
  21787987.423    -4319002.34849  -3341206.99447  21787986.821    21787998.593
       232.000         188.000
  21162621.491   -13095441.03349  -1954962.01947  21162621.372    21162629.558
       240.000         206.000
 00  1 11 19  6 30.0000000  0  9G 1G27G19G18G 3G10G 2G31G13
  24354719.092    13426021.16648  10466562.96444  24354722.666    24354739.397
       183.000         123.000
  21082277.345    -9742439.05549  -7565240.27947  21082277.383    21082286.951
       241.000         208.000
  20596364.448    -3291057.84149  -2545745.44147  20596364.324    20596373.969
       244.000         212.000
  21242460.067     5375121.41649   4203505.07047  21242459.311    21242469.730
       240.000         205.000
  24441183.794     6197651.98949   4838730.61045  24441184.550    24441205.037
       204.000         144.000
  24074820.095    -1057404.18449   -816751.76844  24074822.247    24074838.994
       197.000         122.000
  22447213.697   -11220285.47649  -8703975.72847  22447213.048    22447225.212
       232.000         193.000
  21793740.727    -4288768.59349  -3317648.30647  21793740.078    21793752.304
       231.000         188.000
  21153587.756   -13142912.90749  -1991953.08247  21153587.696    21153596.235
       241.000         204.000
 00  1 11 19  7  0.0000000  0  9G 1G27G19G18G 3G10G 2G31G13
  24375078.928    13533007.73549  10549928.79944  24375078.754    24375100.154
       198.000         130.000
  21074112.049    -9785348.99849  -7598676.58747  21074111.906    21074121.801
       240.000         209.000
  20597224.374    -3286538.74149  -2542224.10147  20597224.338    20597234.448
       245.000         212.000
  21257682.232     5455115.23049   4265837.81547  21257682.113    21257692.586
       240.000         203.000
  24456721.617     6279302.69849   4902354.20745  24456722.643    24456741.727
       210.000         141.000
  24074382.485    -1059709.11549   -818547.89044  24074383.411    24074398.849
       197.000         121.000
  22436890.001   -11274537.65449  -8746250.07947  22436889.335    22436900.405
       234.000         194.000
  21799600.434    -4257975.65949  -3293653.88947  21799600.451    21799612.431
       232.000         188.000
  21144634.613   -13189961.54149  -2028614.34447  21144634.904    21144643.151
       242.000         205.000
 00  1 11 19  7 30.0000000  0  9G 1G27G19G18G 3G10G 2G31G13
  24395459.203    13640103.68749  10633379.82945  24395459.125    24395479.193
       202.000         135.000
  21065973.760    -9828115.91949  -7632001.44947  21065973.470    21065983.139
       240.000         208.000
  20598131.479    -3281772.21849  -2538509.95647  20598131.121    20598141.401
       244.000         212.000
  21272977.407     5535491.84849   4328468.84947  21272977.284    21272986.857
       240.000         203.000
  24472330.181     6361323.51349   4966266.25045  24472331.158    24472351.466
       209.000         141.000
  24074034.910    -1061537.81249   -819972.90744  24074036.371    24074050.439
       202.000         127.000
  22426610.703   -11328555.41649  -8788341.78247  22426609.991    22426620.727
       234.000         194.000
  21805569.837    -4226606.62949  -3269210.54747  21805568.869    21805581.915
       231.000         188.000
  21135767.519   -13236558.37949  -2064923.56947  21135768.092    21135776.161
       243.000         207.000
 00  1 11 19  8  0.0000000  0  9G 1G27G19G18G 3G10G 2G31G13
  24415860.134    13747311.17448  10716917.81245  24415859.372    24415883.000
       193.000         132.000
  21057866.300    -9870720.54449  -7665199.84847  21057865.823    21057875.682
       241.000         208.000
  20599087.911    -3276745.95849  -2534593.41447  20599087.608    20599097.369
       244.000         211.000
  21288349.736     5616273.13749   4391415.22047  21288350.432    21288359.602
       242.000         203.000
  24488011.014     6443724.22349   5030474.28045  24488010.543    24488031.880
       208.000         139.000
  24073782.766    -1062864.81549   -821006.98444  24073783.437    24073797.885
       200.000         130.000
  22416378.755   -11382323.32049  -8830238.78647  22416377.235    22416389.118
       231.000         192.000
  21811654.768    -4194629.53949  -3244293.40147  21811654.536    21811667.360
       232.000         188.000
  21126988.876   -13282691.11549  -2100871.14347  21126989.120    21126997.470
       243.000         209.000
 00  1 11 19  8 30.0000000  0  9G 1G27G19G18G 3G10G 2G31G13
  24436282.064    13854630.54348  10800542.91344  24436279.076    24436303.071
       189.000         130.000
  21049791.125    -9913155.57349  -7698266.08447  21049790.673    21049800.818
       242.000         208.000
  20600095.071    -3271452.96049  -2530469.01947  20600094.731    20600104.945
       245.000         211.000
  21303801.549     5697472.15049   4454687.07647  21303801.045    21303812.062
       239.000         202.000
  24503764.006     6526507.80549   5094980.68445  24503763.348    24503784.657
       204.000         138.000
  24073627.361    -1063682.47249   -821644.10245  24073627.305    24073644.252
       199.000         132.000
  22406196.447   -11435830.37149  -8871932.53047  22406196.223    22406207.569
       233.000         192.000
  21817858.002    -4162032.33349  -3218893.03547  21817857.751    21817870.686
       231.000         188.000
  21118299.438   -13328354.25449  -2136452.80647  21118299.456    21118307.991
       241.000         208.000
 00  1 11 19  9  0.0000000  0  9G 1G27G19G18G 3G10G 2G31G13
  24456725.660    13962068.79248  10884260.68144  24456723.633    24456748.035
       190.000         131.000
  21041745.687    -9955434.65749  -7731210.80847  21041745.533    21041755.390
       242.000         208.000
  20601151.108    -3265903.49549  -2526144.78847  20601150.780    20601161.278
       244.000         211.000
  21319334.077     5779096.15649   4518290.11347  21319333.742    21319344.508
       239.000         202.000
  24519584.203     6609646.35949   5159763.66945  24519584.745    24519607.566
       201.000         138.000
  24073571.779    -1063974.90349   -821871.97745  24073571.034    24073588.427
       202.000         133.000
  22396062.965   -11489082.74149  -8913427.83447  22396062.638    22396073.572
       234.000         193.000
  21824178.546    -4128818.49249  -3193012.17347  21824178.546    21824190.684
       232.000         188.000
  21109700.513   -13373541.55049  -2171663.66147  21109700.448    21109709.206
       240.000         207.000
 00  1 11 19  9 30.0000000  0  9G 1G27G19G18G 3G10G 2G31G13
  24477196.527    14069645.01449  10968085.88645  24477196.759    24477221.041
       202.000         136.000
  21033726.480    -9997576.07249  -7764048.26647  21033726.354    21033736.078
       242.000         209.000
  20602252.421    -3260115.94749  -2521635.03047  20602252.427    20602262.958
       243.000         212.000
  21334946.057     5861137.23449   4582218.11547  21334945.854    21334956.371
       240.000         202.000
  24535466.404     6693107.66949   5224798.14845  24535466.430    24535489.292
       205.000         137.000
  24073618.701    -1063729.53249   -821680.80745  24073618.671    24073634.096
       203.000         135.000
  22385977.050   -11542085.02249  -8954728.23547  22385976.751    22385987.154
       236.000         193.000
  21830614.282    -4094999.27149  -3166659.57647  21830614.730    21830625.738
       233.000         188.000
  21101189.719   -13418265.53249  -2206513.50147  21101190.120    21101198.238
       241.000         206.000
 00  1 11 19 10  0.0000000  0  9G 1G27G19G18G 3G10G 2G31G13
  24497693.200    14177348.64149  11052010.35045  24497696.328    24497715.151
       206.000         139.000
  21025732.944   -10039582.68249  -7796780.68347  21025732.718    21025742.425
       241.000         209.000
  20603395.471    -3254109.61149  -2516954.78847  20603395.206    20603405.670
       244.000         212.000
  21350632.189     5943568.51249   4646450.17747  21350632.345    21350642.694
       240.000         202.000
  24551406.705     6776874.05649   5290070.23945  24551407.714    24551428.261
       206.000         135.000
  24073764.432    -1062964.16949   -821084.45845  24073765.659    24073777.690
       206.000         136.000
  22375937.721   -11594842.33949  -8995837.76147  22375936.521    22375947.066
       233.000         192.000
  21837163.094    -4060586.49949  -3139844.48047  21837162.527    21837174.330
       232.000         188.000
  21092765.941   -13462533.08349  -2241007.69347  21092766.642    21092774.387
       243.000         207.000
 00  1 11 19 10 30.0000000  0  9G 1G27G19G18G 3G10G 2G31G13
  24518213.667    14285178.65249  11136033.29445  24518214.004    24518235.417
       200.000         135.000
  21017765.705   -10081451.72449  -7829405.88447  21017765.284    21017775.315
       241.000         209.000
  20604579.553    -3247886.93049  -2512105.96747  20604579.267    20604589.400
       244.000         211.000
  21366389.427     6026372.05749   4710972.33147  21366389.316    21366399.485
       240.000         202.000
  24567404.920     6860941.65649   5355577.06745  24567404.909    24567425.643
       206.000         135.000
  24074007.852    -1061685.77349   -820088.33045  24074006.512    24074022.058
       206.000         135.000
  22365943.231   -11647362.64349  -9036762.62247  22365942.130    22365953.832
       233.000         192.000
  21843821.522    -4025596.03649  -3112579.24247  21843821.127    21843833.037
       232.000         188.000
  21084429.891   -13506340.27149  -2275143.16247  21084430.013    21084438.430
       244.000         207.000
 00  1 11 19 11  0.0000000  0  9G 1G27G19G18G 3G10G 2G31G13
  24538755.107    14393126.10049  11220147.75244  24538752.275    24538776.787
       196.000         131.000
  21009826.699   -10123171.55649  -7861914.81847  21009826.150    21009836.167
       240.000         208.000
  20605804.483    -3241450.16649  -2507090.32347  20605804.428    20605814.594
       244.000         211.000
  21382215.156     6109536.73449   4775775.88347  21382215.390    21382226.061
       239.000         201.000
  24583459.608     6945307.03649   5421316.02245  24583461.254    24583482.109
       207.000         135.000
  24074347.681    -1059900.11949   -818696.96345  24074347.826    24074363.324
       209.000         137.000
  22355993.247   -11699650.15749  -9077506.08147  22355992.978    22356003.512
       235.000         194.000
  21850591.258    -3990021.15149  -3084858.62747  21850591.041    21850602.956
       233.000         188.000
  21076181.338   -13549686.72449  -2308919.60847  21076181.553    21076190.019
       242.000         209.000
 00  1 11 19 11 30.0000000  0  9G 1G27G19G18G 3G10G 2G31G13
  24559313.585    14501162.09649  11304331.21544  24559313.601    24559338.298
       195.000         130.000
  21001918.549   -10164728.65949  -7894296.95147  21001917.685    21001928.239
       239.000         208.000
  20607072.537    -3234786.33449  -2501897.74847  20607072.581    20607082.966
       244.000         211.000
  21398107.499     6193051.06249   4840851.87547  21398107.149    21398117.831
       237.000         201.000
  24599572.469     7029978.40649   5487293.37245  24599571.951    24599594.217
       206.000         135.000
  24074781.351    -1057622.00049   -816921.85945  24074779.767    24074796.159
       202.000         134.000
  22346089.186   -11751696.40549  -9118061.52947  22346088.765    22346099.200
       235.000         194.000
  21857472.980    -3953857.80249  -3056679.45847  21857472.926    21857484.797
       233.000         188.000
  21068020.763   -13592570.61349  -2342335.59247  21068020.873    21068029.360
       242.000         210.000
 00  1 11 19 12  0.0000000  0  9G 1G27G19G18G 3G10G 2G31G13
  24579887.551    14609271.00549  11388571.47444  24579888.567    24579908.950
       200.000         130.000
  20994045.809   -10206099.46449  -7926533.92647  20994045.075    20994055.450
       240.000         208.000
  20608390.573    -3227860.32149  -2496500.86847  20608390.588    20608400.667
       245.000         212.000
  21414066.744     6276917.43349   4906202.19647  21414066.930    21414077.590
       239.000         200.000
  24615747.607     7114979.41749   5553527.52445  24615748.182    24615769.195
       204.000         135.000
  24075308.155    -1054854.22949   -814765.21844  24075306.772    24075321.798
       198.000         130.000
  22336231.266   -11803499.70349  -9158427.66947  22336230.120    22336241.160
       234.000         192.000
  21864467.569    -3917102.10649  -3028038.72747  21864467.264    21864479.174
       232.000         188.000
  21059951.762   -13634973.78449  -2375376.98047  21059951.929    21059960.394
       243.000         210.000
 00  1 11 19 12 30.0000000  0  8G27G19G18G 3G10G 2G31G13
  20986203.899   -10247308.72949  -7958645.03647  20986203.584    20986213.512
       242.000         209.000
  20609760.822    -3220659.84849  -2490890.11847  20609760.400    20609770.672
       244.000         211.000
  21430094.742     6361143.93549   4971833.13647  21430094.854    21430105.889
       239.000         201.000
  24631984.408     7200303.43549   5620013.41045  24631984.792    24632007.892
       204.000         134.000
  24075928.629    -1051593.38148   -812224.25844  24075929.141    24075941.714
       194.000         127.000
  22326417.251   -11855072.63149  -9198614.31347  22326416.444    22326427.609
       234.000         192.000
  21871570.663    -3879775.34649  -2998953.01046  21871570.217    21871582.142
       232.000         187.000
  21051972.221   -13676906.38949  -2408051.71647  21051972.293    21051980.909
       242.000         210.000
 00  1 11 19 13  0.0000000  0  8G27G19G18G 3G10G 2G31G13
  20978399.942   -10288318.83449  -7990600.96047  20978399.776    20978409.702
       243.000         210.000
  20611192.897    -3213134.43449  -2485026.17347  20611193.228    20611202.984
       246.000         211.000
  21446201.287     6445784.28749   5037786.57447  21446200.664    21446211.883
       237.000         201.000
  24648289.439     7285982.84849   5686776.11645  24648288.885    24648310.866
       206.000         133.000
  24076649.970    -1047800.28249   -809268.59344  24076648.553    24076666.941
       197.000         126.000
  22316656.679   -11906364.70249  -9238582.08947  22316656.160    22316666.776
       235.000         194.000
  21878787.226    -3841852.22349  -2969402.59446  21878786.671    21878798.878
       231.000         187.000
  21044090.682   -13718324.15549  -2440325.27447  21044090.809    21044098.981
       242.000         208.000
 00  1 11 19 13 30.0000000  0  7G27G19G18G10G 2G31G13
  20970630.340   -10329148.78649  -8022416.50947  20970629.725    20970639.973
       242.000         210.000
  20612686.639    -3205285.77049  -2478910.33747  20612686.284    20612696.344
       244.000         211.000
  21462388.066     6530846.43449   5104068.66047  21462389.037    21462398.540
       240.000         201.000
  24077472.444    -1043480.07449   -805902.23444  24077471.783    24077487.918
       202.000         130.000
  22306949.143   -11957378.32949  -9278332.90947  22306948.281    22306959.323
       234.000         194.000
  21886111.035    -3803364.90049  -2939412.54346  21886110.361    21886122.718
       231.000         187.000
  21036309.371   -13759215.14249  -2472188.35347  21036309.396    21036317.168
       242.000         206.000
 00  1 11 19 14  0.0000000  0  7G27G19G18G10G 2G31G13
  20962902.428   -10369758.84949  -8054060.71647  20962902.065    20962911.802
       242.000         209.000
  20614249.166    -3197074.03349  -2472511.58547  20614248.803    20614259.260
       244.000         211.000
  21478667.727     6616395.16649   5170729.90847  21478667.528    21478677.943
       238.000         199.000
  24078405.530    -1038577.47649   -802082.05845  24078405.307    24078419.429
       207.000         133.000
  22297301.797   -12008075.02149  -9317836.75747  22297300.570    22297311.901
       234.000         193.000
  21893553.844    -3764252.60549  -2908935.51246  21893553.458    21893565.988
       231.000         187.000
  21028638.510   -13799525.59249  -2503599.07747  21028638.427    21028646.547
       242.000         206.000
 00  1 11 19 14 30.0000000  0  7G27G19G18G10G 2G31G13
  20955209.792   -10410184.03249  -8085560.85247  20955209.510    20955219.454
       241.000         209.000
  20615871.094    -3188550.34849  -2465869.75847  20615871.009    20615880.926
       245.000         211.000
  21495038.001     6702422.34349   5237763.97747  21495037.575    21495048.901
       237.000         198.000
  24079445.284    -1033115.03249   -797825.65945  24079444.747    24079461.463
       209.000         135.000
  22287710.875   -12058475.41549  -9357109.73447  22287710.659    22287721.363
       236.000         194.000
  21901114.829    -3724520.06749  -2877975.16346  21901114.434    21901126.379
       231.000         187.000
  21021075.297   -13839270.54549  -2534569.15347  21021075.262    21021083.928
       242.000         207.000
 00  1 11 19 15  0.0000000  0  7G27G19G18G10G 2G31G13
  20947551.426   -10450428.62649  -8116920.24747  20947551.102    20947561.605
       241.000         209.000
  20617543.675    -3179761.04349  -2459020.97347  20617543.522    20617553.274
       245.000         211.000
  21511493.746     6788897.10749   5305146.81347  21511493.843    21511503.838
       238.000         197.000
  24080585.334    -1027126.03549   -793158.97345  24080584.468    24080598.447
       209.000         134.000
  22278172.394   -12108600.69349  -9396168.33047  22278171.233    22278182.550
       233.000         195.000
  21908793.474    -3684169.51649  -2846533.24146  21908793.408    21908804.564
       232.000         187.000
  21013617.255   -13878462.54249  -2565108.35447  21013617.415    21013625.589
       242.000         208.000
 00  1 11 19 15 30.0000000  0  7G27G19G18G10G 2G31G13
  20939924.050   -10490511.06349  -8148153.28847  20939923.662    20939933.840
       242.000         210.000
  20619259.521    -3170744.44749  -2451995.06847  20619259.444    20619269.707
       244.000         211.000
  21528026.515     6875776.65649   5372845.06647  21528026.467    21528036.533
       238.000         197.000
  24081822.099    -1020628.47849   -788095.95645  24081820.063    24081836.726
       200.000         133.000
  22268679.378   -12158485.36149  -9435039.45647  22268678.365    22268689.651
       234.000         194.000
  21916590.018    -3643199.36749  -2814608.52346  21916590.380    21916601.743
       234.000         186.000
  21006258.318   -13917134.30549  -2595242.16647  21006258.590    21006266.571
       242.000         208.000
 00  1 11 19 16  0.0000000  0  7G27G19G18G10G 2G31G13
  20932323.953   -10530449.87849  -8179274.41847  20932323.834    20932333.681
       242.000         211.000
  20621014.216    -3161523.48749  -2444809.91147  20621014.309    20621024.478
       245.000         212.000
  21544627.132     6963013.69949   5440821.88147  21544626.545    21544637.586
       236.000         197.000
  24083150.018    -1013647.70949   -782656.46745  24083149.642    24083166.302
       199.000         133.000
  22259226.009   -12208162.82149  -9473749.12147  22259225.429    22259236.351
       236.000         195.000
  21924503.508    -3601614.07849  -2782204.47846  21924502.803    21924514.727
       232.000         186.000
  20998990.304   -13955327.63949  -2625003.16947  20998990.212    20998998.704
       242.000         208.000
 00  1 11 19 16 30.0000000  0  7G27G19G18G10G 2G31G13
  20924751.384   -10570244.04949  -8210282.85447  20924750.896    20924760.684
       243.000         211.000
  20622804.625    -3152115.61349  -2437479.10247  20622804.430    20622814.515
       244.000         212.000
  21561288.645     7050571.31649   5509048.49047  21561288.680    21561300.517
       237.000         198.000
  24084565.989    -1006205.55249   -776857.40645  24084563.104    24084579.150
       201.000         132.000
  22249810.461   -12257642.88549  -9512304.98247  22249810.057    22249820.637
       237.000         196.000
  21932527.941    -3559444.93949  -2749345.50146  21932526.718    21932539.767
       231.000         186.000
  20991809.604   -13993062.11949  -2654406.63547  20991809.673    20991817.676
       242.000         207.000
 00  1 11 19 17  0.0000000  0  7G27G19G18G10G 2G31G13
  20917208.567   -10609882.27849  -8241169.77547  20917208.268    20917217.885
       242.000         211.000
  20624634.768    -3142498.10549  -2429984.95047  20624634.603    20624644.168
       245.000         211.000
  21578007.649     7138429.52049   5577509.33447  21578007.806    21578018.252
       238.000         199.000
  24086069.377     -998304.02449   -770700.42845  24086068.901    24086083.009
       200.000         132.000
  22240435.130   -12306910.90249  -9550695.62247  22240433.898    22240445.144
       234.000         196.000
  21940662.719    -3516696.23849  -2716034.92846  21940662.485    21940674.649
       232.000         186.000
  20984715.181   -14030343.56749  -2683457.10047  20984715.234    20984723.483
       242.000         207.000
 00  1 11 19 17 30.0000000  0  7G27G19G18G10G 2G31G13
  20909694.191   -10649370.31949  -8271939.65347  20909694.090    20909703.600
       241.000         210.000
  20626508.341    -3132652.66549  -2422313.18647  20626508.066    20626518.095
       244.000         211.000
  21594784.031     7226589.41749   5646205.25847  21594784.342    21594794.260
       238.000         197.000
  24087659.461     -989948.74749   -764189.82445  24087659.330    24087674.241
       202.000         132.000
  22231101.490   -12355958.29449  -9588914.35147  22231100.429    22231111.861
       234.000         196.000
  21948907.627    -3473369.45049  -2682273.90146  21948907.408    21948920.387
       230.000         186.000
  20977706.723   -14067173.19449  -2712155.49647  20977706.836    20977715.255
       242.000         208.000
 00  1 11 19 18  0.0000000  0  7G27G19G18G10G 2G31G13
  20902210.410   -10688697.52449  -8302584.19047  20902209.921    20902219.635
       241.000         209.000
  20628426.882    -3122570.49249  -2414456.96247  20628426.797    20628436.832
       244.000         211.000
  21611622.246     7315074.73549   5715154.76947  21611622.095    21611633.082
       236.000         195.000
  24089335.890     -981137.64149   -757324.02744  24089334.511    24089350.679
       198.000         130.000
  22221814.204   -12404763.29149  -9626944.20547  22221813.908    22221824.806
       237.000         197.000
  21957261.448    -3429470.17149  -2648066.77446  21957261.244    21957273.358
       231.000         186.000
  20970787.298   -14103535.04649  -2740489.38147  20970787.416    20970796.052
       243.000         209.000
 00  1 11 19 18 30.0000000  0  7G27G19G18G10G 2G31G13
  20894759.517   -10727851.79749  -8333093.97447  20894758.999    20894768.662
       241.000         209.000
  20630392.096    -3112243.38749  -2406409.88747  20630391.877    20630401.930
       244.000         211.000
  21628526.787     7403908.13449   5784375.48347  21628527.152    21628538.030
       236.000         196.000
  24091099.471     -971869.98349   -750102.53344  24091096.121    24091113.716
       200.000         129.000
  22212578.246   -12453298.94749  -9664764.19947  22212577.423    22212588.561
       236.000         198.000
  21965722.726    -3385006.87749  -2613420.14846  21965722.497    21965734.317
       231.000         185.000
  20963961.006   -14139407.26549  -2768441.72747  20963961.082    20963969.772
       242.000         210.000
 00  1 11 19 19  0.0000000  0  7G27G19G18G10G 2G31G13
  20887340.687   -10766838.06349  -8363472.85447  20887340.065    20887349.925
       242.000         209.000
  20632407.170    -3101654.20349  -2398158.59747  20632406.542    20632416.950
       243.000         211.000
  21645503.667     7493121.61149   5853892.38847  21645503.080    21645513.733
       236.000         195.000
  24092952.394     -962133.02449   -742515.34744  24092950.997    24092966.134
       206.000         127.000
  22203393.946   -12501561.96649  -9702371.74947  22203393.101    22203404.487
       235.000         197.000
  21974292.869    -3339971.00149  -2578327.36746  21974292.964    21974303.475
       232.000         184.000
  20957230.170   -14174778.21249  -2796003.46547  20957230.321    20957238.721
       243.000         210.000
 00  1 11 19 19 30.0000000  0  7G27G19G18G10G 2G31G13
  20879955.156   -10805648.96549  -8393715.10147  20879954.558    20879964.554
       241.000         209.000
  20634471.792    -3090804.15449  -2389704.03847  20634471.962    20634481.589
       244.000         210.000
  21662554.969     7582726.63749   5923714.40147  21662554.795    21662565.279
       236.000         194.000
  24094897.165     -951914.68949   -734553.04245  24094897.070    24094911.359
       206.000         132.000
  22194259.639   -12549563.30649  -9739775.37147  22194259.024    22194269.932
       237.000         197.000
  21982969.412    -3294375.90449  -2542798.82346  21982968.268    21982981.017
       230.000         184.000
  20950596.596   -14209638.02849  -2823166.92647  20950596.694    20950604.893
       243.000         209.000
 00  1 11 19 20  0.0000000  0  7G27G19G18G10G 2G31G13
  20872605.811   -10844269.60349  -8423809.09047  20872605.356    20872615.261
       242.000         209.000
  20636590.484    -3079670.92349  -2381028.82547  20636590.266    20636600.368
       244.000         211.000
  21679682.646     7672732.66449   5993848.85547  21679682.898    21679693.553
       236.000         195.000
  24096936.680     -941197.65249   -726202.18445  24096934.879    24096952.534
       207.000         138.000
  22185174.882   -12597304.36249  -9776976.17747  22185173.904    22185185.385
       236.000         197.000
  21991750.451    -3248230.82949  -2506841.74246  21991749.998    21991762.897
       230.000         184.000
  20944062.782   -14243973.42449  -2849921.75447  20944062.717    20944071.005
       243.000         209.000
 00  1 11 19 20 30.0000000  0  7G27G19G18G10G 2G31G13
  20865293.856   -10882694.37449  -8453750.44247  20865293.238    20865302.978
       241.000         209.000
  20638768.173    -3068227.27349  -2372111.72247  20638767.778    20638778.054
       244.000         211.000
  21696888.492     7763148.75649   6064302.83647  21696888.527    21696899.581
       236.000         195.000
  24099073.201     -929969.51949   -717453.01545  24099072.100    24099088.814
       210.000         143.000
  22176137.263   -12644797.46349  -9813983.79547  22176136.630    22176147.971
       237.000         198.000
  22000639.002    -3201521.18349  -2470444.75046  22000638.005    22000651.613
       230.000         184.000
  20937632.491   -14277764.83149  -2876252.70047  20937632.649    20937640.749
       244.000         210.000
 00  1 11 19 21  0.0000000  0  7G27G19G18G10G 2G31G13
  20858019.847   -10920919.40149  -8483536.14347  20858019.164    20858029.317
       240.000         209.000
  20641005.884    -3056467.62649  -2362948.38547  20641005.849    20641015.888
       244.000         210.000
  21714172.493     7853977.04149   6135078.04547  21714172.221    21714183.717
       237.000         194.000
  24101309.404     -918218.85649   -708296.67745  24101308.132    24101326.627
       208.000         146.000
  22167144.577   -12692054.26649  -9850807.27447  22167143.726    22167154.959
       237.000         199.000
  22009636.401    -3154239.58949  -2433602.06446  22009636.006    22009648.624
       230.000         185.000
  20931305.002   -14311016.08849  -2902162.74747  20931304.959    20931312.986
       243.000         210.000
 00  1 11 19 21 30.0000000  0  7G27G19G18G10G 2G31G13
  20850784.362   -10958942.06949  -8513164.15547  20850783.823    20850794.010
       240.000         209.000
  20643303.145    -3044395.57449  -2353541.62947  20643303.368    20643312.826
       245.000         210.000
  21731531.268     7945197.61849   6206158.90947  21731532.003    21731542.734
       238.000         195.000
  24103644.833     -905944.34749   -698732.19545  24103645.074    24103660.303
       201.000         144.000
  22158197.714   -12739070.17049  -9887443.03347  22158196.989    22158207.977
       236.000         199.000
  22018741.612    -3106391.93549  -2396318.28846  22018742.022    22018754.376
       231.000         185.000
  20925080.025   -14343728.29949  -2927652.73247  20925079.619    20925088.044
       241.000         209.000
 00  1 11 19 22  0.0000000  0  7G27G19G18G10G 2G31G13
  20843584.746   -10996775.80449  -8542644.95747  20843584.307    20843594.294
       242.000         209.000
  20645657.796    -3032022.76549  -2343900.52147  20645657.669    20645667.635
       245.000         210.000
  21748964.803     8036810.00949   6277545.07947  21748964.275    21748975.779
       236.000         196.000
  24106078.402     -893156.27649   -688767.49345  24106075.971    24106092.265
       200.000         139.000
  22149296.845   -12785843.87349  -9923890.05547  22149295.971    22149307.059
       236.000         198.000
  22027955.724    -3057972.64249  -2358589.06446  22027955.244    22027967.697
       230.000         185.000
  20918956.056   -14375909.03549  -2952728.58447  20918955.938    20918964.620
       242.000         209.000
 00  1 11 19 22 30.0000000  0  7G27G19G18G10G 2G31G13
  20836417.326   -11034441.17949  -8571994.58347  20836417.229    20836426.757
       243.000         209.000
  20648060.869    -3019394.78849  -2334060.57547  20648060.385    20648070.814
       244.000         210.000
  21766468.236     8128791.47649   6349218.84247  21766468.467    21766479.872
       237.000         195.000
  24108607.330     -879866.51749   -678411.86545  24108607.688    24108619.671
       203.000         134.000
  22140441.010   -12832381.16849  -9960152.84647  22140440.222    22140452.036
       236.000         198.000
  22037278.494    -3008981.08449  -2320413.92946  22037277.620    22037289.791
       230.000         183.000
  20912930.669   -14407572.90849  -2977401.69547  20912930.949    20912939.217
       243.000         210.000
 00  1 11 19 23  0.0000000  0  7G27G19G18G10G 2G31G13
  20829278.794   -11071955.34149  -8601226.39347  20829278.750    20829287.966
       243.000         210.000
  20650506.131    -3006544.46749  -2324047.38547  20650506.152    20650515.957
       244.000         210.000
  21784033.548     8221096.42049   6421144.64547  21784033.877    21784045.043
       235.000         195.000
  24111228.736     -866091.15749   -667677.86045  24111228.534    24111244.955
       207.000         135.000
  22131631.409   -12878676.16349  -9996226.84747  22131631.211    22131641.984
       238.000         200.000
  22046705.712    -2959440.49549  -2281810.97746  22046705.224    22046718.010
       229.000         182.000
  20906999.612   -14438740.95949  -3001688.45947  20906999.405    20907007.642
       244.000         210.000
 00  1 11 19 23 30.0000000  0  7G27G19G18G10G 2G31G13
  20822165.805   -11109335.01549  -8630353.40347  20822165.425    20822174.829
       242.000         210.000
  20652991.038    -2993486.47949  -2313872.37547  20652991.252    20653001.015
       244.000         210.000
  21801654.073     8313692.66849   6493297.44547  21801653.759    21801664.633
       236.000         194.000
  24113940.701     -851842.66249   -656575.23645  24113939.647    24113955.320
       206.000         138.000
  22122866.855   -12924734.70149 -10032116.59147  22122865.819    22122877.462
       236.000         199.000
  22056235.769    -2909359.54749  -2242786.97146  22056235.866    22056248.374
       230.000         183.000
  20901162.069   -14469416.87449  -3025591.74647  20901162.296    20901170.581
       243.000         210.000
 00  1 11 19 24  0.0000000  0  7G27G19G18G10G 2G31G13
  20815079.569   -11146573.23049  -8659370.17247  20815078.931    20815088.685
       242.000         210.000
  20655514.936    -2980223.52649  -2303537.65047  20655514.455    20655524.770
       243.000         210.000
  21819326.789     8406564.49249   6565664.99547  21819326.405    21819337.841
       235.000         192.000
  24116738.432     -837138.31049   -645117.36045  24116737.520    24116752.312
       204.000         137.000
  22114145.495   -12970565.59349 -10067828.93047  22114145.096    22114155.547
       239.000         199.000
  22065868.449    -2858741.11349  -2203344.15346  22065869.576    22065881.689
       232.000         184.000
  20895417.234   -14499606.34349  -3049115.96047  20895417.404    20895425.301
       242.000         209.000
 00  1 11 19 24 30.0000000  0  7G27G19G18G10G 2G31G13
  20808024.303   -11183648.92049  -8688260.30247  20808023.915    20808033.323
       242.000         210.000
  20658081.713    -2966735.03449  -2293027.18047  20658081.878    20658091.786
       245.000         210.000
  21837048.643     8499692.52949   6638232.16547  21837049.175    21837060.482
       236.000         193.000
  24119623.531     -821976.50349   -633303.00145  24119623.202    24119638.264
       206.000         137.000
  22105467.814   -13016167.87849 -10103363.13547  22105467.064    22105478.015
       239.000         200.000
  22075603.768    -2807583.37549  -2163481.07346  22075603.718    22075616.331
       232.000         185.000
  20889767.193   -14529297.15549  -3072251.62547  20889767.215    20889775.243
       242.000         209.000
 00  1 11 19 25  0.0000000  0  7G27G19G18G10G 2G31G13
  20801006.418   -11220528.40849  -8716997.53547  20801005.743    20801015.375
       242.000         210.000
  20660700.669    -2952972.86349  -2282303.44647  20660700.265    20660710.380
       244.000         210.000
  21854822.535     8593093.88749   6711012.33547  21854822.671    21854833.293
       235.000         192.000
  24122596.497     -806355.48249   -621130.79145  24122597.593    24122611.109
       211.000         137.000
  22096834.206   -13061537.60549 -10138716.10447  22096834.000    22096844.538
       240.000         201.000
  22085442.966    -2755879.04349  -2123192.07746  22085442.067    22085455.291
       231.000         184.000
  20884215.586   -14558471.28249  -3094984.67847  20884215.748    20884223.955
       244.000         210.000
 00  1 11 19 25 30.0000000  0  7G27G19G18G10G 2G31G13
  20794031.649   -11257180.33749  -8745557.45847  20794031.222    20794040.755
       242.000         211.000
  20663378.744    -2938899.59649  -2271337.30947  20663378.251    20663388.354
       244.000         210.000
  21872655.390     8686805.86449   6784034.53647  21872655.046    21872665.921
       234.000         191.000
  24125657.517     -790269.38949   -608596.20945  24125656.106    24125673.240
       206.000         138.000
  22088245.668   -13106670.31449 -10173884.38447  22088244.646    22088256.254
       239.000         201.000
  22095390.268    -2703604.92549  -2082459.10146  22095389.390    22095402.136
       229.000         182.000
  20878766.335   -14587107.40749  -3117298.51047  20878766.271    20878774.285
       243.000         211.000
 00  1 11 19 26  0.0000000  0  7G27G19G18G10G 2G31G13
  20787104.608   -11293582.00749  -8773922.38047  20787104.157    20787113.735
       242.000         211.000
  20666120.848    -2924489.60049  -2260108.78247  20666120.572    20666130.450
       244.000         209.000
  21890552.765     8780857.40249   6857321.32347  21890552.686    21890564.717
       234.000         190.000
  24128809.087     -773707.78249   -595691.15345  24128810.672    24128825.210
       209.000         140.000
  22079704.956   -13151551.64549 -10208856.78247  22079704.069    22079715.222
       239.000         201.000
  22105448.763    -2650746.94049  -2041271.16746  22105447.337    22105460.717
       227.000         180.000
  20873423.588   -14615183.17349  -3139175.69847  20873423.699    20873431.823
       243.000         211.000
 00  1 11 19 26 30.0000000  0  7G27G19G18G10G 2G31G13
  20780224.510   -11329737.29249  -8802095.32047  20780224.130    20780233.755
       242.000         211.000
  20668928.422    -2909735.85349  -2248612.39047  20668928.279    20668938.544
       244.000         210.000
  21908518.803     8875268.44049   6930888.23047  21908518.468    21908531.134
       235.000         190.000
  24132054.339     -756656.99249   -582404.86245  24132052.598    24132068.442
       204.000         137.000
  22071213.960   -13196172.40549 -10243626.13447  22071213.317    22071223.874
       240.000         200.000
  22115619.116    -2597300.64049  -1999624.79646  22115617.826    22115631.568
       227.000         179.000
  20868190.287   -14642684.52349  -3160605.28147  20868190.342    20868198.784
       244.000         211.000
 00  1 11 19 27  0.0000000  0  7G27G19G18G10G 2G31G13
  20773390.018   -11365653.01949  -8830081.59647  20773389.312    20773399.190
       241.000         211.000
  20671799.089    -2894650.48249  -2236857.58647  20671798.522    20671809.187
       244.000         210.000
  21926555.258     8970050.25149   7004744.04947  21926554.972    21926566.023
       234.000         191.000
  24135392.043     -739114.44549   -568735.36745  24135391.326    24135407.726
       201.000         133.000
  22062774.056   -13240524.05349 -10278185.77747  22062772.780    22062784.210
       239.000         200.000
  22125900.882    -2543270.31149  -1957523.34946  22125900.288    22125913.502
       229.000         180.000
  20863064.142   -14669622.84249  -3181596.15747  20863064.671    20863072.117
       245.000         212.000
 00  1 11 19 27 30.0000000  0  7G27G19G18G10G 2G31G13
  20766595.097   -11401360.02449  -8857905.23347  20766594.426    20766604.370
       241.000         210.000
  20674728.655    -2879255.51449  -2224861.53947  20674728.393    20674738.385
       244.000         209.000
  21944659.016     9065185.83149   7078875.53847  21944659.708    21944670.761
       235.000         190.000
  24138823.912     -721080.44749   -554682.90045  24138823.200    24138840.078
       201.000         134.000
  22054386.534   -13284600.26449 -10312530.77847  22054385.637    22054396.825
       240.000         201.000
  22136290.817    -2488672.17049  -1914979.43146  22136290.825    22136303.082
       231.000         181.000
  20858042.993   -14696009.94649  -3202157.50347  20858043.147    20858050.678
       243.000         212.000
 00  1 11 19 28  0.0000000  0  7G27G19G18G10G 2G31G13
  20759836.884   -11436874.27249  -8885578.68047  20759836.444    20759846.356
       242.000         211.000
  20677713.380    -2863571.09649  -2212639.94747  20677712.767    20677723.487
       244.000         210.000
  21962827.295     9160659.38049   7153270.37347  21962826.741    21962839.756
       234.000         191.000
  24142347.156     -702565.09849   -540255.39945  24142346.331    24142364.241
       205.000         137.000
  22046051.530   -13328401.15649 -10346661.26647  22046050.747    22046061.698
       240.000         202.000
  22146783.879    -2433532.72749  -1872013.73746  22146784.400    22146796.384
       232.000         183.000
  20853124.629   -14721855.46749  -3222296.84447  20853124.332    20853132.807
       242.000         211.000
 00  1 11 19 28 30.0000000  0  7G27G19G18G10G 2G31G13
  20753114.670   -11472199.46249  -8913104.80847  20753114.528    20753124.355
       242.000         212.000
  20680749.751    -2847614.63649  -2200206.37747  20680749.575    20680759.781
       244.000         210.000
  21981056.832     9256456.30749   7227917.19847  21981056.731    21981068.528
       234.000         190.000
  24145961.018     -683574.84749   -525457.84645  24145959.580    24145976.142
       209.000         138.000
  22037767.796   -13371931.62249 -10380581.03547  22037767.241    22037778.036
       239.000         201.000
  22157378.307    -2377860.20849  -1828632.65946  22157377.986    22157390.314
       231.000         183.000
  20848308.708   -14747162.65249  -3242016.70347  20848308.766    20848316.832
       243.000         211.000
 00  1 11 19 29  0.0000000  0  7G27G19G18G10G 2G31G13
  20746428.163   -11507337.93249  -8940485.43647  20746427.747    20746437.427
       242.000         212.000
  20683837.117    -2831390.59349  -2187564.29247  20683836.988    20683846.985
       245.000         210.000
  21999345.809     9352564.64549   7302806.67247  21999346.739    21999357.619
       236.000         191.000
  24149663.587     -664118.41149   -510297.05945  24149663.246    24149677.911
       207.000         138.000
  22029535.239   -13415193.88049 -10414291.80147  22029534.371    22029544.953
       240.000         201.000
  22168072.622    -2321661.83749  -1784841.82546  22168072.513    22168084.769
       230.000         183.000
  20843597.541   -14771919.98249  -3261308.10547  20843597.468    20843605.604
       243.000         211.000
 00  1 11 19 29 30.0000000  0  7G27G19G18G10G 2G31G13
  20739778.297   -11542282.77849  -8967715.18647  20739777.481    20739787.591
       240.000         211.000
  20686976.421    -2814893.68649  -2174709.57947  20686975.845    20686986.368
       245.000         209.000
  22017696.615     9448997.00949   7377948.63647  22017696.496    22017707.779
       234.000         189.000
  24153455.048     -644193.30449   -494771.11545  24153456.130    24153472.754
       208.000         138.000
  22021353.912   -13458187.07549 -10447792.91047  22021353.094    22021363.573
       241.000         202.000
  22178865.640    -2264944.60349  -1740646.68546  22178865.341    22178877.674
       232.000         183.000
  20838994.755   -14796107.53149  -3280155.53547  20838994.964    20839003.200
       245.000         212.000
 00  1 11 19 30  0.0000000  0  7G27G19G18G10G 2G31G13
  20733168.802   -11577015.15949  -8994779.37947  20733168.526    20733178.191
       242.000         211.000
  20690169.304    -2798114.53249  -2161634.92747  20690168.964    20690179.748
       245.000         209.000
  22036111.222     9545766.66549   7453353.43747  22036110.948    22036123.121
       234.000         189.000
  24157335.702     -623804.51749   -478883.80445  24157333.736    24157350.447
       200.000         135.000
  22013223.471   -13500912.75449 -10481085.59547  22013222.903    22013232.899
       240.000         201.000
  22189759.863    -2207696.18049  -1696037.64346  22189759.529    22189771.438
       231.000         182.000
  20834503.980   -14819707.16849  -3298544.83847  20834504.043    20834511.854
       243.000         212.000
 00  1 11 19 30 30.0000000  0  7G27G19G18G10G 2G31G13
  20726600.369   -11611532.73849  -9021676.20147  20726600.073    20726610.223
       242.000         211.000
  20693416.836    -2781048.51149  -2148336.73947  20693416.346    20693427.117
       245.000         209.000
  22054590.687     9642876.86449   7529023.57747  22054590.725    22054602.963
       236.000         189.000
  24161306.359     -602936.92849   -462623.35845  24161303.408    24161321.094
       200.000         133.000
  22005141.972   -13543380.43549 -10514177.24847  22005140.768    22005151.341
       239.000         201.000
  22200757.862    -2149901.23649  -1651002.75246  22200757.116    22200769.324
       229.000         181.000
  20830125.595   -14842715.08549  -3316473.06847  20830125.484    20830133.439
       243.000         211.000
 00  1 11 19 31  0.0000000  0  7G27G19G18G10G 2G31G13
  20720073.035   -11645834.38049  -9048404.76147  20720072.812    20720082.518
       244.000         211.000
  20696721.323    -2763683.13449  -2134805.28747  20696721.288    20696731.145
       245.000         209.000
  22073135.190     9740327.16449   7604958.73447  22073135.616    22073145.915
       235.000         189.000
  24165366.326     -581598.52149   -445996.06045  24165366.525    24165382.288
       205.000         136.000
  21997107.842   -13585599.11449 -10547074.86647  21997107.290    21997118.045
       240.000         202.000
  22211858.072    -2091568.47549  -1605548.78846  22211857.591    22211870.254
       229.000         181.000
  20825856.656   -14865148.27249  -3333953.46647  20825856.889    20825865.048
       244.000         211.000
 00  1 11 19 31 30.0000000  0  7G27G19G18G10G 2G31G13
  20713588.475   -11679911.37449  -9074958.26647  20713588.091    20713597.928
       243.000         211.000
  20700083.246    -2746016.58849  -2121039.15247  20700082.981    20700093.114
       245.000         209.000
  22091744.033     9838116.85249   7681158.34447  22091743.404    22091755.574
       231.000         188.000
  24169514.865     -559800.85549   -429010.90045  24169514.873    24169531.353
       208.000         140.000
  21989118.758   -13627582.42649 -10579789.11547  21989118.000    21989128.770
       239.000         202.000
  22223061.532    -2032693.99549  -1559672.70046  22223062.154    22223074.351
       231.000         181.000
  20821694.092   -14887022.81149  -3350998.56447  20821694.481    20821702.329
       244.000         212.000
 00  1 11 19 32  0.0000000  0  7G27G19G18G10G 2G31G13
  20707146.103   -11713766.22049  -9101338.66547  20707145.521    20707155.625
       243.000         211.000
  20703501.872    -2728050.99549  -2107039.98947  20703501.364    20703511.997
       244.000         209.000
  22110413.512     9936225.97949   7757606.85746  22110413.219    22110425.084
       232.000         187.000
  24173748.792     -537552.32149   -411674.43945  24173746.803    24173765.074
       204.000         139.000
  21981171.076   -13669347.29349 -10612333.15047  21981170.083    21981180.593
       240.000         202.000
  22234371.062    -1973264.48849  -1513364.15146  22234371.225    22234384.001
       231.000         182.000
  20817637.492   -14908340.78249  -3367609.96747  20817637.629    20817645.346
       244.000         212.000
 00  1 11 19 32 30.0000000  0  7G27G19G18G10G 2G31G13
  20700745.806   -11747399.67149  -9127546.54147  20700745.072    20700755.442
       242.000         210.000
  20706973.448    -2709807.33549  -2092824.15047  20706973.081    20706983.701
       244.000         208.000
  22129142.051    10034643.77349   7834295.90346  22129141.824    22129153.793
       232.000         186.000
  24178068.808     -514849.94249   -393984.33345  24178067.382    24178082.025
       206.000         136.000
  21973264.049   -13710898.74449 -10644710.91247  21973263.266    21973274.325
       240.000         202.000
  22245785.003    -1913285.35449  -1466627.31546  22245784.744    22245797.432
       230.000         182.000
  20813681.886   -14929127.25749  -3383807.21747  20813681.958    20813690.042
       244.000         212.000
 00  1 11 19 33  0.0000000  0  7G27G19G18G10G 2G31G13
  20694385.020   -11780825.16149  -9153592.36647  20694384.586    20694394.371
       242.000         210.000
  20710494.616    -2691303.32749  -2078405.45547  20710494.533    20710504.593
       244.000         208.000
  22147925.858    10133352.34949   7911211.53946  22147924.841    22147937.280
       232.000         186.000
  24182471.736     -491713.02749   -375955.54845  24182470.194    24182487.563
       201.000         133.000
  21965397.689   -13752236.68449 -10676922.31147  21965396.982    21965408.016
       240.000         202.000
  22257300.357    -1852771.89749  -1419474.13446  22257299.562    22257313.530
       230.000         182.000
  20809825.291   -14949393.73549  -3399599.28948  20809825.877    20809833.775
       246.000         213.000
 00  1 11 19 33 30.0000000  0  7G27G19G18G10G 2G31G13
  20688061.475   -11814055.30249  -9179485.96447  20688060.794    20688071.071
       243.000         210.000
  20714061.445    -2672560.09049  -2063800.34247  20714061.853    20714071.955
       246.000         209.000
  22166762.141    10232338.68149   7988343.62146  22166761.700    22166773.616
       232.000         185.000
  24186957.452     -468138.68049   -357586.00745  24186957.338    24186973.986
       202.000         133.000
  21957572.125   -13793359.84249 -10708966.34847  21957571.530    21957582.638
       239.000         203.000
  22268916.774    -1791727.22849  -1371907.04146  22268915.740    22268930.235
       227.000         181.000
  20806068.128   -14969138.59049  -3414984.88748  20806068.489    20806076.315
       244.000         213.000
 00  1 11 19 34  0.0000000  0  7G27G19G18G10G 2G31G13
  20681770.816   -11847112.86349  -9205245.09147  20681770.608    20681780.562
       244.000         212.000
  20717671.495    -2653590.48849  -2049018.84047  20717671.534    20717681.341
       246.000         209.000
  22185648.619    10331586.34249   8065679.32046  22185648.625    22185661.185
       232.000         186.000
  24191526.711     -444128.82049   -338877.10745  24191526.085    24191542.333
       203.000         134.000
  21949787.141   -13834270.05949 -10740844.44547  21949786.699    21949797.750
       240.000         203.000
  22280630.676    -1730169.37749  -1323940.05946  22280629.471    22280643.912
       226.000         180.000
  20802407.627   -14988374.25149  -3429973.70747  20802407.333    20802415.958
       242.000         212.000
 00  1 11 19 34 30.0000000  0  7G27G19G18G10G 2G31G13
  20675512.458   -11880000.81549  -9230872.06048  20675512.201    20675522.304
       244.000         213.000
  20721323.386    -2634399.78949  -2034065.05647  20721322.947    20721333.078
       244.000         208.000
  22204582.261    10431082.74949   8143208.81546  22204581.958    22204593.996
       231.000         185.000
  24196177.817     -419690.40249   -319834.24045  24196176.556    24196191.975
       203.000         133.000
  21942042.697   -13874967.60649 -10772556.83447  21942042.010    21942052.581
       240.000         203.000
  22292435.953    -1668130.79849  -1275598.49346  22292435.328    22292449.364
       225.000         179.000
  20798840.655   -15007118.14949  -3444579.33947  20798841.092    20798848.772
       244.000         212.000
 00  1 11 19 35  0.0000000  0  7G27G19G18G10G 2G31G13
  20669288.355   -11912708.60749  -9256358.64347  20669288.000    20669297.899
       243.000         212.000
  20725023.019    -2614957.54849  -2018915.25447  20725022.565    20725033.008
       244.000         207.000
  22223561.666    10530820.70749   8220926.58846  22223561.219    22223573.065
       231.000         184.000
  24200909.088     -394826.86448   -300460.09644  24200906.261    24200921.953
       193.000         128.000
  21934339.141   -13915450.77549 -10804102.18747  21934338.603    21934349.390
       239.000         202.000
  22304331.350    -1605619.94749  -1226888.90046  22304331.722    22304344.503
       226.000         179.000
  20795375.010   -15025330.78049  -3458770.99547  20795375.161    20795382.909
       246.000         212.000
 00  1 11 19 35 30.0000000  0  7G27G19G18G10G 2G31G13
  20663106.415   -11945194.73549  -9281672.49947  20663105.949    20663115.925
       242.000         211.000
  20728776.725    -2595231.27649  -2003544.13847  20728776.806    20728787.085
       245.000         208.000
  22242590.803    10630818.56749   8298846.83646  22242591.324    22242602.047
       233.000         185.000
  24205722.180     -369529.10348   -280747.63844  24205719.009    24205736.152
       186.000         125.000
  21926679.187   -13955704.17649 -10835468.47247  21926678.396    21926689.763
       240.000         203.000
  22316319.894    -1542621.99549  -1177799.76546  22316319.344    22316333.303
       226.000         179.000
  20792016.008   -15042982.41949  -3472525.52947  20792015.987    20792024.085
       245.000         212.000
 00  1 11 19 36  0.0000000  0  7G27G19G18G10G 2G31G13
  20656973.135   -11977424.79949  -9306786.82847  20656972.885    20656982.770
       244.000         211.000
  20732592.054    -2575181.69549  -1987921.09747  20732591.815    20732602.474
       244.000         209.000
  22261674.133    10731100.24549   8376988.26346  22261674.613    22261685.946
       232.000         184.000
  24210619.922     -343786.46849   -260688.47044  24210622.145    24210636.436
       201.000         129.000
  21919066.069   -13995711.33649 -10866642.88147  21919065.317    21919076.120
       240.000         204.000
  22328403.409    -1479122.58949  -1128319.86046  22328402.509    22328416.571
       225.000         178.000
  20788769.170   -15060044.67349  -3485820.78447  20788769.175    20788777.275
       245.000         212.000
 00  1 11 19 36 30.0000000  0  7G27G19G18G10G 2G31G13
  20650894.458   -12009369.18349  -9331678.55347  20650894.383    20650904.111
       244.000         212.000
  20736472.637    -2554789.45049  -1972031.04447  20736472.389    20736482.758
       245.000         208.000
  22280813.778    10831678.60549   8455360.90146  22280813.454    22280825.160
       233.000         184.000
  24215606.895     -317585.09549   -240271.83345  24215608.833    24215624.821
       204.000         135.000
  21911505.158   -14035444.90949 -10897604.09447  21911504.761    21911515.330
       241.000         205.000
  22340584.632    -1415110.50449  -1078440.49246  22340584.665    22340598.032
       227.000         179.000
  20785638.984   -15076493.87449  -3498638.32647  20785639.012    20785647.158
       245.000         212.000
 00  1 11 19 37  0.0000000  0  7G27G19G18G10G 2G31G13
  20644871.358   -12041021.23649  -9356342.49047  20644871.043    20644880.992
       244.000         212.000
  20740420.672    -2534042.93049  -1955864.95647  20740420.745    20740430.825
       245.000         208.000
  22300011.301    10932561.22349   8533970.56746  22300011.983    22300021.707
       232.000         184.000
  24220682.759     -290913.77749   -219489.08845  24220681.321    24220699.070
       204.000         136.000
  21903998.382   -14074893.97849 -10928343.62247  21903997.628    21904007.857
       241.000         205.000
  22352868.604    -1350560.12449  -1028141.66746  22352869.201    22352881.843
       229.000         180.000
  20782629.187   -15092310.80349  -3510963.20348  20782629.485    20782637.415
       246.000         213.000
 00  1 11 19 37 30.0000000  0  7G27G19G18G10G 2G31G13
  20638901.195   -12072394.70549  -9380789.34047  20638900.766    20638910.758
       243.000         212.000
  20744435.632    -2512945.00349  -1939425.03447  20744435.326    20744445.650
       244.000         208.000
  22319269.573    11033762.73949   8612828.74346  22319268.882    22319280.571
       231.000         184.000
  24225849.974     -263762.16949   -198332.07945  24225849.923    24225865.302
       204.000         137.000
  21896545.145   -14114061.02849 -10958863.38647  21896544.248    21896554.924
       241.000         205.000
  22365255.186    -1285470.44749   -977422.59146  22365255.246    22365268.414
       229.000         180.000
  20779734.473   -15107522.82849  -3522816.72848  20779734.389    20779742.704
       245.000         213.000
 00  1 11 19 38  0.0000000  0  7G27G19G18G10G 2G31G13
  20632977.565   -12103523.80149  -9405045.76747  20632977.047    20632986.976
       243.000         212.000
  20748513.656    -2491514.42849  -1922725.89447  20748513.403    20748524.173
       244.000         208.000
  22338585.024    11135267.03449   8691922.85946  22338584.690    22338597.761
       231.000         184.000
  24231109.340     -236125.96549   -176797.44445  24231109.752    24231123.289
       207.000         136.000
  21889142.625   -14152961.25849 -10989175.22147  21889141.563    21889152.821
       240.000         205.000
  22377741.077    -1219857.80949   -926295.98446  22377740.643    22377753.886
       228.000         180.000
  20776949.074   -15122159.80049  -3534222.15547  20776949.077    20776956.823
       245.000         212.000
 00  1 11 19 38 30.0000000  0  7G27G19G18G10G 2G31G13
  20627095.153   -12134436.14649  -9429133.30247  20627094.909    20627104.547
       244.000         212.000
  20752648.919    -2469783.74849  -1905792.91647  20752648.860    20752658.742
       245.000         209.000
  22357952.944    11237044.31849   8771229.69246  22357953.501    22357964.890
       233.000         185.000
  24236457.142     -208023.57949   -154899.54745  24236455.531    24236470.343
       200.000         132.000
  21881785.193   -14191624.46049 -11019302.35447  21881784.386    21881795.067
       240.000         205.000
  22390322.790    -1153740.78949   -874776.36346  22390321.373    22390335.845
       225.000         179.000
  20774268.409   -15136246.95749  -3545199.16347  20774268.843    20774276.337
       246.000         212.000
 00  1 11 19 39  0.0000000  0  7G27G19G18G10G 2G31G13
  20621249.480   -12165155.77049  -9453070.66448  20621249.226    20621258.943
       245.000         213.000
  20756839.588    -2447761.81649  -1888632.99747  20756839.359    20756849.724
       244.000         209.000
  22377370.947    11339085.71849   8850742.33546  22377370.009    22377381.772
       229.000         183.000
  24241888.234     -179480.26149   -132658.14044  24241886.481    24241906.022
       199.000         129.000
  21874466.411   -14230084.52549 -11049271.19747  21874465.882    21874476.063
       242.000         205.000
  22402999.718    -1087122.50749   -822866.15046  22402998.577    22403012.783
       224.000         177.000
  20771689.174   -15149801.48549  -3555761.14248  20771689.489    20771697.015
       246.000         213.000
 00  1 11 19 39 30.0000000  0  7G27G19G18G10G 2G31G13
  20615438.790   -12195691.33349  -9476864.60048  20615438.379    20615448.024
       244.000         213.000
  20761081.878    -2425467.69649  -1871260.97247  20761081.093    20761091.968
       243.000         208.000
  22396836.724    11441379.99349   8930452.01546  22396837.002    22396848.394
       232.000         185.000
  24247399.654     -150521.54149   -110092.96945  24247400.354    24247414.152
       205.000         133.000
  21867185.207   -14268347.43449 -11079086.41147  21867184.043    21867194.862
       239.000         205.000
  22415768.243    -1020021.61149   -770579.87446  22415767.757    22415781.367
       223.000         176.000
  20769206.642   -15162847.41649  -3565926.80047  20769206.787    20769214.511
       245.000         212.000
 00  1 11 19 40  0.0000000  0  7G27G19G18G10G 2G31G13
  20609664.210   -12226036.70649  -9500510.33447  20609663.777    20609673.344
       244.000         212.000
  20765372.939    -2402917.71749  -1853689.58447  20765373.221    20765383.279
       246.000         208.000
  22416345.685    11543898.99849   9010336.80546  22416345.997    22416357.715
       230.000         184.000
  24252985.565     -121167.53648    -87219.71645  24252981.710    24253000.264
       193.000         132.000
  21859941.100   -14306414.77049 -11108749.22947  21859940.278    21859950.903
       240.000         204.000
  22428627.838     -952443.46549   -717921.73946  22428627.204    22428640.941
       223.000         175.000
  20766823.211   -15175372.29849  -3575686.44447  20766823.167    20766831.086
       245.000         212.000
 00  1 11 19 40 30.0000000  0  7G27G19G18G10G 2G31G13
  20603930.109   -12256169.33749  -9523990.30547  20603929.976    20603939.294
       243.000         212.000
  20769715.434    -2380099.01249  -1835908.80447  20769715.325    20769725.255
       244.000         208.000
  22435897.453    11646643.27749   9090397.12446  22435897.262    22435909.533
       229.000         183.000
  24258643.754      -91427.71849    -64045.97444  24258643.261    24258660.099
       203.000         130.000
  21852737.265   -14344271.03849 -11138247.59447  21852736.865    21852747.081
       241.000         205.000
  22441580.057     -884379.95049   -664885.37646  22441579.947    22441592.929
       224.000         174.000
  20764543.580   -15187351.91249  -3585021.21348  20764543.935    20764551.498
       246.000         213.000
 00  1 11 19 41  0.0000000  0  7G27G19G18G10G 2G31G13
  20598238.700   -12286078.17949  -9547295.89448  20598238.566    20598247.885
       244.000         213.000
  20774112.339    -2356992.93049  -1817904.08947  20774111.962    20774122.426
       244.000         208.000
  22455492.808    11749617.04549   9170636.28146  22455491.727    22455504.404
       226.000         180.000
  24264378.448      -61294.19549    -40565.34944  24264378.171    24264391.105
       201.000         131.000
  21845578.369   -14381891.80149 -11167562.44547  21845577.282    21845588.460
       240.000         206.000
  22454625.201     -815828.05949   -611468.47646  22454625.386    22454638.134
       224.000         174.000
  20762371.357   -15198767.28049  -3593916.32348  20762371.279    20762379.511
       245.000         213.000
 00  1 11 19 41 30.0000000  0  7G27G19G18G10G 2G31G13
  20592594.013   -12315741.26649  -9570409.97348  20592593.924    20592603.153
       242.000         213.000
  20778565.422    -2333592.04649  -1799669.66747  20778565.139    20778575.437
       244.000         208.000
  22475131.937    11852821.14249   9251054.89346  22475132.929    22475143.991
       229.000         180.000
  24270192.318      -30744.66049    -16760.62244  24270193.275    24270207.017
       204.000         131.000
  21838466.651   -14419263.35249 -11196683.09247  21838465.905    21838476.824
       242.000         206.000
  22467761.964     -746795.57749   -557677.09446  22467761.452    22467774.424
       225.000         174.000
  20760310.742   -15209595.28749  -3602353.73247  20760310.416    20760318.972
       244.000         212.000
 00  1 11 19 42  0.0000000  0  7G27G19G18G10G 2G31G13
  20586998.701   -12345144.99349  -9593321.93847  20586998.268    20587007.897
       242.000         212.000
  20783081.082    -2309862.09449  -1781178.83447  20783080.553    20783090.915
       244.000         208.000
  22494817.906    11956270.02149   9331664.28146  22494817.512    22494829.915
       228.000         179.000
  24276087.809         234.88149      7379.19344  24276084.886    24276102.482
       197.000         128.000
  21831401.671   -14456389.85649 -11225612.81247  21831400.786    21831411.782
       242.000         207.000
  22480991.677     -677273.99049   -503504.57346  22480991.354    22481005.539
       224.000         174.000
  20758367.323   -15219807.67349  -3610311.42647  20758367.221    20758375.541
       244.000         212.000
 00  1 11 19 42 30.0000000  0  7G27G19G18G10G 2G31G13
  20581454.724   -12374278.31349  -9616023.19447  20581454.056    20581463.779
       242.000         212.000
  20787662.408    -2285786.70549  -1762418.82147  20787661.771    20787672.039
       245.000         207.000
  22514555.999    12059994.38049   9412488.29546  22514556.387    22514568.267
       230.000         179.000
  24282065.735       31652.75149     31860.60344  24282065.626    24282081.452
       201.000         127.000
  21824384.128   -14493266.96449 -11254348.21047  21824383.544    21824394.457
       242.000         207.000
  22494316.242     -607253.25149   -448943.12446  22494316.169    22494330.933
       223.000         175.000
  20756540.082   -15229409.82849  -3617793.64047  20756540.466    20756548.347
       246.000         212.000
 00  1 11 19 43  0.0000000  0  7G27G19G18G10G 2G31G13
  20575962.366   -12403140.50149  -9638513.18747  20575961.768    20575971.366
       242.000         212.000
  20792306.442    -2261382.24649  -1743402.39647  20792306.276    20792316.653
       244.000         207.000
  22534348.969    12164006.38749   9493536.46246  22534349.195    22534360.460
       229.000         180.000
  24288128.191       63513.46049     56687.09144  24288125.631    24288142.017
       204.000         127.000
  21817411.648   -14529907.59549 -11282899.33347  21817411.181    21817421.582
       242.000         206.000
  22507735.126     -536735.77549   -393994.60646  22507734.759    22507749.666
       223.000         175.000
  20754828.085   -15238406.63549  -3624804.15448  20754828.201    20754836.403
       245.000         213.000
 00  1 11 19 43 30.0000000  0  7G27G19G18G10G 2G31G13
  20570519.792   -12431741.13149  -9660799.37747  20570519.516    20570529.111
       242.000         212.000
  20797008.791    -2236671.83849  -1724147.56647  20797008.311    20797018.949
       244.000         207.000
  22554197.609    12268310.95249   9574812.59246  22554197.104    22554209.240
       230.000         181.000
  24294272.484       95803.31649     81847.97744  24294271.826    24294286.724
       195.000         127.000
  21810480.380   -14566331.92949 -11311281.91447  21810479.919    21810490.530
       242.000         207.000
  22521247.958     -465726.55749   -338662.92746  22521247.695    22521262.944
       222.000         176.000
  20753224.217   -15246834.84049  -3631371.59648  20753224.372    20753232.490
       245.000         213.000
 00  1 11 19 44  0.0000000  0  7G27G19G18G10G 2G31G13
  20565122.101   -12460106.40349  -9682902.15747  20565121.663    20565131.511
       240.000         211.000
  20801764.624    -2211679.18849  -1704672.81047  20801764.188    20801774.862
       244.000         207.000
  22574099.650    12372896.38249   9656307.57646  22574099.246    22574111.811
       228.000         180.000
  24300492.044      128489.49249    107317.68444  24300491.920    24300510.402
       196.000         127.000
  21803589.324   -14602544.69149 -11339499.65047  21803588.650    21803599.341
       242.000         207.000
  22534853.018     -394232.04749   -282953.10446  22534853.476    22534867.740
       225.000         176.000
  20751720.327   -15254737.63249  -3637529.62448  20751720.463    20751728.817
       245.000         213.000
 00  1 11 19 44 30.0000000  0  7G27G19G18G10G 2G31G13
  20559763.983   -12488263.09649  -9704842.39847  20559763.682    20559773.571
       242.000         212.000
  20806565.190    -2186452.35449  -1685015.57347  20806565.395    20806575.479
       245.000         207.000
  22594049.523    12477732.89849   9737998.21346  22594049.535    22594061.540
       229.000         180.000
  24306783.068      161547.38649    133077.03044  24306781.026    24306800.330
       199.000         128.000
  21796737.560   -14638551.04749 -11367556.55947  21796736.683    21796747.507
       241.000         206.000
  22548547.993     -322266.51349   -226876.27346  22548548.565    22548561.899
       225.000         176.000
  20750309.339   -15262152.63349  -3643307.55748  20750309.370    20750317.704
       245.000         213.000
 00  1 11 19 45  0.0000000  0  8G27G19G18G 8G10G 2G31G13
  20554440.514   -12516238.80549  -9726641.62047  20554440.117    20554449.958
       242.000         212.000
  20811407.025    -2161009.27749  -1665189.82647  20811406.413    20811417.447
       245.000         208.000
  22614039.667    12582780.80549   9819853.54146  22614039.936    22614051.940
       228.000         180.000
                    -29460.28749     -8629.79143
       204.000          74.000
  24313141.904      194958.73049    159111.82144  24313142.891    24313156.838
       204.000         128.000
  21789923.782   -14674357.41849 -11395457.62247  21789922.940    21789933.683
       241.000         206.000
  22562328.333     -249851.95749   -170449.57946  22562328.375    22562342.063
       225.000         175.000
  20748990.276   -15269084.08449  -3648708.69047  20748990.343    20748998.433
       244.000         212.000
 00  1 11 19 45 30.0000000  0  8G27G19G18G 8G10G 2G31G13
  20549149.286   -12544044.32749  -9748308.23548  20549148.870    20549158.412
       243.000         213.000
  20816292.966    -2135333.19949  -1645182.53547  20816292.431    20816303.424
       243.000         207.000
  22634064.901    12688014.18949   9901853.42146  22634064.513    22634077.270
       227.000         180.000
                   -115741.94349    -75862.62143
       205.000          74.000
  24319565.596      228714.38949    185414.87844  24319564.656    24319581.381
       202.000         128.000
  21783148.228   -14709962.89949 -11423202.14347  21783147.661    21783157.986
       242.000         207.000
  22576191.388     -177002.41549   -113683.92446  22576191.618    22576204.552
       227.000         175.000
  20747763.686   -15275529.92449  -3653731.41947  20747763.712    20747772.186
       245.000         212.000
 00  1 11 19 46  0.0000000  0  8G27G19G18G 8G10G 2G31G13
  20543894.888   -12571656.96149  -9769824.54248  20543894.318    20543904.180
       243.000         213.000
  20821227.519    -2109401.37449  -1624975.96747  20821227.674    20821237.997
       244.000         207.000
  22654122.793    12793420.21149   9983987.80446  22654122.457    22654134.905
       227.000         178.000
                  -1777475.73449  -1370721.37543
       206.000          74.000
  24326056.147      262820.34149    211990.82544  24326055.972    24326071.820
       198.000         128.000
  21776413.073   -14745356.73049 -11450781.73947  21776412.433    21776422.951
       243.000         207.000
  22590135.572     -103727.54549    -56586.83146  22590136.194    22590148.048
       227.000         174.000
  20746638.750   -15281441.17749  -3658337.59947  20746638.861    20746647.364
       244.000         212.000
 00  1 11 19 46 30.0000000  0  8G27G19G18G 8G10G 2G31G13
  20538685.518   -12599032.14749  -9791155.83248  20538685.124    20538694.557
       243.000         213.000
  20826217.440    -2083179.99249  -1604543.76847  20826217.570    20826227.762
       244.000         207.000
  22674215.346    12899005.11049  10066261.58846  22674216.107    22674227.875
       226.000         176.000
                  -1863797.82249  -1117815.11843
       209.000          74.000
  24332620.319      297314.40549    238869.27744  24332618.129    24332636.537
       195.000         122.000
  21769717.854   -14780540.80949 -11478197.89147  21769716.959    21769727.592
       242.000         206.000
  22604160.920      -30024.19149       844.18946  22604160.635    22604173.277
       225.000         174.000
  20745626.248   -15286761.92549  -3662483.63048  20745626.582    20745634.676
       244.000         213.000
 00  1 11 19 47  0.0000000  0  8G27G19G18G 8G10G 2G31G13
  20533530.368   -12626122.51149  -9812265.18348  20533529.803    20533539.334
       243.000         213.000
  20831270.176    -2056628.64549  -1583854.44247  20831270.272    20831280.266
       244.000         207.000
  22694345.367    13004787.35849  10148689.13446  22694345.432    22694358.128
       225.000         176.000
                  -1950107.46449  -1185068.74843
       205.000          74.000
  24339263.330      332225.51448    266072.71944  24339262.429    24339283.559
       193.000         121.000
  21763065.303   -14815499.90749 -11505438.73747  21763064.654    21763075.175
       243.000         207.000
  22618268.476       44110.42149     58611.18946  22618268.239    22618280.880
       225.000         173.000
  20744733.874   -15291451.01249  -3666137.44747  20744733.830    20744742.285
       243.000         212.000
 00  1 11 19 47 30.0000000  0  8G27G19G18G 8G10G 2G31G13
  20528438.949   -12652877.72749  -9833113.38948  20528438.368    20528448.237
       243.000         213.000
  20836391.429    -2029716.73849  -1562884.16347  20836391.207    20836401.436
       244.000         207.000
  22714518.102    13110798.00649  10231294.65646  22714516.667    22714530.393
       222.000         174.000
                  -2036399.70649  -1252309.11743
       207.000          74.000
  24345992.148      367586.75949    293626.85944  24345991.571    24346010.410
       197.000         121.000
  21756459.382   -14850214.65049 -11532489.17647  21756458.907    21756469.601
       242.000         207.000
  22632462.019      118697.77849    116730.98046  22632461.253    22632474.893
       224.000         172.000
  20743967.677   -15295477.44249  -3669274.91747  20743967.830    20743976.271
       244.000         212.000
 00  1 11 19 48  0.0000000  0  8G27G19G18G 8G10G 2G31G13
  20523416.653   -12679269.73149  -9853678.57848  20523416.394    20523425.901
       243.000         213.000
  20841583.293    -2002433.85649  -1541624.82047  20841583.012    20841593.442
       243.000         207.000
  22734740.312    13217067.90449  10314102.23946  22734740.637    22734753.139
       226.000         173.000
                  -2122667.87849  -1319531.18243                  23503460.332
       207.000          94.000
  24352810.926      403417.89049    321547.17744  24352810.920    24352829.858
       195.000         121.000
  21749904.797   -14884658.92949 -11559328.83847  21749904.365    21749914.526
       243.000         207.000
  22646746.592      193762.73549    175222.94946  22646746.664    22646760.548
       225.000         172.000
  20743330.905   -15298824.05949  -3671882.67547  20743331.131    20743339.368
       244.000         212.000
 00  1 11 19 48 30.0000000  0  8G27G19G18G 8G10G 2G31G13
  20518462.423   -12705304.40749  -9873965.33048  20518462.084    20518471.748
       243.000         213.000
  20846844.589    -1974785.27149  -1520080.48847  20846843.830    20846854.529
       243.000         207.000
  22755016.237    13323616.40849  10397126.86246  22755017.129    22755029.594
       227.000         175.000
  23487033.395    -2208909.68049  -1386732.48145  23487031.227    23487047.000
       204.000         134.000
  24359720.082      439726.89148    349839.88944  24359719.217    24359738.266
       191.000         119.000
  21743404.421   -14918818.91749 -11585946.96947  21743403.725    21743413.883
       243.000         207.000
  22661126.116      269326.66249    234103.73046  22661125.219    22661140.129
       223.000         172.000
  20742820.321   -15301507.31449  -3673973.51047  20742820.464    20742828.348
       243.000         212.000
 00  1 11 19 49  0.0000000  0  8G27G19G18G 8G10G 2G31G13
  20513567.880   -12731024.87249  -9894007.24348  20513567.583    20513577.292
       242.000         213.000
  20852171.272    -1946793.12749  -1498268.46347  20852170.992    20852181.040
       244.000         206.000
  22775344.250    13430439.33349  10480365.34546  22775343.148    22775357.484
       221.000         173.000
  23470626.611    -2295127.16349  -1453914.71845  23470625.744    23470641.351
       205.000         139.000
  24366714.706      476487.54348    378484.61644                  24366708.908
       182.000         110.000
  21736959.257   -14952688.98449 -11612339.18547  21736958.367    21736969.028
       242.000         207.000
  22675598.965      345382.23149    293367.59746  22675598.600    22675614.733
       222.000         172.000
  20742430.905   -15303553.64549  -3675568.03747  20742431.064    20742439.223
       242.000         212.000
 00  1 11 19 49 30.0000000  0  8G27G19G18G 8G10G 2G31G13
  20508725.116   -12756473.54849  -9913837.36948  20508724.825    20508734.498
       243.000         214.000
  20857560.639    -1918472.03449  -1476200.12847  20857560.541    20857570.869
       244.000         206.000
  22795722.120    13537527.42449  10563810.45546  22795721.750    22795735.716
       222.000         172.000
  23454224.854    -2381316.42249  -1521075.00045  23454222.839    23454238.488
       207.000         139.000
  24373792.139      513681.95149    407467.23744                  24373794.233
       196.000         102.000
  21730565.471   -14986287.49149 -11638519.77547  21730563.974    21730575.609
       240.000         207.000
  22690163.691      421920.74849    353007.79346  22690164.316    22690178.790
       223.000         172.000
  20742158.439   -15304985.26749  -3676683.58148  20742158.492    20742167.312
       244.000         213.000
 00  1 11 19 50  0.0000000  0  8G27G19G18G 8G10G 2G31G13
  20503927.180   -12781687.09149  -9933484.28448  20503926.947    20503936.656
       243.000         214.000
  20863009.928    -1889836.12649  -1453886.46747  20863009.869    20863020.474
       243.000         206.000
  22816146.274    13644856.80849  10647443.56746  22816146.221    22816159.809
       225.000         173.000
  23437829.106    -2467476.85549  -1588212.79545  23437830.338    23437843.049
       214.000         142.000
                    551284.71748    436767.99044
       194.000         100.000
  21724218.100   -15019642.38549 -11664510.55147  21724217.247    21724228.006
       242.000         207.000
  22704817.580      498925.31449    413011.14646  22704818.291    22704831.998
       223.000         172.000
  20741995.136   -15305843.54049  -3677352.35248  20741995.255    20742003.767
       243.000         213.000
 00  1 11 19 50 30.0000000  0  8G27G19G18G 8G10G 2G31G13
  20499167.816   -12806697.65849  -9952973.03248  20499167.682    20499176.935
       243.000         213.000
  20868514.158    -1860911.18349  -1431347.58247  20868513.968    20868524.766
       244.000         207.000
  22836609.289    13752388.17549  10731234.08546  22836609.814    22836621.678
       223.000         172.000
  23421438.038    -2553615.49149  -1655333.62345  23421438.166    23421451.462
       218.000         144.000
                    589259.249 8    464377.232 1
       185.000
  21717909.055   -15052796.67549 -11690345.00447  21717908.235    21717919.145
       242.000         207.000
  22719553.186      576359.94249    473349.64046  22719552.251    22719567.790
       221.000         172.000
  20741931.882   -15306175.79249  -3677611.23347  20741931.939    20741940.255
       243.000         212.000
 00  1 11 19 51  0.0000000  0  8G27G19G18G 8G10G 2G31G13
  20494445.459   -12831514.17549  -9972310.57448  20494445.081    20494454.602
       243.000         213.000
  20874072.891    -1831699.96249  -1408585.63447  20874072.300    20874082.508
       243.000         206.000
  22857104.215    13860089.86349  10815157.28746  22857104.466    22857118.611
       223.000         173.000
  23405051.694    -2639726.90149  -1722433.20645  23405051.750    23405065.595
       215.000         146.000
                    627578.60348   2891966.64843
       177.000          74.000
  21711633.393   -15085775.61549 -11716042.83347  21711632.320    21711643.087
       241.000         207.000
  22734365.135      654198.26749    534002.68946  22734364.757    22734380.406
       224.000         171.000
  20741965.235   -15306000.73249  -3677474.81348  20741965.576    20741973.716
       243.000         213.000
 00  1 11 19 51 30.0000000  0  8G27G19G18G 8G10G 2G31G13
  20489763.976   -12856115.60849  -9991480.52448  20489763.282    20489773.088
       243.000         213.000
  20879686.728    -1802198.37849  -1385597.42747  20879686.484    20879696.953
       243.000         205.000
  22877628.163    13967943.11749  10899198.63846  22877628.947    22877642.563
       226.000         176.000
  23388668.248    -2725822.15049  -1789520.22045  23388666.653    23388681.536
       213.000         144.000
                    666230.81448   2922057.77643
       189.000          74.000
  21705387.646   -15118596.23149 -11741617.28947  21705386.803    21705397.565
       241.000         207.000
  22749254.016      732437.81649    594968.35846  22749253.080    22749269.107
       221.000         171.000
  20742091.976   -15305334.66649  -3676955.79147  20742091.609    20742100.080
       242.000         212.000
 00  1 11 19 52  0.0000000  0  8G27G19G18G 8G10G 2G31G13
  20485127.060   -12880482.73849 -10010467.90348  20485126.722    20485136.349
       243.000         213.000
  20885354.334    -1772415.27949  -1362389.85247  20885354.270    20885364.861
       243.000         206.000
  22898181.893    14075951.09949  10983360.53846  22898182.118    22898195.836
       223.000         174.000
  23372286.484    -2811908.89949  -1856600.60845  23372284.734    23372299.410
       210.000         143.000
                    705194.92248   2952391.91343
       182.000          74.000
  21699173.193   -15151253.16449 -11767064.22347  21699172.765    21699182.975
       243.000         207.000
  22764218.968      811079.35749    656247.28146  22764219.259    22764233.725
       222.000         171.000
  20742313.604   -15304169.21049  -3676047.62947  20742313.725    20742322.018
       243.000         212.000
 00  1 11 19 52 30.0000000  0  8G27G19G18G 8G10G 2G31G13
  20480537.591   -12904600.70849 -10029261.12748  20480537.169    20480546.983
       242.000         213.000
  20891075.054    -1742352.82049  -1338964.58947  20891074.550    20891085.562
       243.000         206.000
  22918767.040    14184126.36849  11067652.74946  22918767.038    22918781.141
       220.000         173.000
  23355906.071    -2897984.79149  -1923672.52345  23355903.295    23355919.062
       209.000         141.000
                    744466.36948   3003278.05743
       178.000          74.000
  21692993.383   -15183729.09249 -11792370.12447  21692992.724    21693003.059
       244.000         208.000
  22779261.744      890127.97049    717843.41346  22779262.545    22779277.041
       223.000         171.000
  20742638.830   -15302460.36249  -3674716.04248  20742639.210    20742647.477
       244.000         213.000
 00  1 11 19 53  0.0000000  0  8G27G19G18G 8G10G 2G31G13
  20475998.295   -12928454.88549 -10047848.79048  20475997.742    20476007.571
       242.000         213.000
  20896852.359    -1711992.20249  -1315307.00147  20896852.090    20896862.783
       243.000         205.000
  22939386.306    14292480.85949  11152084.64446  22939386.943    22939400.348
       222.000         173.000
  23339526.178    -2984060.79049  -1990744.55745  23339524.014    23339540.618
       209.000         143.000
                    784050.10548   3034195.44643
       180.000          74.000
  21686851.734   -15216003.32049 -11817518.84047  21686850.816    21686861.911
       243.000         209.000
  22794383.903      969593.52649    779764.41246  22794383.956    22794397.964
       222.000         171.000
  20743074.625   -15300170.67249  -3672931.85948  20743074.868    20743082.942
       243.000         213.000
 00  1 11 19 53 30.0000000  0  9G27G 7G19G18G 8G10G 2G31G13
  20471513.077   -12952024.80849 -10066214.95548  20471512.936    20471522.475
       243.000         214.000
                  -1134464.24449   -865765.60643
       205.000          74.000
  20902689.939    -1681316.51549  -1291403.92247  20902690.488    20902700.583
       244.000         206.000
  22960043.323    14401032.63349  11236670.28646  22960043.393    22960056.582
       224.000         173.000
  23323145.061    -3070142.62149  -2057821.10845  23323143.744    23323159.633
       212.000         147.000
                    823959.91148   3065366.95843
       193.000          74.000
  21680752.623   -15248054.39749 -11842493.68747  21680752.078    21680762.473
       242.000         208.000
  22809587.234     1049487.46949    842019.22846  22809587.781    22809601.747
       223.000         171.000
  20743627.575   -15297264.35049  -3670667.18247  20743627.565    20743635.931
       242.000         212.000
 00  1 11 19 54  0.0000000  0  9G27G 7G19G18G 8G10G 2G31G13
  20467082.864   -12975305.84349 -10084356.02848  20467082.574    20467092.120
       242.000         214.000
                  -1236726.09849   -945449.88144                  23464541.344
       202.000         129.000
  20908589.978    -1650312.38849  -1267244.89147  20908589.475    20908600.889
       242.000         206.000
  22980740.677    14509797.29449  11321421.78646  22980741.184    22980753.290
       223.000         173.000
  23306763.375    -3156227.53649  -2124900.09245  23306762.904    23306777.525
       214.000         151.000
                    864222.93148   3113742.97443
       184.000          74.000
  21674699.716   -15279863.10749 -11867279.68647  21674698.848    21674709.272
       242.000         208.000
  22824873.768     1129817.67149    904613.99846  22824874.618    22824888.652
       223.000         170.000
  20744302.908   -15293715.67449  -3667901.96947  20744303.238    20744311.313
       243.000         212.000
 00  1 11 19 54 30.0000000  0  9G27G 7G19G18G 8G10G 2G31G13
  20462707.875   -12998296.73649 -10102271.01148  20462707.462    20462716.954
       243.000         213.000
  23445082.165    -1338884.63949  -1025053.75345  23445081.118    23445098.712
       206.000         138.000
  20914553.989    -1618970.66549  -1242822.78947  20914553.486    20914564.737
       243.000         205.000
  23001474.497    14618754.32049  11406323.18246  23001474.650    23001488.135
       223.000         173.000
  23290380.731    -3242317.71349  -2191983.18245  23290380.475    23290395.252
       217.000         154.000
                    904861.45358   3145328.40543
       172.000          74.000
  21668693.557   -15311425.01049 -11891873.36847  21668692.566    21668703.670
       242.000         208.000
  22840243.339     1210584.29349    967548.87746  22840242.309    22840257.638
       221.000         170.000
  20745097.789   -15289538.57249  -3664647.08048  20745097.898    20745106.425
       244.000         213.000
 00  1 11 19 55  0.0000000  0  9G27G 7G19G18G 8G10G 2G31G13
  20458391.356   -13020980.22449 -10119946.45448  20458390.781    20458400.696
       242.000         213.000
  23425666.803    -1440913.68749  -1104556.76045  23425668.357    23425680.809
       208.000         141.000
  20920584.228    -1587281.84049  -1218130.25047  20920584.081    20920594.119
       242.000         205.000
  23022244.762    14727901.18749  11491372.50846  23022245.351    23022258.304
       224.000         172.000
  23273999.831    -3328400.97749  -2259060.89645  23273999.575    23274013.854
       217.000         157.000
                    945905.96748   3177230.21143
       186.000          74.000
  21662737.328   -15342725.04149 -11916263.00347  21662736.859    21662747.461
       243.000         209.000
  22855697.534     1291797.45549   1030831.67446  22855697.150    22855712.020
       221.000         170.000
  20746009.360   -15284748.37949  -3660914.45648  20746009.686    20746017.900
       244.000         214.000
 00  1 11 19 55 30.0000000  0  9G27G 7G19G18G 8G10G 2G31G13
  20454133.718   -13043353.95049 -10137380.53048  20454133.458    20454143.066
       243.000         213.000
  23406281.274    -1542789.89549  -1183940.61245  23406282.878    23406293.815
       214.000         145.000
  20926677.720    -1555260.39749  -1193178.51647  20926677.243    20926688.276
       241.000         205.000
  23043051.185    14837237.81349  11576569.66746  23043051.367    23043065.429
       222.000         172.000
  23257622.852    -3414462.56649  -2326121.70245  23257621.883    23257636.400
       216.000         158.000
                    987379.08548   3223337.66643
       192.000          74.000
  21656829.383   -15373771.88749 -11940455.37147  21656828.819    21656839.134
       242.000         209.000
  22871237.738     1373461.95849   1094466.18646  22871237.822    22871252.379
       220.000         169.000
  20747035.466   -15279356.53249  -3656713.01548  20747035.576    20747043.657
       244.000         213.000
 00  1 11 19 56  0.0000000  0  9G27G 7G19G18G 8G10G 2G31G13
  20449932.142   -13065433.60249 -10154585.45348  20449931.717    20449941.377
       242.000         214.000
  23386924.314    -1644514.34449  -1263206.15045  23386924.289    23386938.671
       216.000         148.000
  20932831.053    -1522924.59649  -1167981.81447  20932831.352    20932841.756
       243.000         205.000
  23063891.640    14946755.30549  11661907.78846  23063890.661    23063904.556
       221.000         172.000
  23241248.917    -3500508.44949  -2393170.27345  23241247.939    23241262.261
       213.000         159.000
                   1029271.71348   3256106.05843
       192.000          74.000
  21650968.026   -15404573.13949 -11964456.33847  21650967.127    21650977.791
       242.000         208.000
  22886863.215     1455573.75449   1158449.23746  22886862.885    22886877.677
       221.000         168.000
  20748170.474   -15273392.03549  -3652065.36348  20748170.860    20748178.816
       244.000         214.000
 00  1 11 19 56 30.0000000  0  9G27G 7G19G18G 8G10G 2G31G13
  20445784.560   -13087228.99549 -10171568.87948  20445784.268    20445793.754
       243.000         213.000
  23367596.421    -1746083.49249  -1342350.75245  23367594.571    23367610.620
       213.000         149.000
  20939041.211    -1490291.28549  -1142553.30947  20939041.193    20939051.120
       243.000         205.000
  23084764.600    15056444.43249  11747379.62546  23084764.190    23084778.578
       219.000         170.000
  23224878.263    -3586535.15049  -2460203.93345  23224877.172    23224892.719
       212.000         158.000
                   1071544.07348   3289179.46343
       173.000          74.000
  21645151.239   -15435140.42549 -11988275.00147  21645150.494    21645161.018
       243.000         208.000
  22902567.939     1538102.45949   1222757.13146  22902567.632    22902582.704
       220.000         168.000
  20749412.168   -15266867.13049  -3646981.02848  20749412.241    20749420.505
       244.000         213.000
 00  1 11 19 57  0.0000000  0  8G27G 7G19G18G 8G 2G31G13
  20441689.898   -13108746.60649 -10188335.85548  20441689.913    20441699.132
       242.000         213.000
  23348300.426    -1847481.91649  -1421362.30945  23348298.909    23348315.398
       215.000         151.000
  20945307.142    -1457363.86849  -1116895.62747  20945306.796    20945317.009
       242.000         205.000
  23105671.417    15166309.33449  11832988.42146  23105672.856    23105684.156
       224.000         170.000
  23208509.815    -3672553.04749  -2527230.77045  23208508.354    23208523.221
       213.000         158.000
  21639374.617   -15465496.95049 -12011929.44047  21639374.123    21639384.557
       244.000         209.000
  22918346.878     1621020.23049   1287368.20146  22918346.939    22918360.888
       221.000         168.000
  20750761.193   -15259777.93749  -3641456.99848  20750761.397    20750769.472
       244.000         213.000
 00  1 11 19 57 30.0000000  0  8G27G 7G19G18G 8G 2G31G13
  20437648.780   -13129983.51849 -10204884.09648  20437648.530    20437658.176
       244.000         214.000
  23329037.497    -1948709.59749  -1500240.79445  23329036.944    23329049.350
       216.000         149.000
  20951631.826    -1424127.12449  -1090996.90747  20951631.637    20951642.016
       242.000         205.000
  23126612.556    15276354.62549  11918737.82546  23126612.339    23126625.358
       220.000         168.000
  23192142.411    -3758564.29649  -2594252.41645  23192140.615    23192156.464
       212.000         159.000
  21633636.542   -15495651.17549 -12035426.24147  21633635.766    21633646.477
       242.000         209.000
  22934198.873     1704321.05949   1352277.77146  22934198.765    22934213.517
       219.000         167.000
  20752220.922   -15252107.15249  -3635479.78348  20752220.966    20752229.317
       243.000         213.000
 00  1 11 19 58  0.0000000  0  8G27G 7G19G18G 8G 2G31G13
  20433663.016   -13150928.83249 -10221205.12048  20433662.700    20433672.060
       243.000         214.000
  23309805.427    -2049775.28949  -1578993.08245  23309804.718    23309817.459
       211.000         146.000
  20958019.852    -1390557.64649  -1064838.91647  20958019.645    20958030.377
       243.000         205.000
  23147588.760    15386586.65149  12004632.70846  23147588.488    23147602.960
       220.000         165.000
  23175778.112    -3844556.83349  -2661259.50245  23175777.493    23175792.273
       212.000         162.000
  21627938.505   -15525594.28949 -12058758.54347  21627937.820    21627948.411
       243.000         209.000
  22950121.556     1787995.73749   1417478.64146  22950121.641    22950136.321
       218.000         167.000
  20753793.922   -15243840.71549  -3629038.42348  20753794.097    20753802.478
       243.000         214.000
 00  1 11 19 58 30.0000000  0  8G27G 7G19G18G 8G 2G31G13
  20429736.223   -13171564.69149 -10237285.00748  20429735.718    20429745.500
       243.000         214.000
  23290606.050    -2150665.15949  -1657608.32145  23290604.480    23290620.165
       210.000         145.000
  20964473.761    -1356642.22849  -1038411.37247  20964473.457    20964484.346
       243.000         205.000
  23168600.920    15497003.97449  12090671.94746  23168600.821    23168613.071
       222.000         166.000
  23159422.107    -3930504.93749  -2728231.91546  23159420.907    23159436.476
       220.000         163.000
  21622278.435   -15555338.17049 -12081935.60447  21622277.169    21622288.379
       241.000         209.000
  22966115.759     1872045.28749   1482971.59446  22966115.779    22966130.142
       221.000         167.000
  20755484.937   -15234954.17649  -3622113.86348  20755484.897    20755493.387
       242.000         213.000
 00  1 11 19 59  0.0000000  0  8G27G 7G19G18G 8G 2G31G13
  20425868.803   -13191888.26949 -10253121.57348  20425868.276    20425877.938
       243.000         214.000
  23271441.294    -2251373.80249  -1736082.39945  23271439.947    23271455.184
       210.000         146.000
  20970994.480    -1322376.24149  -1011710.65047  20970994.153    20971004.670
       243.000         204.000
  23189647.611    15607604.13649  12176853.65346  23189646.822    23189660.546
       221.000         165.000
  23143074.836    -4016410.15349  -2795170.91846  23143074.003    23143089.419
       222.000         165.000
  21616654.997   -15584888.68849 -12104961.97547  21616654.292    21616664.891
       242.000         208.000
  22982186.673     1956496.76249   1548777.73846  22982186.274    22982201.625
       221.000         167.000
  20757293.628   -15225449.24549  -3614707.45148  20757294.114    20757302.073
       243.000         213.000
 00  1 11 19 59 30.0000000  0  9G27G 7G19G18G11G 8G 2G31G13
  20422051.451   -13211948.82149 -10268753.18948  20422050.928    20422060.298
       243.000         214.000
  23252302.906    -2351946.27349  -1814450.33245  23252302.096    23252314.885
       212.000         145.000
  20977573.103    -1287805.43349   -984772.41547  20977572.829    20977584.220
       242.000         205.000
  23210721.476    15718347.94749  12263147.34346  23210721.512    23210735.738
       223.000         164.000
  24751910.273    -3251491.68349  -2519974.60945  24751910.289    24751926.693
       206.000         138.000
  23126730.401    -4102300.96349  -2862098.67246  23126729.558    23126744.771
       223.000         167.000
  21611061.751   -15614281.47049 -12127865.44447  21611060.734    21611071.787
       241.000         208.000
  22998331.458     2041336.63349   1614886.51646  22998331.956    22998346.935
       221.000         167.000
  20759211.370   -15215371.85649  -3606854.96748  20759211.287    20759220.043
       243.000         213.000
 00  1 11 20  0  0.0000000  0  9G27G 7G19G18G11G 8G 2G31G13
  20418288.809   -13231720.88049 -10284160.00348  20418288.053    20418298.193
       241.000         213.000
  23233197.340    -2452346.24649  -1892683.86145  23233196.383    23233209.219
       210.000         146.000
  20984214.021    -1252907.02749   -957578.91147  20984214.221    20984225.289
       242.000         205.000
  23231828.727    15829265.96349  12349576.74545  23231830.828    23231841.959
       224.000         162.000
  24741213.620    -3307701.14849  -2563774.08245  24741212.015    24741230.251
       203.000         136.000
  23110397.354    -4188130.98549  -2928979.07046  23110396.985    23110411.625
       224.000         167.000
  21605505.277   -15643481.11149 -12150618.41147  21605504.500    21605514.942
       243.000         209.000
  23014556.104     2126597.13449   1681323.07146  23014555.705    23014571.361
       217.000         166.000
  20761240.249   -15204709.39849  -3598546.59547  20761240.342    20761248.866
       243.000         212.000
 00  1 11 20  0 30.0000000  0  9G27G 7G19G18G11G 8G 2G31G13
  20414579.025   -13251215.37149 -10299350.52448  20414578.601    20414588.196
       243.000         214.000
  23214124.640    -2552573.06649  -1970782.44945  23214122.477    23214136.105
       209.000         145.000
  20990912.912    -1217704.68249   -930148.57347  20990913.173    20990923.015
       242.000         204.000
  23252965.917    15940338.27149  12436126.35646  23252967.336    23252978.780
       223.000         163.000
  24730547.701    -3363749.72149  -2607448.12144  24730545.819    24730564.393
       204.000         131.000
  23094070.038    -4273931.80449  -2995836.70646  23094069.239    23094083.587
       223.000         166.000
  21599984.025   -15672496.13849 -12173227.50847  21599983.433    21599993.947
       243.000         210.000
  23030858.895     2212270.91049   1748081.66546  23030859.168    23030876.038
       218.000         166.000
  20763374.446   -15193494.15249  -3589807.46747  20763374.955    20763383.093
       244.000         212.000
 00  1 11 20  1  0.0000000  0  9G27G 7G19G18G11G 8G 2G31G13
  20410920.244   -13270442.69649 -10314332.86648  20410919.574    20410929.380
       242.000         213.000
  23195081.141    -2652647.47049  -2048762.29245  23195078.791    23195094.641
       205.000         147.000
  20997667.108    -1182211.79449   -902491.82647  20997666.718    20997677.554
       243.000         204.000
  23274129.662    16051552.70149  12522786.69246  23274128.726    23274140.704
       220.000         164.000
  24719910.952    -3419645.89949  -2651003.47845  24719906.905    24719928.817
       204.000         133.000
  23077742.750    -4359732.70449  -3062694.40746  23077741.552    23077756.900
       223.000         164.000
  21594500.208   -15701313.77749 -12195682.80247  21594499.509    21594509.775
       243.000         210.000
  23047239.456     2298350.26249   1815156.26346  23047239.318    23047255.422
       219.000         166.000
  20765608.982   -15181752.30649  -3580658.00848  20765609.188    20765617.538
       244.000         213.000
 00  1 11 20  1 30.0000000  0  9G27G 7G19G18G11G 8G 2G31G13
  20407314.229   -13289392.26049 -10329098.77147  20407313.371    20407323.351
       242.000         212.000
  23176066.450    -2752569.13649  -2126623.06245  23176066.523    23176080.125
       213.000         150.000
  21004474.677    -1146437.87949   -874616.10047  21004474.465    21004484.893
       243.000         204.000
  23295315.660    16162888.59849  12609541.69846  23295314.040    23295329.286
       219.000         163.000
  24709301.916    -3475394.84449  -2694444.10045  24709299.408    24709317.849
       204.000         133.000
  23061416.247    -4445530.16449  -3129549.43645  23061415.454    23061429.458
       222.000         162.000
  21589054.623   -15729930.28549 -12217981.36547  21589054.019    21589064.241
       244.000         210.000
  23063690.276     2384798.58849   1882518.40346  23063690.160    23063705.893
       218.000         165.000
  20767942.325   -15169490.46449  -3571103.36747  20767942.682    20767950.715
       244.000         212.000
 00  1 11 20  2  0.0000000  0  9G27G 7G19G18G11G 8G 2G31G13
  20403765.883   -13308038.38149 -10343628.23147  20403765.777    20403775.229
       242.000         212.000
  23157083.866    -2852323.60049  -2204353.58245  23157081.836    23157095.759
       212.000         151.000
  21011338.251    -1110369.68049   -846511.06347  21011338.393    21011348.604
       243.000         204.000
  23316522.736    16274333.00349  12696381.23646  23316523.397    23316537.852
       222.000         164.000
  24698724.813    -3530977.96149  -2737755.42245  24698723.270    24698740.843
       206.000         136.000
  23045089.683    -4531325.82249  -3196403.04945  23045087.468    23045102.946
       217.000         161.000
  21583650.286   -15758330.78049 -12240111.61047  21583649.510    21583659.829
       242.000         210.000
  23080206.018     2471588.77149   1950146.94146  23080205.606    23080220.956
       219.000         164.000
  20770377.612   -15156693.53949  -3561131.76547  20770378.106    20770386.022
       244.000         212.000
 00  1 11 20  2 30.0000000  0  9G27G 7G19G18G11G 8G 2G31G13
  20400280.397   -13326355.19849 -10357901.08548  20400280.210    20400289.786
       243.000         213.000
  23138132.675    -2951910.19749  -2281953.30345  23138129.466    23138144.531
       211.000         150.000
  21018260.375    -1073993.87249   -818166.32647  21018259.792    21018270.494
       242.000         203.000
  23337752.849    16385895.59749  12783312.88546  23337754.099    23337766.362
       222.000         163.000
  24688182.961    -3586374.96749  -2780921.71745  24688182.087    24688201.091
       208.000         141.000
  23028763.197    -4617120.51149  -3263255.91145  23028761.880    23028776.741
       219.000         161.000
  21578289.103   -15786503.94449 -12262064.70747  21578288.322    21578298.706
       243.000         209.000
  23096789.501     2558734.24649   2018052.28546  23096789.555    23096805.333
       217.000         164.000
  20772922.048   -15143322.81249  -3550713.05647  20772922.475    20772930.324
       244.000         212.000
 00  1 11 20  3  0.0000000  0  9G27G 7G19G18G11G 8G 2G31G13
  20396860.110   -13344328.56049 -10371906.31348  20396859.638    20396869.570
       241.000         213.000
  23119215.361    -3051320.23749  -2359415.48645  23119216.789    23119228.699
       217.000         151.000
  21025246.057    -1037283.51449   -789560.90847  21025246.125    21025256.400
       242.000         203.000
  23359009.131    16497596.49349  12870352.29445  23359009.534    23359022.965
       220.000         161.000
  24677678.208    -3641574.70449  -2823934.29345  24677675.651    24677695.420
       207.000         140.000
  23012443.190    -4702881.16649  -3330082.23845  23012442.558    23012456.991
       218.000         161.000
  21572972.646   -15814441.50049 -12283834.20647  21572971.593    21572982.535
       242.000         209.000
  23113441.856     2646243.12549   2086240.81246  23113441.917    23113458.061
       218.000         163.000
  20775582.907   -15129339.91549  -3539817.32048  20775583.133    20775591.408
       244.000         213.000
 00  1 11 20  3 30.0000000  0  9G27G 7G19G18G11G 8G 2G31G13
  20393505.341   -13361957.77449 -10385643.35548  20393504.780    20393514.636
       242.000         213.000
  23100335.089    -3150539.01549  -2436728.60145  23100333.672    23100346.949
       214.000         149.000
  21032298.392    -1000223.30449   -760682.87547  21032298.233    21032309.008
       241.000         203.000
  23380293.934    16609448.12849  12957509.15845  23380293.719    23380305.381
       220.000         159.000
  24667214.881    -3696556.73049  -2866777.24745  24667213.853    24667232.931
       208.000         142.000
  22996132.970    -4788590.89649  -3396868.91345  22996130.910    22996146.245
       217.000         162.000
  21567700.231   -15842147.93249 -12305423.62647  21567699.742    21567709.947
       243.000         209.000
  23130164.062     2734117.06749   2154713.75345  23130163.831    23130180.292
       215.000         162.000
  20778364.497   -15114722.82449  -3528427.40248  20778365.207    20778372.757
       245.000         213.000
 00  1 11 20  4  0.0000000  0  9G27G 7G19G18G11G 8G 2G31G13
  20390212.487   -13379261.70349 -10399126.95048  20390212.460    20390221.996
       243.000         213.000
  23081490.345    -3249566.83249  -2513892.94245  23081487.789    23081503.999
       212.000         149.000
  21039419.445     -962801.82049   -731523.32947  21039419.623    21039429.852
       242.000         203.000
  23401609.958    16721463.29149  13044793.47245  23401610.942    23401623.323
       220.000         158.000
  24656795.711    -3751310.94249  -2909442.70145  24656796.335    24656812.028
       206.000         143.000
  22979832.352    -4874250.11749  -3463616.22846  22979831.074    22979845.531
       220.000         163.000
  21562472.010   -15869622.21449 -12326832.14847  21562471.182    21562481.916
       242.000         209.000
  23146960.774     2822384.71049   2223493.50045  23146959.973    23146976.850
       216.000         161.000
  20781268.844   -15099461.09249  -3516535.17348  20781269.237    20781277.223
       245.000         213.000
 00  1 11 20  4 30.0000000  0  9G27G 7G19G18G11G 8G 2G31G13
  20386976.804   -13396266.12849 -10412377.15248  20386976.620    20386986.205
       243.000         214.000
  23062681.169    -3348405.43849  -2590909.82945  23062679.469    23062692.650
       211.000         151.000
  21046607.544     -925028.42449   -702089.57847  21046607.867    21046618.235
       242.000         203.000
  23422957.662    16833644.82449  13132207.42345  23422957.214    23422972.269
       216.000         157.000
  24646416.391    -3805853.76849  -2951943.31645  24646415.422    24646434.180
       211.000         143.000
  22963543.267    -4959850.23649  -3530317.46546  22963541.791    22963557.452
       219.000         164.000
  21557285.203   -15896879.21149 -12348071.35247  21557284.502    21557295.239
       243.000         209.000
  23163834.349     2911055.66949   2292587.51445  23163834.691    23163849.228
       218.000         160.000
  20784291.780   -15083575.36049  -3504156.71248  20784291.654    20784299.731
       244.000         213.000
 00  1 11 20  5  0.0000000  0  9G27G 7G19G18G11G 8G 2G31G13
  20383792.300   -13413000.45649 -10425416.87348  20383791.924    20383801.622
       242.000         213.000
  23043909.808    -3447047.91349  -2667773.88345  23043909.793    23043922.668
       214.000         153.000
  21053860.976     -886912.34749   -672388.80147  21053861.165    21053871.970
       242.000         203.000
  23444332.678    16945972.31949  13219735.04545  23444330.258    23444346.883
       210.000         154.000
  24636076.135    -3860192.52049  -2994285.01545  24636073.931    24636095.343
       206.000         143.000
  22947263.522    -5045399.46549  -3596979.06146  22947261.591    22947277.793
       218.000         164.000
  21552137.156   -15923932.30149 -12369151.67747  21552136.406    21552147.012
       243.000         210.000
  23180780.546     3000107.07149   2361977.98645  23180781.119    23180795.602
       218.000         160.000
  20787427.316   -15067097.56849  -3491316.90848  20787427.873    20787435.699
       245.000         213.000
 00  1 11 20  5 30.0000000  0  9G27G 7G19G18G11G 8G 2G31G13
  20380657.159   -13429475.82149 -10438254.80848  20380656.815    20380666.468
       243.000         213.000
  23025174.739    -3545501.52449  -2744490.72445  23025173.124    23025189.229
       214.000         155.000
  21061175.249     -848476.33749   -642438.71947  21061175.412    21061186.096
       242.000         203.000
  23465729.693    17058415.81349  13307353.07045  23465729.863    23465743.165
       215.000         155.000
  24625770.535    -3914345.29049  -3036481.78645  24625768.925    24625789.314
       204.000         142.000
  22930990.494    -5130913.95949  -3663613.60846  22930989.127    22931004.981
       217.000         164.000
  21547027.746   -15950782.50549 -12390073.91247  21547027.044    21547037.530
       244.000         211.000
  23197796.106     3089522.90049   2431652.41845  23197795.540    23197812.801
       216.000         160.000
  20790672.043   -15050047.30749  -3478031.00548  20790672.527    20790680.530
       246.000         214.000
 00  1 11 20  6  0.0000000  0  9G27G 7G19G18G11G 8G 2G31G13
  20377573.169   -13445682.58649 -10450883.46348  20377573.000    20377582.769
       244.000         214.000
  23006474.749    -3643770.16149  -2821063.47845  23006472.970    23006488.942
       211.000         155.000
  21068547.880     -809733.21149   -612249.31847  21068547.728    21068558.082
       242.000         203.000
  23487148.347    17170970.00349  13395057.36445  23487148.865    23487163.780
       217.000         160.000
  24615497.326    -3968328.83549  -3078546.76545  24615497.436    24615514.152
       210.000         140.000
  22914724.244    -5216391.68049  -3730219.46546  22914722.867    22914738.159
       216.000         163.000
  21541955.897   -15977435.29849 -12410842.33347  21541955.305    21541965.660
       244.000         212.000
  23214877.402     3179286.66649   2501597.98345  23214877.025    23214893.227
       215.000         159.000
  20794023.251   -15032436.59949  -3464308.39848  20794023.007    20794031.593
       243.000         213.000
 00  1 11 20  6 30.0000000  0  9G27G 7G19G18G11G 8G 2G31G13
  20374543.746   -13461602.67949 -10463288.72548  20374542.907    20374552.879
       242.000         214.000
  22987809.689    -3741853.03749  -2897491.51645  22987808.551    22987822.730
       214.000         156.000
  21075979.529     -770679.66649   -581818.04947  21075979.043    21075989.431
       241.000         202.000
  23508587.136    17283630.80549  13482844.75646  23508586.694    23508602.901
       216.000         163.000
  24605258.488    -4022138.97349  -3120476.59345  24605260.363    24605274.276
       211.000         140.000
  22898463.377    -5301841.84949  -3796803.87945  22898463.324    22898477.350
       215.000         162.000
  21536921.186   -16003892.82949 -12431458.59947  21536920.290    21536931.035
       243.000         211.000
  23232020.427     3269373.57249   2571795.35145  23232020.327    23232036.162
       217.000         158.000
  20797479.706   -15014272.37549  -3450154.47247  20797479.764    20797488.217
       243.000         212.000
 00  1 11 20  7  0.0000000  0  9G27G 7G19G18G11G 8G 2G31G13
  20371574.253   -13477207.15949 -10475448.05348  20371573.763    20371583.554
       243.000         214.000
  22969180.388    -3839748.77449  -2973773.68745  22969179.418    22969193.205
       212.000         156.000
  21083470.236     -731315.05349   -551144.37947  21083469.898    21083481.278
       240.000         201.000
  23530046.337    17396399.74949  13570716.40645  23530047.517    23530061.339
       218.000         162.000
  24595056.243    -4075755.40349  -3162255.44445  24595055.367    24595071.617
       209.000         141.000
  22882207.302    -5387268.38049  -3863369.86245  22882206.748    22882220.858
       216.000         162.000
  21531925.817   -16030143.27949 -12451913.50247  21531925.088    21531936.046
       243.000         211.000
  23249223.569     3359776.11849   2642238.63845  23249223.288    23249238.996
       213.000         157.000
  20801045.859   -14995532.22449  -3435551.77848  20801046.185    20801054.017
       245.000         213.000
 00  1 11 20  7 30.0000000  0  9G27G 7G19G18G11G 8G 2G31G13
  20368669.816   -13492470.31949 -10487341.42048  20368669.494    20368679.331
       244.000         214.000
  22950588.420    -3937448.17649  -3049902.86045  22950588.448    22950600.115
       215.000         155.000
  21091021.531     -691632.40349   -520222.88547  21091021.729    21091032.534
       241.000         201.000
  23551529.634    17509292.35949  13658684.40446  23551531.214    23551544.248
       220.000         164.000
  24584893.098    -4129162.27949  -3203871.03545  24584890.934    24584909.464
       206.000         140.000
  22865958.461    -5472657.99749  -3929907.07846  22865958.117    22865972.018
       220.000         163.000
  21526973.499   -16056167.85049 -12472192.40747  21526972.877    21526983.460
       242.000         210.000
  23266489.166     3450507.72449   2712938.33645  23266488.695    23266505.707
       214.000         157.000
  20804724.924   -14976198.67449  -3420486.69647  20804724.639    20804733.263
       244.000         212.000
 00  1 11 20  8  0.0000000  0  9G27G 7G19G18G11G 8G 2G31G13
  20365829.962   -13507393.70149 -10498970.03048  20365829.530    20365839.224
       243.000         215.000
  22932036.581    -4034939.47649  -3125869.91645  22932036.691    22932049.744
       219.000         157.000
  21098637.401     -651611.93449   -489038.17347  21098637.477    21098647.893
       242.000         202.000
  23573039.653    17622324.19149  13746760.85245  23573040.034    23573054.011
       218.000         162.000
  24574774.443    -4182332.55049  -3245302.26345  24574772.399    24574790.744
       207.000         137.000
  22849717.191    -5558008.31149  -3996413.70246  22849715.691    22849730.586
       217.000         163.000
  21522063.433   -16081970.25349 -12492298.18447  21522062.606    21522073.836
       243.000         210.000
  23283819.284     3541578.60249   2783902.40345  23283819.637    23283837.627
       211.000         156.000
  20808515.789   -14956277.03549  -3404963.34347  20808516.114    20808524.187
       244.000         212.000
 00  1 11 20  8 30.0000000  0  9G27G 7G19G18G11G 8G 2G31G13
  20363053.696   -13521983.46249 -10510338.67348  20363053.332    20363063.054
       243.000         214.000
  22913525.946    -4132214.56449  -3201668.50745  22913525.376    22913538.784
       221.000         162.000
  21106317.681     -611252.16049   -457589.06147  21106317.291    21106328.104
       240.000         201.000
  23594574.597    17735489.74949  13834941.52945  23594575.056    23594589.453
       218.000         160.000
  24564702.432    -4235263.68749  -3286547.15945  24564702.310    24564718.413
       214.000         143.000
  22833479.713    -5643336.50649  -4062903.06745  22833478.632    22833492.508
       217.000         162.000
  21517195.804   -16107549.47949 -12512230.04847  21517194.996    21517206.292
       242.000         209.000
  23301218.053     3633010.37949   2855147.70045  23301218.392    23301236.030
       211.000         157.000
  20812419.633   -14935762.19149  -3388977.76647  20812419.682    20812428.685
       243.000         212.000
 00  1 11 20  9  0.0000000  0  9G27G 7G19G18G11G 8G 2G31G13
  20360339.016   -13536249.47149 -10521455.05048  20360338.651    20360348.111
       243.000         214.000
  22895056.247    -4229272.43649  -3277297.83046  22895055.493    22895069.339
       222.000         165.000
  21114058.942     -570571.90449   -425890.21547  21114059.131    21114069.937
       242.000         201.000
  23616133.776    17848782.39249  13923221.27545  23616134.181    23616149.708
       222.000         162.000
  24554673.642    -4287969.72049  -3327616.64445  24554675.782    24554688.757
       214.000         143.000
  22817248.784    -5728631.97549  -4129366.96346  22817247.628    22817261.491
       218.000         164.000
  21512370.650   -16132905.98349 -12531988.35347  21512370.226    21512380.344
       242.000         209.000
  23318688.263     3724817.36549   2926685.37545  23318688.408    23318707.060
       212.000         157.000
  20816434.696   -14914662.70549  -3372536.64247  20816435.552    20816443.351
       245.000         212.000
 00  1 11 20  9 30.0000000  0  9G27G 7G19G18G11G 8G 2G31G13
  20357682.533   -13550209.32749 -10532332.86748  20357681.590    20357691.588
       242.000         214.000
  22876625.755    -4326123.28649  -3352765.83246  22876624.253    22876639.920
       222.000         167.000
  21121861.639     -529569.04949   -393940.01347  21121861.440    21121872.396
       241.000         202.000
  23637715.677    17962195.27549  14011594.69146  23637715.280    23637731.166
       222.000         164.000
  24544685.373    -4340458.73149  -3368517.05045  24544680.971    24544698.862
       210.000         139.000
  22801023.309    -5813897.79549  -4195807.77646  22801022.201    22801035.535
       213.000         164.000
  21507584.539   -16158057.17949 -12551586.66747  21507583.919    21507594.448
       243.000         210.000
  23336231.278     3817005.68249   2998520.15045  23336231.273    23336249.985
       210.000         157.000
  20820556.281   -14893004.68949  -3355660.27547  20820556.589    20820564.403
       245.000         212.000
 00  1 11 20 10  0.0000000  0  9G27G 7G19G18G11G 8G 2G31G13
  20355085.329   -13563857.01549 -10542967.44148  20355084.908    20355094.827
       243.000         214.000
  22858233.098    -4422776.84149  -3428080.10646  22858234.174    22858246.737
       227.000         172.000
  21129724.860     -488247.30449   -361741.32047  21129724.126    21129735.728
       239.000         201.000
  23659318.045    18075716.31549  14100052.37046  23659317.875    23659333.157
       221.000         164.000
  24534736.629    -4392737.08449  -3409253.29045  24534733.977    24534752.969
       210.000         140.000
  22784802.505    -5899136.11149  -4262227.12146  22784800.371    22784815.429
       214.000         163.000
  21502831.186   -16183036.40949 -12571050.98047  21502830.710    21502841.867
       244.000         211.000
  23353844.898     3909566.38449   3070645.06345  23353846.598    23353864.452
       214.000         158.000
  20824780.946   -14870803.85149  -3338360.94548  20824780.964    20824790.085
       244.000         213.000
 00  1 11 20 10 30.0000000  0  9G27G 7G19G18G11G 8G 2G31G13
  20352549.873   -13577181.31449 -10553350.01948  20352549.533    20352559.203
       242.000         214.000
  22839878.858    -4519230.50649  -3503238.63146  22839878.121    22839892.025
       227.000         174.000
  21137644.987     -446627.05749   -329310.02247  21137645.453    21137655.683
       242.000         202.000
  23680937.089    18189324.45449  14188577.95045  23680937.978    23680952.977
       222.000         162.000
  24524826.157    -4444815.24349  -3449833.55545  24524824.727    24524841.616
       209.000         141.000
  22768589.652    -5984332.88749  -4328614.11246  22768587.565    22768602.610
       213.000         163.000
  21498109.561   -16207849.21949 -12590385.60647  21498109.129    21498119.878
       244.000         211.000
  23371526.207     4002479.54449   3143044.65445  23371527.848    23371545.955
       215.000         159.000
  20829108.673   -14848061.64949  -3320639.77648  20829109.068    20829117.272
       245.000         213.000
 00  1 11 20 11  0.0000000  0  9G27G 7G19G18G11G 8G 2G31G13
  20350076.836   -13590177.26149 -10563476.74548  20350076.395    20350086.131
       242.000         213.000
  22821563.852    -4615476.53749  -3578235.37546  22821563.201    22821577.056
       227.000         176.000
  21145622.923     -404703.65449   -296642.50247  21145622.570    21145633.619
       241.000         202.000
  23702570.082    18303004.36049  14277159.41646  23702570.912    23702586.585
       219.000         164.000
  24514957.205    -4496677.45649  -3490245.57845  24514957.088    24514971.748
       211.000         140.000
  22752387.488    -6069474.52049  -4394958.11546  22752386.660    22752400.672
       217.000         165.000
  21493418.166   -16232503.15949 -12609596.44947  21493417.467    21493427.636
       243.000         211.000
  23389268.726     4095714.37849   3215694.89245  23389270.375    23389288.104
       217.000         160.000
  20833537.691   -14824787.36249  -3302503.99848  20833538.172    20833545.692
       245.000         213.000
 00  1 11 20 11 30.0000000  0  9G27G 7G19G18G11G 8G 2G31G13
  20347669.404   -13602828.59249 -10573334.92648  20347668.702    20347678.423
       242.000         213.000
  22803290.252    -4711504.18249  -3653061.98146  22803289.801    22803303.567
       228.000         179.000
  21153661.377     -362460.49049   -263725.80947  21153660.725    21153672.451
       240.000         201.000
  23724215.999    18416752.03449  14365793.66246  23724216.737    23724232.055
       219.000         166.000
  24505132.013    -4548308.04749  -3530477.07145  24505131.211    24505149.262
       208.000         139.000
  22736194.752    -6154567.65449  -4461264.33446  22736193.581    22736208.415
       218.000         168.000
  21488755.409   -16257006.19649 -12628689.70647  21488755.124    21488764.834
       245.000         211.000
  23407069.136     4189252.50249   3288581.44745  23407070.013    23407088.341
       216.000         160.000
  20838070.314   -14800968.82849  -3283944.14248  20838070.554    20838078.771
       244.000         213.000
 00  1 11 20 12  0.0000000  0  9G27G 7G19G18G11G 8G 2G31G13
  20345330.089   -13615121.15049 -10582913.56148  20345329.601    20345339.313
       242.000         213.000
  22785061.902    -4807294.70049  -3727703.78746  22785060.621    22785074.423
       228.000         178.000
  21161763.003     -319886.13749   -230551.06547  21161763.486    21161774.223
       242.000         201.000
  23745873.077    18530560.92549  14454475.61146  23745872.664    23745887.974
       215.000         165.000
  24495351.424    -4599703.93449  -3570525.68545  24495350.961    24495365.975
       210.000         139.000
  22720014.438    -6239594.99849  -4527519.29446  22720013.092    22720028.004
       220.000         170.000
  21484124.779   -16281340.38749 -12647651.39747  21484123.751    21484134.369
       243.000         211.000
  23424924.110     4283079.10549   3361692.81045  23424925.112    23424942.808
       215.000         160.000
  20842711.222   -14776580.49849  -3264940.28047  20842711.161    20842720.081
       244.000         212.000
 00  1 11 20 12 30.0000000  0  9G27G 7G19G18G11G 8G 2G31G13
  20343057.050   -13627066.07149 -10592221.30248  20343056.605    20343066.279
       242.000         213.000
  22766882.015    -4902831.13549  -3802147.63646  22766881.476    22766894.425
       229.000         179.000
  21169929.037     -276974.48649   -197113.48547  21169928.603    21169939.981
       240.000         201.000
  23767543.032    18644437.25449  14543210.10846  23767543.042    23767557.836
       217.000         163.000
  24485616.904    -4650857.60249  -3610385.64245  24485615.081    24485630.645
       204.000         135.000
  22703848.393    -6324548.20149  -4593716.47246  22703847.833    22703862.179
       226.000         171.000
  21479532.033   -16305474.54849 -12666457.20647  21479531.500    21479541.967
       245.000         211.000
  23442835.132     4377199.54649   3435033.09145  23442836.812    23442853.384
       218.000         159.000
  20847463.089   -14751609.38249  -3245482.30848  20847463.591    20847471.773
       245.000         213.000
 00  1 11 20 13  0.0000000  0  9G27G 7G19G18G11G 8G 2G31G13
  20340849.526   -13638666.72549 -10601260.78748  20340849.353    20340858.966
       243.000         213.000
  22748747.761    -4998126.84549  -3876403.92846  22748746.850    22748761.173
       230.000         179.000
  21178159.026     -233725.01949   -163412.66847  21178159.046    21178170.276
       240.000         201.000
  23789230.356    18758402.53049  14632013.89746  23789231.588    23789246.404
       222.000         165.000
  24475929.058    -4701764.40949  -3650053.24745  24475927.348    24475943.865
       199.000         134.000
  22687694.419    -6409437.79649  -4659864.07846  22687693.756    22687708.059
       226.000         173.000
  21474979.007   -16329400.93249 -12685101.12147  21474978.192    21474988.700
       244.000         211.000
  23460803.530     4471620.93549   3508607.90645  23460805.173    23460821.444
       217.000         159.000
  20852327.381   -14726047.94849  -3225564.35948  20852327.304    20852335.976
       244.000         213.000
 00  1 11 20 13 30.0000000  0  9G27G 7G19G18G11G 8G 2G31G13
  20338707.109   -13649925.58749 -10610033.94348  20338706.946    20338716.443
       243.000         213.000
  22730657.100    -5093194.11749  -3950482.20346  22730656.564    22730669.269
       230.000         182.000
  21186454.995     -190130.32949   -129442.85947  21186455.412    21186466.064
       241.000         201.000
  23810936.150    18872465.12649  14720893.55746  23810936.142    23810952.265
       222.000         167.000
  24466287.870    -4752425.85749  -3689529.56945  24466287.881    24466303.122
       205.000         136.000
  22671552.758    -6494262.61949  -4725961.21046  22671552.451    22671565.367
       226.000         174.000
  21470468.159   -16353105.91349 -12703572.51947  21470467.485    21470477.899
       245.000         211.000
  23478830.472     4566350.27249   3582422.68645  23478831.723    23478848.176
       218.000         158.000
  20857305.385   -14699887.96649  -3205179.99847  20857305.328    20857313.950
       243.000         212.000
 00  1 11 20 14  0.0000000  0  9G27G 7G19G18G11G 8G 2G31G13
  20336626.494   -13660859.44249 -10618553.84248  20336626.087    20336636.116
       243.000         214.000
  22712610.616    -5188029.67149  -4024379.93646  22712609.388    22712622.657
       229.000         182.000
  21194814.622     -146200.61549    -95211.98447  21194814.016    21194826.030
       239.000         201.000
  23832661.740    18986632.70749  14809855.01546  23832662.251    23832677.875
       223.000         168.000
  24456695.179    -4802835.64849  -3728809.87045  24456694.553    24456714.921
       208.000         137.000
  22655424.524    -6579017.12549  -4792003.54646  22655423.167    22655437.393
       225.000         174.000
  21466000.538   -16376583.03549 -12721866.37747  21465999.678    21466010.192
       244.000         210.000
  23496916.570     4661390.86649   3656480.00545  23496918.262    23496934.484
       214.000         156.000
  20862395.837   -14673137.76149  -3184335.72147  20862396.194    20862404.227
       245.000         212.000
 00  1 11 20 14 30.0000000  0  9G27G 7G19G18G11G 8G 2G31G13
  20334606.582   -13671474.06849 -10626824.98548  20334606.295    20334615.915
       243.000         214.000
  22694605.680    -5282645.16449  -4098106.18846  22694604.422    22694616.892
       228.000         182.000
  21203235.460     -101948.25849    -60729.70247  21203235.396    21203246.709
       240.000         200.000
  23854408.617    19100910.94949  14898902.68346  23854409.226    23854424.514
       222.000         167.000
  24447152.778    -4852982.62549  -3767885.41345  24447153.118    24447169.516
       207.000         137.000
  22639304.920    -6663725.11749  -4858009.64746  22639304.406    22639317.425
       227.000         174.000
  21461573.853   -16399845.02349 -12739992.59247  21461572.762    21461583.865
       244.000         210.000
  23515060.883     4756738.26949   3730776.41145  23515060.442    23515078.180
       216.000         155.000
  20867595.570   -14645813.47049  -3163044.11847  20867595.974    20867604.019
       244.000         212.000
 00  1 11 20 15  0.0000000  0  9G27G 7G19G18G11G 8G 2G31G13
  20332651.062   -13681750.72649 -10634832.78048  20332650.989    20332660.070
       244.000         214.000
  22676642.011    -5377044.69449  -4171664.18546  22676641.398    22676654.111
       229.000         183.000
  21211720.614      -57359.20949    -25985.06047  21211720.661    21211731.764
       240.000         200.000
  23876174.384    19215289.93049  14988028.86146  23876174.249    23876191.489
       222.000         166.000
  24437660.655    -4902862.27949  -3806752.62045  24437659.171    24437678.820
       205.000         139.000
  22623192.396    -6748397.34849  -4923987.89046  22623191.101    22623204.230
       227.000         175.000
  21457184.865   -16422909.44449 -12757964.86447  21457184.071    21457195.254
       243.000         211.000
  23533262.767     4852387.94449   3805308.36445  23533262.971    23533280.435
       215.000         155.000
  20872905.327   -14617910.52249  -3141301.60947  20872905.508    20872913.714
       243.000         212.000
 00  1 11 20 15 30.0000000  0  9G27G 7G19G18G11G 8G 2G31G13
  20330761.766   -13691679.09649 -10642569.17148  20330761.217    20330771.127
       243.000         214.000
  22658724.836    -5471200.19349  -4245032.01746  22658723.492    22658737.371
       228.000         184.000
  21220272.742      -12417.98449      9034.00647  21220272.841    21220284.335
       240.000         200.000
  23897956.779    19329756.27249  15077223.10846  23897956.479    23897973.774
       223.000         165.000
  24428220.196    -4952470.58449  -3845408.35245  24428220.085    24428236.836
       209.000         139.000
  22607089.321    -6833019.61949  -4989927.20546  22607088.468    22607102.106
       225.000         177.000
  21452831.370   -16445787.00349 -12775791.53547  21452830.694    21452841.893
       243.000         211.000
  23551523.381     4948347.09749   3880081.45845  23551523.270    23551541.134
       212.000         154.000
  20878325.080   -14589429.54149  -3119108.68947  20878325.156    20878333.578
       244.000         212.000
 00  1 11 20 16  0.0000000  0  9G27G 7G19G18G11G 8G 2G31G13
  20328939.591   -13701254.42249 -10650030.45348  20328939.048    20328949.119
       243.000         214.000
  22640855.851    -5565100.79749  -4318201.19746  22640854.003    22640867.781
       227.000         183.000
  21228890.409       32867.58549     44321.39647  21228890.465    21228901.222
       239.000         199.000
  23919755.165    19444306.48549  15166482.73946  23919755.528    23919772.033
       222.000         164.000
  24418828.926    -5001822.27049  -3883864.13045  24418828.727    24418845.498
       211.000         139.000
  22590997.928    -6917579.06249  -5055817.57346  22590997.228    22591010.975
       226.000         178.000
  21448510.079   -16468495.51049 -12793486.47347  21448509.606    21448520.235
       245.000         212.000
  23569844.391     5044624.84549   3955102.80545  23569844.726    23569862.253
       214.000         154.000
  20883852.585   -14560382.48949  -3096474.66747  20883852.820    20883861.291
       244.000         212.000
 00  1 11 20 16 30.0000000  0  9G27G 7G19G18G11G 8G 2G31G13
  20327185.071   -13710474.79149 -10657215.15948  20327184.903    20327194.412
       243.000         214.000
  22623034.868    -5658749.94649  -4391174.47246  22623033.710    22623047.240
       225.000         183.000
  21237573.567       78497.48549     79877.09847  21237573.414    21237584.720
       240.000         200.000
  23941566.353    19558923.85249  15255794.64246  23941567.258    23941583.200
       220.000         164.000
  24409483.288    -5050934.69049  -3922133.50345  24409483.356    24409502.470
       207.000         143.000
  22574919.251    -7002072.81049  -5121656.76046  22574918.039    22574931.929
       224.000         178.000
  21444220.915   -16491035.53149 -12811050.11747  21444219.905    21444230.903
       244.000         212.000
  23588225.791     5141217.81049   4030369.76545  23588226.021    23588243.493
       212.000         154.000
  20889488.307   -14530766.54149  -3073397.34247  20889488.678    20889496.998
       244.000         212.000
 00  1 11 20 17  0.0000000  0  9G27G 7G19G18G11G 8G 2G31G13
  20325495.623   -13719353.33849 -10664133.50648  20325495.242    20325504.521
       243.000         214.000
  22605265.606    -5752127.54449  -4463936.11846  22605265.280    22605278.681
       228.000         184.000
  21246320.328      124461.65449    115693.27647  21246319.829    21246331.506
       239.000         199.000
  23963387.148    19673591.00449  15345145.32645  23963386.393    23963402.514
       217.000         162.000
  24400182.944    -5099807.39649  -3960216.03145  24400182.265    24400201.874
       211.000         144.000
  22558855.916    -7086485.52749  -5187432.79946  22558854.710    22558868.759
       222.000         177.000
  21439964.350   -16513404.14049 -12828480.20947  21439964.112    21439974.233
       246.000         212.000
  23606667.213     5238126.33849   4105882.60445  23606667.964    23606684.852
       214.000         154.000
  20895231.357   -14500587.12249  -3049880.95747  20895231.382    20895239.453
       244.000         211.000
 00  1 11 20 17 30.0000000  0  9G27G 7G19G18G11G 8G 2G31G13
  20323864.015   -13727927.30249 -10670814.51748  20323863.742    20323872.992
       243.000         214.000
  22587546.691    -5845241.56949  -4536492.37846  22587545.717    22587558.697
       228.000         185.000
  21255126.400      170738.49949    151753.08947  21255125.933    21255138.158
       239.000         200.000
  23985215.382    19788298.26249  15434527.27845  23985215.961    23985231.385
       218.000         160.000
  24390927.718    -5148444.92849  -3998115.31845  24390926.953    24390943.720
       214.000         145.000
  22542809.482    -7170809.61449  -5253139.79446  22542808.768    22542821.810
       222.000         176.000
  21435741.565   -16535595.91149 -12845772.49648  21435740.875    21435751.512
       245.000         213.000
  23625165.316     5335331.79449   4181626.80845  23625166.687    23625181.765
       217.000         154.000
  20901076.454   -14469870.78349  -3025946.19847  20901076.796    20901084.844
       245.000         211.000
 00  1 11 20 18  0.0000000  0  9G27G 7G19G18G11G 8G 2G31G13
  20322286.738   -13736216.39249 -10677273.53548  20322286.234    20322296.098
       243.000         214.000
  22569870.631    -5938128.23849  -4608871.48446  22569869.385    22569882.840
       226.000         183.000
  21263990.189      217317.85649    188048.62847  21263990.106    21264001.289
       240.000         200.000
  24007048.284    19903030.51749  15523928.71245  24007048.406    24007064.922
       220.000         162.000
  24381716.853    -5196850.04849  -4035833.51345  24381716.579    24381732.040
       213.000         145.000
  22526775.613    -7255067.69749  -5318795.34446  22526774.668    22526788.216
       220.000         176.000
  21431552.740   -16557607.82349 -12862924.62947  21431551.456    21431562.167
       244.000         212.000
  23643714.660     5432805.77349   4257580.27645  23643714.187    23643731.138
       217.000         154.000
  20907021.498   -14438630.04349  -3001602.79447  20907021.740    20907030.063
       245.000         212.000
 00  1 11 20 18 30.0000000  0  9G27G 7G19G18G11G 8G 2G31G13
  20320764.211   -13744217.25849 -10683507.96048  20320763.558    20320773.835
       243.000         214.000
  22552236.660    -6030794.89249  -4681079.13446  22552235.982    22552249.001
       228.000         182.000
  21272911.011      264196.68649    224577.53547  21272910.580    21272921.941
       241.000         199.000
  24028885.019    20017783.19849  15613346.06146  24028884.449    24028901.226
       219.000         163.000
  24372555.540    -5244992.78449  -4073347.22745  24372555.011    24372570.054
       217.000         145.000
  22510751.660    -7339273.72049  -5384410.33546  22510750.881    22510764.369
       223.000         176.000
  21427399.906   -16579430.38749 -12879929.22647  21427399.420    21427409.884
       245.000         211.000
  23662312.511     5530536.52349   4333733.79445  23662312.652    23662328.675
       215.000         154.000
  20913068.086   -14406855.16349  -2976843.17147  20913068.254    20913076.553
       244.000         212.000
 00  1 11 20 19  0.0000000  0  9G27G 7G19G18G11G 8G 2G31G13
  20319298.855   -13751917.49149 -10689508.12748  20319298.532    20319308.032
       243.000         214.000
  22534643.825    -6123246.72049  -4753119.37846  22534643.171    22534655.381
       228.000         181.000
  21281890.862      311385.37249    261347.87147  21281891.073    21281902.328
       240.000         199.000
  24050728.518    20132570.57149  15702790.43645  24050728.737    24050744.650
       221.000         161.000
  24363447.438    -5292856.76149  -4110643.72345  24363446.777    24363465.173
       215.000         145.000
  22494738.405    -7423424.22549  -5449982.04846  22494737.827    22494751.202
       223.000         177.000
  21423283.536   -16601061.75449 -12896784.83647  21423282.430    21423292.840
       244.000         211.000
  23680957.924     5628518.98149   4410083.45845  23680957.524    23680975.455
       214.000         154.000
  20919216.774   -14374543.45149  -2951665.26447  20919216.937    20919225.026
       244.000         211.000
 00  1 11 20 19 30.0000000  0  9G27G 7G19G18G11G 8G 2G31G13
  20317895.338   -13759293.50449 -10695255.66348  20317894.994    20317904.166
       243.000         214.000
  22517088.136    -6215502.51949  -4825006.90046  22517086.725    22517098.932
       227.000         179.000
  21290931.400      358893.45049    298367.10047  21290930.715    21290942.244
       238.000         199.000
  24072581.334    20247405.41549  15792271.81145  24072582.378    24072597.305
       217.000         156.000
  24354387.825    -5340464.86949  -4147740.90445  24354386.089    24354405.358
       212.000         144.000
  22478733.016    -7507532.58749  -5515520.93446  22478732.118    22478745.928
       223.000         178.000
  21419202.695   -16622506.40749 -12913494.95147  21419201.895    21419212.301
       245.000         210.000
  23699650.846     5726751.04149   4486627.56445  23699650.543    23699668.291
       212.000         154.000
  20925468.725   -14341689.11049  -2926064.51647  20925469.109    20925477.423
       244.000         211.000
 00  1 11 20 20  0.0000000  0  9G27G 7G19G18G11G 8G 2G31G13
  20316562.740   -13766296.14749 -10700712.26148  20316562.177    20316571.697
       243.000         214.000
  22499574.044    -6307538.88349  -4896723.41946  22499572.970    22499586.050
       227.000         180.000
  21300034.108      406729.39549    335641.81647  21300033.943    21300044.667
       239.000         198.000
  24094447.203    20362309.42549  15881807.06545  24094447.291    24094464.090
       213.000         151.000
  24345378.852    -5387806.83249  -4184630.68945  24345376.876    24345394.562
       207.000         143.000
  22462734.082    -7591607.24749  -5581033.55246  22462732.974    22462746.662
       226.000         179.000
  21415158.730   -16643757.66049 -12930054.36447  21415158.025    21415168.563
       245.000         210.000
  23718395.468     5825254.88849   4563383.47545  23718394.977    23718414.062
       211.000         153.000
  20931831.156   -14308254.73749  -2900011.78547  20931831.365    20931839.842
       244.000         212.000
